GFSWCAN_prec_cloud_003.txt.gz
Cloud_Cover
100 100 100 100 100 30 5 5 5 5 5 5 15 82 100 100 100 100 100 98 98 94 100 100 100 100 100 100 100 100 100 100 100 100 100 100 100 100 100 100 53 67 100 97 48 64 80 100 100 98 89 94 69 70
100 100 100 57 96 100 56 5 6 5 5 8 72 100 100 100 100 100 100 100 100 100 100 100 100 100 100 100 100 100 100 100 100 100 99 100 100 100 100 98 34 96 72 40 74 34 43 100 98 55 5 5 3 5
100 100 90 9 5 5 24 5 5 5 5 5 5 84 72 78 95 100 100 100 100 100 100 100 100 100 100 100 100 100 100 100 100 100 96 99 100 100 98 80 55 17 86 99 77 5 5 39 47 34 5 57 77 75
100 17 5 5 5 5 5 7 5 5 5 5 13 90 82 14 100 100 100 100 100 100 100 100 100 100 97 100 100 100 100 100 100 100 100 100 100 100 95 47 26 46 49 56 99 36 53 23 5 5 85 35 100 100
11 10 5 5 6 5 5 5 5 5 5 5 5 5 9 49 90 100 100 100 100 100 100 100 100 100 100 100 100 100 100 100 100 100 100 100 93 98 87 100 95 26 67 37 99 52 13 5 5 34 100 100 100 100
52 5 5 5 5 5 5 2 3 5 5 5 5 27 9 100 97 95 100 99 100 100 100 100 100 100 100 100 100 100 100 100 100 100 100 100 100 68 51 19 20 7 5 23 5 48 52 29 98 100 100 100 100 100
8 6 5 5 5 5 5 5 5 5 5 5 5 5 18 100 93 100 100 100 100 100 100 100 100 100 100 100 100 100 100 100 100 100 100 100 100 100 91 16 64 39 16 35 100 100 100 83 20 57 76 5 37 92
10 41 5 5 5 5 5 5 5 5 5 3 5 5 6 82 96 100 100 100 100 100 100 100 100 100 100 100 100 100 100 100 100 100 100 100 100 91 68 100 88 74 54 92 99 100 84 64 51 85 86 100 99 100
28 15 5 5 5 5 5 5 5 5 20 2 5 31 94 83 91 100 100 100 100 100 100 100 100 100 100 100 100 100 100 100 100 100 100 100 100 100 100 95 99 98 100 100 100 100 94 86 76 78 99 100 100 100
61 23 5 5 5 5 5 5 5 100 23 5 99 100 100 100 100 100 100 100 100 100 100 100 100 99 100 100 100 100 100 100 100 100 100 100 100 100 97 100 100 100 100 100 100 100 99 100 98 100 100 100 100 100
100 63 6 5 5 5 5 5 5 96 8 15 100 100 100 100 100 100 100 100 100 100 100 100 100 100 54 100 100 100 100 100 100 100 100 100 100 67 87 81 78 100 100 100 100 100 100 100 100 100 100 100 95 75
100 23 8 5 5 5 5 5 11 29 100 99 99 100 100 100 100 100 100 100 100 100 100 100 100 67 96 99 100 100 100 99 100 100 100 100 63 85 100 100 100 100 100 100 92 100 98 99 89 76 54 28 32 86
22 20 6 5 5 5 5 5 6 6 80 95 100 100 100 100 100 100 99 100 100 100 100 100 100 100 100 93 100 100 94 98 99 100 100 100 19 37 100 100 100 100 100 100 100 100 97 78 73 65 98 100 100 94
5 5 1 3 1 5 5 5 5 32 100 100 92 100 100 100 100 100 100 73 80 100 100 100 100 100 100 100 86 26 91 100 100 100 100 100 100 100 100 100 99 97 96 25 12 56 60 88 85 100 100 100 100 100
5 2 0 0 2 4 5 5 35 81 100 99 100 100 100 100 100 100 100 99 100 100 100 100 100 100 100 100 96 80 100 100 100 100 100 40 62 22 26 47 70 99 100 100 100 100 100 97 98 99 100 100 100 100
5 1 0 0 4 5 5 5 97 100 100 100 97 100 100 100 100 100 100 100 100 100 100 100 100 100 100 100 100 100 100 100 100 93 6 23 5 5 5 5 19 81 99 100 100 100 100 100 100 100 100 100 100 100
6 4 4 4 5 5 4 82 100 100 100 100 100 100 100 100 100 100 100 100 100 100 100 100 100 99 92 97 100 100 100 100 100 65 89 22 5 18 31 9 13 5 5 82 100 100 100 100 100 100 100 100 100 100
68 4 3 5 26 5 6 100 100 100 100 95 99 70 100 100 100 100 100 100 100 100 100 100 100 100 53 20 100 100 100 100 100 70 26 12 18 74 85 74 40 6 49 100 100 100 100 99 77 94 89 95 100 100
12 9 8 5 56 9 14 81 96 100 77 100 100 61 86 100 100 100 100 100 100 100 100 100 100 100 100 96 91 100 100 100 100 96 11 5 7 57 83 56 43 46 66 100 100 100 93 88 98 99 100 100 100 100
5 5 4 5 36 11 27 62 64 100 94 48 100 100 70 99 98 100 100 100 100 100 100 100 94 100 100 100 100 100 93 100 100 94 96 86 76 100 100 100 100 88 99 100 95 72 100 100 100 100 100 100 100 100
5 8 3 6 52 92 60 100 96 82 91 100 98 90 61 85 100 100 100 100 100 100 100 100 100 100 100 100 100 100 100 100 100 70 83 100 100 100 100 100 100 100 100 80 98 92 100 100 100 100 100 100 100 100
5 5 5 7 14 9 73 94 92 43 100 100 86 92 100 84 100 100 100 100 100 100 100 100 100 100 100 100 100 100 100 100 100 98 80 74 74 97 100 100 100 100 100 100 100 100 98 97 100 100 100 100 92 100
5 5 5 9 5 5 2 31 26 77 96 76 66 42 63 96 78 100 100 100 100 100 96 100 100 100 100 100 100 100 100 100 100 99 96 100 100 93 100 100 100 100 100 100 100 100 100 100 100 100 100 100 99 99
5 21 6 8 6 5 2 5 8 81 37 33 99 68 6 76 85 96 100 100 100 100 100 99 100 100 100 100 100 100 100 100 100 100 100 100 100 100 100 100 100 100 100 100 100 100 100 100 100 100 100 100 100 97
8 32 5 5 5 5 21 28 74 12 96 67 100 61 31 72 100 91 66 100 100 100 100 100 100 100 100 100 100 100 100 100 100 100 100 100 100 100 100 100 100 100 100 100 100 100 100 100 100 100 99 100 98 60
44 5 41 5 5 5 5 7 76 36 83 100 58 56 72 75 81 84 100 100 100 100 100 100 100 100 100 100 100 100 100 100 100 100 100 100 100 100 100 100 100 100 100 100 100 100 100 100 100 100 97 72 76 46
52 84 34 18 38 27 22 44 10 62 100 99 81 81 82 75 66 98 100 100 100 100 100 100 100 100 100 100 100 100 100 100 100 100 100 100 100 100 100 100 100 100 100 100 100 100 100 100 100 92 96 99 93 88
100 100 64 83 80 64 5 67 87 70 68 41 32 87 56 44 35 97 100 100 100 100 100 100 100 100 100 100 100 100 100 100 100 100 100 100 100 100 100 100 100 100 100 100 100 100 100 100 94 96 100 100 100 100
100 98 100 99 100 100 91 5 5 43 37 41 51 60 25 6 51 74 100 83 100 100 100 100 100 100 100 100 100 100 100 100 100 100 100 100 100 100 100 100 100 100 100 100 100 100 100 100 100 100 100 100 100 59
100 98 90 88 46 34 5 31 73 85 50 38 19 25 29 23 21 57 77 98 100 100 100 100 100 100 100 100 100 100 100 100 100 100 100 100 100 100 100 100 100 100 100 100 100 100 100 100 100 100 99 75 62 92
83 99 86 71 35 38 84 98 93 100 90 77 82 87 32 29 22 72 100 100 100 100 100 100 100 100 100 100 100 100 100 100 100 100 100 100 100 100 100 100 100 100 100 100 100 100 100 100 100 100 98 100 100 100
85 79 58 92 89 96 96 97 99 93 95 99 77 96 83 87 75 71 100 100 100 100 100 100 100 100 100 100 100 100 100 100 100 100 100 100 100 100 100 100 100 100 100 100 100 100 100 100 100 100 100 100 100 89
100 99 97 94 100 100 90 89 98 68 79 96 81 90 66 94 75 98 100 100 100 100 100 100 100 100 100 100 100 100 100 100 100 100 100 100 100 100 100 100 100 100 100 100 100 100 100 100 100 100 100 94 71 19

GFSWCAN_prec_cloud_006.txt.gz
Cloud_Cover
13 7 72 100 50 5 5 8 5 5 5 5 5 21 100 100 100 100 100 100 100 100 100 100 100 100 100 100 100 100 100 100 100 100 100 95 99 97 100 36 84 90 58 98 100 100 100 100 100 100 100 100 100 100
5 5 31 76 16 4 5 5 5 5 5 5 5 70 98 100 100 100 100 100 100 100 96 98 100 100 100 100 100 100 100 100 100 100 100 100 100 37 70 25 39 80 90 92 100 98 100 98 100 100 100 100 100 100
5 66 5 22 6 5 5 5 5 5 5 5 5 16 100 100 100 100 100 100 100 100 100 100 100 100 100 100 100 100 100 100 100 100 100 100 100 100 67 6 10 83 13 85 60 98 100 100 98 100 100 100 91 24
5 7 5 7 5 5 5 5 5 5 5 5 5 5 100 100 100 100 100 100 100 100 100 100 100 100 100 100 100 100 100 99 100 100 100 100 100 59 83 100 100 70 51 88 97 99 100 100 92 36 38 57 24 98
5 59 6 5 5 5 5 5 5 5 5 5 5 5 97 87 100 100 100 100 100 100 86 100 78 94 100 100 100 100 100 100 100 100 100 100 100 88 82 59 82 96 82 89 37 94 99 59 83 57 5 58 90 73
5 14 5 5 5 5 5 5 5 5 5 5 5 5 92 100 100 80 100 100 100 100 100 100 93 100 100 100 100 100 100 100 100 100 100 100 100 100 100 100 100 100 53 11 58 63 58 10 84 46 9 95 100 100
37 8 100 37 16 5 5 5 5 5 5 13 9 5 11 100 100 69 100 100 100 100 100 100 73 95 100 100 100 100 100 100 100 100 100 100 100 100 100 100 100 88 64 5 28 40 37 71 100 100 100 100 84 71
54 72 100 100 87 6 5 5 5 5 5 83 6 5 5 89 100 94 100 100 100 100 100 100 100 100 100 100 100 100 100 100 100 100 100 100 100 100 100 100 92 44 99 100 100 100 100 100 88 100 100 100 82 83
97 91 100 100 55 74 5 5 5 5 5 4 5 77 100 100 100 100 100 100 100 100 97 100 97 100 100 100 100 100 100 100 100 100 100 100 100 100 98 38 95 61 59 99 100 100 100 100 100 85 94 100 99 100
97 6 100 100 100 7 71 12 5 5 5 5 14 96 96 100 100 100 100 100 100 100 100 100 89 100 100 98 100 100 100 100 100 100 100 100 100 100 100 100 100 100 100 100 100 100 100 100 100 100 100 100 100 100
87 90 97 100 85 6 23 5 5 5 5 31 55 100 98 100 100 100 100 100 100 100 100 100 100 100 100 99 99 100 99 94 100 100 100 100 100 100 100 100 100 100 100 100 100 100 100 100 100 100 100 100 100 100
21 80 12 6 5 62 5 5 5 8 60 99 94 87 100 100 100 100 100 100 100 100 100 100 100 100 100 100 100 100 100 100 95 89 100 100 81 100 100 100 100 100 100 100 100 100 100 100 100 100 100 100 100 100
66 100 34 18 5 5 5 5 5 7 57 72 89 96 100 100 100 100 100 100 100 100 100 100 100 100 100 100 100 100 86 100 70 93 95 52 87 100 100 100 100 100 100 100 100 100 100 100 100 100 100 100 100 100
7 14 80 3 1 3 5 5 5 10 98 52 97 85 100 100 100 100 100 100 100 100 100 100 100 100 100 100 100 99 85 90 100 100 19 5 92 100 100 97 98 99 100 100 100 100 99 99 95 96 100 100 97 93
11 73 5 2 0 3 5 4 11 81 100 91 99 95 100 100 100 100 100 100 100 100 100 100 100 100 100 100 100 100 100 100 100 57 97 75 60 100 58 61 45 43 61 89 100 83 81 91 72 90 100 98 93 100
100 65 5 2 2 5 4 9 96 99 100 98 94 62 98 54 71 94 100 100 100 100 100 100 100 100 100 100 100 100 100 100 100 96 50 43 99 100 99 52 9 36 47 94 99 100 100 100 100 100 100 100 100 100
100 23 5 3 4 5 5 75 99 94 100 100 98 100 100 100 100 100 100 100 100 100 100 100 100 93 63 100 100 100 100 100 100 45 89 73 25 57 16 5 6 24 79 98 97 97 99 96 100 100 100 100 100 100
100 84 5 9 5 5 5 91 100 97 100 100 100 82 82 35 83 100 100 100 100 100 100 100 100 93 93 100 100 100 100 100 86 65 29 22 60 51 60 87 82 70 77 87 88 98 99 100 100 100 100 99 99 98
99 44 5 5 5 10 25 7 66 99 85 100 100 99 88 48 99 95 89 100 100 100 100 100 100 56 89 100 100 100 100 96 93 58 18 5 5 46 70 99 100 95 91 74 100 100 100 98 99 97 100 100 96 99
96 65 14 4 5 5 5 45 74 100 87 71 99 100 100 100 63 45 100 100 100 100 100 100 100 97 100 99 100 99 100 100 61 39 70 25 9 51 92 88 77 100 100 98 89 100 98 95 79 67 99 100 100 100
97 100 46 20 6 16 29 96 99 99 75 99 98 100 77 80 84 73 100 100 100 100 100 100 100 100 100 100 100 100 89 98 100 88 100 99 97 87 100 100 67 100 100 100 100 100 98 100 100 100 100 100 99 91
100 100 100 9 5 20 72 89 90 71 97 68 89 100 100 100 93 72 59 100 100 100 100 100 100 100 100 100 100 100 100 100 99 100 100 100 99 100 94 68 80 100 100 100 82 100 100 100 100 100 100 100 100 100
71 99 98 5 5 1 0 30 26 82 96 76 84 54 43 94 52 24 82 72 96 100 100 100 100 100 100 100 100 100 100 100 100 100 100 100 100 100 100 100 100 100 91 80 100 100 100 100 100 100 100 100 100 100
100 100 61 9 5 1 2 5 8 82 61 72 99 65 6 74 43 80 86 90 59 91 100 100 100 100 100 100 100 100 100 100 100 100 100 100 100 100 100 100 100 100 100 100 100 100 100 100 100 100 100 100 100 100
91 96 61 6 25 5 5 37 86 41 83 83 100 93 23 87 88 100 89 26 92 100 100 100 100 100 100 100 100 100 100 100 100 100 100 100 100 100 100 100 100 100 100 100 100 100 100 100 100 100 100 100 100 100
97 36 34 5 4 4 4 14 65 15 77 100 88 51 85 98 96 56 39 41 78 96 83 99 100 100 100 100 100 100 100 100 100 100 100 100 100 100 100 100 100 100 100 100 100 100 100 100 100 100 100 100 100 100
84 8 5 5 4 20 14 46 26 40 99 100 85 68 93 97 89 20 81 98 90 100 58 93 100 100 100 100 100 100 100 100 100 100 100 100 100 100 100 100 100 100 100 100 100 100 100 100 100 100 100 100 100 100
16 5 26 59 74 55 41 46 54 80 31 17 70 70 65 35 6 9 12 36 68 73 95 88 88 99 100 100 100 100 100 100 100 100 100 100 100 100 100 100 100 100 100 100 100 100 100 100 100 100 100 100 98 100
82 31 8 98 99 100 98 48 14 18 20 5 5 11 24 5 18 32 5 14 23 98 100 86 100 99 100 100 100 100 100 100 100 100 100 100 100 100 100 100 100 100 100 100 100 100 100 100 100 100 100 100 100 98
76 66 64 98 99 64 62 36 62 65 42 25 12 22 26 22 18 47 67 71 84 71 56 95 100 100 100 100 100 100 100 100 100 100 100 100 100 100 100 100 100 100 100 100 100 100 100 100 100 100 100 100 100 100
86 100 100 89 34 40 82 96 92 98 89 85 79 79 33 29 16 54 89 76 85 96 94 87 100 100 100 100 100 100 100 100 100 100 100 100 100 100 100 100 100 100 100 100 100 100 100 100 100 100 100 100 100 100
100 95 58 97 91 94 99 98 100 87 97 99 60 100 84 79 84 41 50 81 100 96 100 100 100 100 100 100 100 100 100 100 100 100 100 100 100 100 100 100 100 100 100 100 100 100 100 100 100 100 100 100 100 100
99 94 98 97 97 100 96 77 97 88 90 100 85 98 87 76 39 8 35 81 100 100 100 100 100 100 100 100 100 100 100 100 100 100 100 100 100 100 100 100 100 100 100 100 100 100 100 100 100 100 100 100 100 100

GFSWCAN_prec_cloud_009.txt.gz
Cloud_Cover
41 92 100 15 5 5 5 5 5 5 5 5 5 5 5 98 100 100 100 100 100 100 100 99 100 100 100 95 93 100 100 94 100 100 100 100 92 70 23 89 100 99 82 98 99 92 96 100 100 100 100 100 100 100
7 100 100 7 5 5 5 5 5 5 5 3 5 5 5 66 98 100 100 100 100 100 100 78 62 100 90 100 100 100 100 100 100 100 100 100 99 89 28 90 43 100 80 94 100 62 85 72 100 100 99 100 100 100
5 78 100 22 7 5 5 5 5 5 5 5 5 5 5 42 100 100 100 100 100 99 89 100 100 100 100 100 100 100 100 100 100 100 100 100 100 99 55 89 100 94 100 100 100 100 84 100 96 91 100 93 84 98
14 86 83 6 8 5 5 5 5 5 5 5 5 5 5 9 94 100 100 100 100 100 88 34 60 100 100 100 100 100 100 100 100 100 100 100 100 5 24 9 16 72 92 100 100 100 100 90 100 85 42 22 87 93
18 100 77 6 80 5 5 5 5 5 5 5 5 5 5 5 97 100 100 100 100 100 98 66 59 99 100 100 100 100 100 100 100 100 100 100 100 98 96 56 50 70 84 71 99 85 90 75 72 100 100 81 100 93
5 98 18 58 100 66 5 13 84 6 5 5 5 100 93 12 100 100 100 100 100 100 100 96 89 100 100 100 100 100 100 100 100 100 100 100 100 100 60 76 100 64 6 8 80 56 58 32 60 93 98 49 93 100
7 100 96 72 100 90 95 7 97 87 5 5 5 95 88 57 100 99 100 100 100 100 100 99 100 100 100 100 100 100 100 100 100 100 100 100 100 100 93 93 100 100 100 100 100 100 53 27 91 74 99 94 100 100
26 100 98 20 100 100 55 94 86 49 8 5 5 23 21 90 100 100 100 100 100 100 100 100 100 100 100 100 100 100 100 100 100 100 100 100 100 100 99 99 69 100 100 98 100 82 86 88 73 99 100 100 100 100
5 98 61 44 98 100 100 14 58 10 5 5 5 91 100 100 100 100 100 100 100 100 99 100 100 100 100 100 100 100 100 100 100 100 100 100 100 99 98 90 62 9 91 100 100 100 100 96 99 100 100 100 100 100
14 57 23 5 14 39 8 7 5 5 5 3 44 78 100 99 100 100 100 100 100 100 100 100 100 100 86 100 100 100 100 100 100 100 100 100 100 100 100 100 100 83 85 89 100 100 100 100 100 100 99 78 100 100
33 73 58 6 19 91 12 5 5 8 8 28 89 94 100 94 100 100 100 100 100 100 94 100 100 92 60 100 100 98 100 100 100 99 93 93 100 100 100 100 100 100 100 100 100 100 100 100 100 100 100 100 100 97
100 99 15 44 21 13 5 5 5 11 41 98 91 100 100 100 100 100 100 100 100 98 100 100 100 66 96 100 100 100 100 100 100 83 92 100 78 100 100 100 100 100 100 100 95 100 100 100 100 100 100 100 94 97
100 97 44 25 6 16 5 5 5 6 10 51 98 82 86 100 100 100 100 100 100 100 100 100 100 100 100 100 100 99 100 96 60 96 88 100 100 91 100 100 100 100 100 100 100 100 100 100 100 100 100 100 100 98
100 69 94 5 52 4 5 5 5 52 98 61 94 59 100 100 100 100 100 100 100 100 100 100 100 100 100 100 100 100 98 94 100 100 87 86 100 100 86 89 86 97 100 100 100 100 100 100 100 100 100 100 94 100
100 100 69 55 63 5 5 5 41 98 100 92 82 45 63 99 100 100 100 100 100 100 100 100 100 100 100 100 100 93 98 100 100 95 100 100 100 100 100 100 100 100 100 100 98 92 100 100 100 100 100 100 100 100
100 100 100 90 5 5 3 5 93 100 100 99 93 71 100 44 53 100 100 100 100 100 100 100 100 100 100 100 100 100 100 100 100 96 18 93 100 100 100 100 100 100 100 98 100 88 85 100 100 100 100 100 100 100
100 100 100 61 68 78 4 78 78 99 100 100 100 100 96 96 87 73 100 100 100 100 100 100 100 100 74 100 100 100 100 100 100 19 73 99 79 100 100 100 100 100 100 100 100 100 100 100 100 100 100 99 100 99
100 100 96 8 60 98 5 31 83 93 100 97 100 88 100 98 34 7 5 79 78 100 100 100 100 99 42 98 100 100 100 100 100 98 99 100 98 100 100 100 100 100 100 100 100 100 100 100 100 100 100 100 100 86
100 100 100 97 22 56 5 21 48 85 69 100 100 100 100 90 16 5 5 55 100 100 100 100 100 91 35 68 100 100 100 100 100 100 100 100 100 100 67 97 100 100 100 100 100 100 100 100 100 100 100 90 97 99
100 100 100 39 100 96 12 53 86 94 62 84 93 100 100 100 80 36 47 90 100 100 100 100 76 100 100 98 75 100 100 100 100 91 89 77 100 100 100 100 100 100 100 100 100 100 100 100 100 100 100 100 96 99
100 100 98 85 63 11 25 77 100 99 98 84 85 96 95 100 99 100 74 100 100 100 100 100 100 100 100 100 100 100 100 100 100 100 100 87 100 91 100 100 100 100 100 100 100 100 100 100 100 100 100 100 88 71
100 100 97 100 100 57 98 87 93 91 80 61 95 95 100 100 100 88 95 100 84 86 92 86 99 100 100 98 100 100 100 100 100 98 100 100 100 100 93 100 100 100 100 100 100 100 100 100 100 100 99 98 100 99
100 100 100 99 96 50 100 99 20 86 96 73 94 72 75 96 62 55 100 93 80 74 74 98 98 100 100 100 100 100 100 100 100 100 100 100 100 100 100 100 100 100 100 100 100 100 100 100 100 100 100 100 100 100
100 79 100 100 93 100 89 28 10 84 92 96 100 95 5 70 68 87 99 81 23 9 77 21 8 43 93 100 100 100 100 100 100 100 100 100 100 100 100 100 100 100 100 100 100 100 100 100 100 100 100 100 100 100
100 96 99 75 100 100 99 16 42 36 5 98 99 86 69 95 97 100 98 21 54 98 100 98 17 5 91 99 100 100 100 100 100 100 100 100 100 100 100 100 100 100 100 100 100 100 100 100 100 100 100 100 100 100
99 77 99 100 100 100 8 7 50 7 45 100 84 66 81 98 96 78 32 37 84 95 96 71 36 86 63 37 99 100 100 100 100 100 100 100 100 100 100 100 100 100 100 100 100 100 100 100 100 100 100 100 100 100
100 100 100 100 100 22 10 35 10 19 96 76 70 74 81 98 100 6 46 69 50 48 53 24 46 100 99 71 52 100 100 100 100 100 100 100 100 100 100 100 100 100 100 100 100 100 100 100 100 100 100 100 100 100
100 100 100 100 100 53 14 57 55 56 5 15 37 56 52 46 6 5 13 6 55 54 55 23 49 79 99 97 94 100 100 100 100 100 100 100 100 100 100 100 100 100 100 100 100 100 100 100 100 100 100 100 100 100
100 100 100 100 100 99 32 5 5 5 5 20 5 5 5 5 6 5 5 8 14 96 98 53 10 35 78 81 72 100 100 100 100 100 100 100 100 100 100 100 100 100 100 100 100 100 100 100 100 100 100 100 100 100
100 100 92 92 8 27 7 35 53 55 37 13 13 14 24 8 17 28 48 57 74 82 66 81 84 100 88 82 72 91 100 100 100 100 100 100 100 100 100 100 100 100 100 100 100 100 100 100 100 100 100 100 100 100
100 78 67 56 62 35 86 91 82 79 65 75 76 72 30 32 16 39 81 70 93 98 99 83 70 72 78 82 88 98 100 100 100 100 100 100 100 100 100 100 100 100 100 100 100 100 100 100 100 100 100 100 100 100
93 100 97 100 98 96 91 96 99 82 94 95 40 100 71 72 81 5 10 99 64 64 73 78 92 97 100 99 99 100 100 100 100 100 100 100 100 100 100 100 100 100 100 100 100 100 100 100 100 100 100 100 100 100
100 100 98 91 92 99 94 58 94 81 88 100 87 98 92 65 37 5 7 83 83 94 82 75 100 100 100 100 100 100 100 100 100 100 100 100 100 100 100 100 100 100 100 100 100 100 100 100 100 100 100 100 100 100

GFSWCAN_prec_cloud_012.txt.gz
Cloud_Cover
98 45 100 100 5 5 5 5 5 5 5 5 5 5 4 5 8 99 100 100 100 100 76 46 73 100 100 100 92 100 100 100 100 94 100 100 100 100 100 73 30 65 61 100 84 100 100 100 100 99 100 62 100 100
94 70 76 100 13 68 5 5 5 5 5 5 5 5 5 5 5 100 100 100 100 100 100 47 100 84 100 100 91 100 100 100 100 100 100 100 100 100 100 62 54 96 51 73 100 76 80 100 99 83 65 30 96 88
93 67 6 100 7 6 5 5 5 5 5 5 5 5 5 5 5 64 100 100 100 100 96 93 42 40 100 100 100 73 100 100 98 100 100 100 100 100 100 15 52 62 95 100 70 77 100 100 94 81 48 44 46 91
62 100 88 98 12 34 100 96 33 30 17 5 5 5 5 5 5 8 100 100 100 100 99 98 97 100 95 100 100 83 99 100 100 100 100 100 100 100 96 93 74 93 86 47 97 40 36 10 38 53 37 6 99 78
71 69 96 37 51 96 98 100 100 100 76 16 15 54 5 100 48 25 100 100 100 100 100 82 100 100 100 69 80 100 100 100 100 100 100 100 100 54 97 97 81 98 99 49 7 5 47 25 44 5 25 24 78 100
100 27 100 100 66 5 97 100 100 98 53 79 56 11 31 93 99 77 100 100 100 100 100 88 100 100 100 98 100 100 100 100 100 100 100 100 82 100 81 79 40 6 63 72 5 84 100 100 98 24 33 27 96 65
100 100 100 93 100 22 65 100 100 70 100 5 5 5 60 100 95 75 100 100 100 100 100 100 100 100 99 100 100 100 100 100 100 100 100 100 100 100 100 92 61 97 99 90 99 100 99 100 99 73 100 100 100 100
100 100 100 100 40 5 59 89 99 98 16 5 5 5 21 100 72 100 100 100 100 100 100 100 98 100 100 100 100 100 100 100 100 100 100 100 100 100 100 100 95 100 100 100 80 99 100 100 50 85 92 100 100 100
100 100 100 100 98 5 4 84 100 6 5 10 5 99 98 100 78 100 100 100 100 100 100 100 97 100 100 100 100 100 100 100 100 100 100 100 100 100 100 100 99 84 60 24 51 99 100 78 72 98 100 100 100 100
100 100 100 100 100 100 8 98 42 5 5 5 5 14 88 90 100 100 100 100 100 100 100 100 86 100 100 100 100 100 100 100 100 100 100 100 100 100 100 100 99 91 5 90 97 16 58 100 100 100 100 100 100 100
100 100 100 100 25 5 26 69 5 5 2 52 86 86 100 100 100 100 100 100 100 100 100 92 100 100 100 100 100 100 100 99 100 100 100 100 100 100 100 100 100 99 80 100 100 100 95 99 100 100 100 100 100 100
100 100 100 100 29 7 87 5 5 6 20 98 100 100 84 100 100 100 100 100 100 100 99 99 95 100 100 100 100 100 100 100 100 100 100 100 100 98 100 100 100 100 100 100 100 100 100 100 100 100 100 100 100 98
100 100 100 100 11 50 77 38 8 8 43 33 87 79 100 79 88 100 100 100 100 100 100 100 100 100 100 100 100 100 100 100 79 100 100 100 100 100 100 100 100 100 100 100 100 100 100 100 100 99 100 100 100 100
100 100 100 98 35 33 97 36 57 94 93 100 89 25 32 26 61 100 100 100 100 100 100 100 100 100 100 100 100 100 100 100 100 100 100 100 100 100 100 100 100 100 100 100 100 100 100 100 100 100 100 100 100 100
84 100 100 100 100 41 100 12 100 88 98 90 43 82 92 100 100 99 100 100 100 100 100 100 100 100 100 100 100 100 100 100 100 100 100 100 100 100 100 100 100 100 100 100 100 100 100 100 100 100 100 100 100 100
58 100 100 100 100 82 100 5 100 93 100 94 93 78 80 37 9 7 100 100 100 100 100 100 100 100 100 81 100 100 100 100 100 76 50 33 89 100 100 100 100 100 100 100 100 100 100 100 100 100 100 100 100 100
100 100 100 100 100 100 100 100 100 100 100 100 99 95 97 99 89 25 7 92 100 100 100 100 100 100 92 76 98 100 100 100 100 100 96 91 94 98 100 100 100 100 100 100 100 100 100 100 100 100 100 100 100 100
100 100 100 100 100 100 35 100 100 100 100 97 100 89 100 100 78 17 5 5 29 100 100 100 100 99 85 97 100 100 100 100 100 99 100 100 97 100 100 100 100 100 100 100 100 100 100 100 100 99 100 100 100 100
100 100 100 100 100 100 8 100 100 100 85 100 99 100 100 97 46 22 11 9 61 98 100 100 100 65 23 80 98 100 98 99 98 100 100 100 100 100 100 99 100 100 100 100 100 100 100 100 100 100 100 100 100 100
100 100 100 100 100 100 61 99 100 100 46 72 96 100 100 86 61 91 95 73 60 100 100 100 100 95 99 98 97 100 100 95 70 72 100 100 100 100 100 100 100 98 100 100 100 100 100 96 100 100 98 100 100 100
100 100 100 100 100 100 83 100 91 97 93 65 79 91 96 100 100 100 56 62 90 89 95 100 94 100 100 100 100 100 100 100 89 61 8 81 100 100 100 100 100 100 100 100 89 100 100 100 100 100 100 100 100 100
100 100 100 100 100 100 91 97 62 99 90 96 86 98 100 84 99 99 98 100 94 92 17 24 92 97 89 99 92 96 90 98 95 88 76 61 100 91 100 100 100 100 100 100 100 100 100 100 100 100 100 100 100 100
100 100 100 100 100 100 100 71 24 91 79 100 97 99 76 99 72 82 96 100 20 5 5 5 8 5 5 5 5 17 32 70 96 100 100 100 100 100 100 100 100 100 100 100 100 100 100 100 100 100 100 100 100 100
100 100 100 100 100 100 100 100 66 74 99 100 95 100 30 26 78 99 97 87 6 5 5 5 5 4 4 4 5 5 46 67 96 75 100 100 100 100 93 100 100 100 100 100 100 100 100 100 100 100 100 100 100 100
100 100 100 100 100 100 100 100 100 100 100 100 95 54 6 96 95 100 100 25 5 5 5 5 5 5 5 5 5 5 5 60 99 98 100 100 100 100 100 94 100 100 100 100 100 100 100 100 100 100 100 100 100 100
93 100 100 100 93 99 100 100 100 100 100 99 98 36 93 94 99 76 5 5 5 5 5 3 4 5 5 5 5 5 5 5 98 100 100 100 100 100 100 100 100 100 100 100 100 100 100 100 100 100 100 100 100 100
52 83 100 100 98 100 100 100 100 99 91 100 90 90 74 97 84 5 3 5 5 5 5 5 5 5 5 5 5 5 5 24 97 96 100 100 100 100 100 100 100 100 100 100 100 100 100 100 100 100 100 100 100 100
100 100 100 100 100 100 100 100 100 100 100 84 30 64 15 41 3 4 5 5 5 5 5 5 5 6 63 47 16 76 96 78 82 91 100 100 100 100 100 100 100 100 100 100 100 100 100 100 100 100 100 100 100 100
100 100 100 99 100 100 100 100 100 69 20 5 5 5 5 5 5 5 5 5 7 20 52 5 5 5 6 7 69 93 100 100 100 100 100 100 100 100 100 100 100 100 100 100 100 100 100 100 100 100 100 100 100 100
100 93 100 100 100 100 100 96 59 18 17 4 16 18 5 5 5 6 5 5 7 11 5 30 85 100 98 100 88 32 54 62 93 100 100 100 100 100 100 100 100 100 100 100 100 100 100 100 100 100 100 100 100 100
100 100 100 100 100 100 90 81 64 36 64 75 82 39 5 8 5 5 5 6 28 80 100 88 68 24 99 96 91 100 78 69 84 84 100 100 100 100 100 100 100 100 100 100 100 100 100 100 100 100 100 100 100 100
96 100 100 99 93 87 92 95 97 88 100 86 41 95 34 6 35 5 8 91 58 24 58 95 100 76 58 66 86 79 96 92 73 91 100 100 100 100 100 100 100 100 100 100 100 100 100 100 100 100 100 100 100 100
100 100 100 100 97 96 93 37 78 62 69 99 86 91 86 29 15 5 7 83 56 83 86 90 93 86 83 92 77 100 87 79 72 100 100 100 100 100 100 100 100 100 100 100 100 100 100 100 100 100 100 100 100 100

GFSWCAN_prec_cloud_015.txt.gz
Cloud_Cover
100 100 100 100 84 92 49 60 53 5 49 22 6 5 5 5 5 50 100 100 100 100 49 16 45 79 56 6 66 100 100 100 100 100 100 100 100 100 100 100 100 100 100 100 96 100 100 100 31 74 54 91 98 95
100 100 100 96 63 87 6 100 94 5 6 91 58 5 5 5 5 5 67 100 100 100 100 100 95 76 65 50 99 92 100 100 100 100 100 100 100 100 100 100 98 66 100 100 100 100 100 84 91 34 38 10 49 99
100 100 100 73 84 93 5 100 100 84 79 7 15 5 76 5 17 17 85 98 100 100 100 96 16 6 5 38 71 37 100 100 100 100 100 100 100 100 100 100 92 96 10 14 74 50 34 49 53 6 14 5 57 42
100 100 100 69 64 88 69 99 100 78 89 11 76 100 98 8 33 91 82 95 100 100 100 97 98 53 6 94 53 46 80 100 100 100 100 100 100 100 100 100 100 92 71 56 28 19 72 20 5 5 22 12 11 30
100 100 100 100 63 100 92 96 100 79 60 5 79 100 85 7 5 61 96 100 100 100 100 100 100 94 84 100 100 100 100 100 88 100 100 100 100 100 89 100 100 100 70 83 77 48 28 5 5 5 18 86 8 11
100 100 100 100 100 98 100 52 100 18 5 60 5 5 18 10 65 84 95 100 100 100 100 100 99 100 100 86 100 100 72 100 100 100 100 100 100 100 100 100 100 99 38 43 38 7 5 6 7 90 97 100 94 100
100 100 100 100 100 100 100 5 41 8 10 65 5 45 80 84 98 70 96 100 100 100 100 100 100 100 100 100 100 100 100 100 100 100 100 100 100 100 100 100 45 14 84 92 18 30 11 33 79 96 100 99 92 100
100 100 100 100 98 100 68 67 66 7 100 5 34 36 89 94 100 86 100 100 100 100 100 100 100 100 100 100 100 100 100 100 100 100 100 100 100 100 98 33 81 95 34 90 99 99 98 100 100 100 100 85 91 87
100 100 100 100 91 100 100 71 29 56 89 4 21 93 92 50 84 98 100 100 100 100 100 100 100 100 100 100 100 100 100 100 100 99 100 100 100 100 87 98 100 100 100 100 100 73 100 100 100 100 99 98 96 100
100 100 100 100 100 100 100 94 92 77 9 4 5 91 76 91 16 95 100 100 100 100 100 100 100 100 100 100 100 100 100 100 100 93 91 100 100 100 100 100 100 98 98 100 81 43 91 100 100 100 100 100 100 100
100 100 100 100 93 100 100 100 10 12 9 71 98 100 72 91 100 100 100 100 100 100 100 100 100 100 100 100 100 100 100 100 100 100 100 100 100 100 100 100 100 100 100 98 87 99 95 100 100 97 98 100 100 100
100 100 100 100 100 100 100 69 5 57 28 79 94 59 100 100 100 100 100 100 100 100 97 100 92 100 100 100 100 100 100 100 100 100 100 100 100 100 100 100 100 100 100 100 100 100 100 100 100 100 100 100 100 100
100 100 100 100 100 100 100 83 13 84 72 36 89 83 99 82 86 47 97 100 100 100 100 99 100 100 100 100 100 100 100 100 100 100 100 100 100 100 100 100 100 100 100 100 100 100 100 100 100 100 100 100 100 100
100 100 100 100 100 100 100 100 36 100 16 100 100 35 100 69 100 100 100 100 100 100 100 100 100 100 100 100 100 100 100 100 100 100 100 100 100 100 100 100 100 100 100 100 100 100 100 100 100 100 100 100 100 100
100 100 100 100 100 100 100 100 99 99 96 97 87 92 100 100 100 100 100 100 100 100 100 100 100 92 100 100 100 100 100 100 100 100 100 100 100 100 100 100 100 100 100 100 100 100 100 100 100 100 100 100 100 100
100 100 100 100 100 100 99 100 100 100 100 92 98 100 94 100 68 45 99 100 100 98 100 100 100 100 100 91 100 100 100 100 100 100 100 100 100 100 100 100 100 100 100 100 100 100 100 100 100 100 100 100 100 100
100 100 100 100 100 100 100 100 100 100 100 100 100 96 60 100 42 25 5 18 85 100 100 100 100 100 99 88 95 86 100 100 100 100 100 100 100 100 100 100 100 100 100 100 100 100 100 100 100 100 100 100 100 100
100 100 100 100 100 100 100 100 100 100 100 100 100 100 100 94 71 9 94 56 24 100 100 100 100 100 98 100 94 66 67 92 100 100 100 100 100 100 100 97 98 100 100 100 100 100 100 100 100 100 100 100 100 100
100 100 100 100 100 100 100 100 100 99 100 100 100 99 99 74 7 39 19 60 80 90 94 100 100 100 87 98 99 89 83 97 99 88 82 93 100 100 100 100 100 100 89 88 98 98 93 84 85 99 100 100 100 98
100 100 100 100 100 100 100 100 100 100 100 95 97 98 86 51 16 41 70 83 60 70 91 100 91 100 100 100 100 83 72 100 98 99 67 92 40 68 100 98 96 100 100 88 88 69 32 62 89 87 89 99 100 100
100 100 100 100 100 100 100 100 100 100 93 61 100 87 74 80 87 98 99 96 51 8 8 56 57 26 22 59 80 70 69 60 100 100 100 100 68 98 32 84 99 100 100 100 82 49 100 98 100 100 100 100 100 100
100 100 100 100 100 100 100 100 100 100 100 98 75 90 96 68 82 91 94 100 100 16 6 5 5 18 14 5 5 5 5 34 100 100 100 100 99 74 60 70 55 99 100 100 100 94 92 100 100 100 100 100 100 100
100 100 100 100 100 100 100 100 99 100 100 100 100 100 77 90 98 91 96 85 18 5 5 5 5 5 5 5 5 5 5 6 41 83 83 92 98 97 92 99 100 98 100 100 100 100 95 100 100 100 100 100 100 100
100 100 100 100 100 100 100 100 94 98 100 100 100 100 89 100 100 100 100 51 17 8 5 5 0 0 0 0 4 5 0 5 5 5 75 89 99 77 99 99 100 100 88 100 100 100 100 100 100 100 100 100 100 100
100 100 100 100 100 100 100 99 100 68 100 98 53 40 100 100 100 100 100 32 5 5 5 5 1 0 0 0 0 0 0 5 5 39 36 83 83 81 68 100 100 100 100 77 71 100 100 100 100 100 100 100 100 100
100 99 100 100 100 100 100 100 100 100 100 100 82 20 100 100 100 100 60 12 4 5 5 5 1 0 0 0 0 0 2 5 9 8 5 15 78 100 96 84 99 100 100 100 99 96 100 100 100 100 100 100 100 100
100 100 100 100 100 100 89 100 100 100 99 100 48 82 100 100 100 53 5 2 0 5 5 0 0 0 0 3 3 5 5 5 9 10 12 45 70 91 94 100 86 100 100 100 100 100 100 100 100 100 100 100 100 100
100 100 100 100 100 97 100 84 32 98 100 49 85 100 100 96 9 2 1 5 5 5 5 5 5 5 5 5 5 5 12 7 46 84 99 100 88 96 85 83 100 100 100 100 100 100 100 100 100 100 100 100 100 100
100 100 100 84 99 96 99 100 100 100 68 94 100 100 74 5 5 2 1 5 5 5 5 5 5 20 68 42 50 66 78 96 100 100 100 87 63 60 65 99 100 100 100 100 100 100 100 100 100 100 100 100 100 100
100 100 99 100 76 99 100 100 100 100 100 98 83 35 5 5 5 5 5 5 5 5 5 13 56 100 92 99 85 42 5 47 99 100 100 97 73 54 70 93 100 100 100 100 100 100 100 100 100 100 100 100 100 100
100 100 100 95 100 100 100 100 100 100 100 48 63 24 5 5 5 5 5 5 7 34 72 47 38 53 96 90 99 100 75 5 7 60 95 93 98 83 76 100 100 100 100 100 100 100 100 100 100 100 100 100 100 100
97 100 100 100 100 100 96 91 100 100 75 35 20 86 6 5 32 18 7 44 54 10 31 44 84 38 25 94 99 99 98 98 96 99 100 89 100 87 100 100 100 100 100 100 100 100 100 100 100 100 100 100 100 100
100 100 100 100 98 72 78 78 100 100 49 25 22 59 43 55 20 5 5 37 38 15 39 48 58 81 92 100 99 84 95 84 70 100 100 100 100 97 100 100 100 100 100 100 100 100 100 100 100 100 100 100 100 100

GFSWCAN_prec_cloud_018.txt.gz
Cloud_Cover
100 100 100 100 95 100 100 98 98 100 100 38 40 5 7 5 5 4 5 84 100 100 100 96 90 99 87 11 92 100 100 100 100 100 96 99 100 100 100 100 100 100 100 100 100 100 85 92 100 100 80 49 61 28
100 100 100 100 100 100 100 100 100 100 100 99 88 5 85 36 5 4 5 43 100 100 49 92 83 25 64 54 36 100 100 100 100 100 65 96 100 100 100 100 100 100 100 98 85 72 83 100 98 22 5 5 5 70
100 100 100 100 100 100 100 100 83 100 100 100 18 53 100 94 54 5 5 6 87 98 100 100 98 23 98 98 100 100 100 100 100 100 97 100 100 100 100 100 99 93 93 92 100 92 100 40 5 5 5 10 15 57
100 100 100 100 100 100 100 100 99 78 100 42 66 36 100 99 70 19 5 5 68 100 100 100 100 16 7 54 89 8 46 99 100 100 100 100 100 100 100 100 100 100 86 59 50 44 5 8 5 5 6 11 97 70
100 100 100 100 100 100 100 100 100 5 53 14 14 44 15 42 60 10 1 4 28 100 100 100 98 92 49 22 59 95 62 94 100 100 100 100 100 100 100 100 100 100 59 52 76 76 11 5 5 5 51 53 22 93
100 100 100 100 100 76 100 100 100 23 97 88 79 100 31 22 5 6 21 92 100 100 100 100 100 64 100 100 29 100 100 72 89 100 100 100 100 100 100 100 100 98 100 91 96 93 18 5 5 6 91 92 86 68
100 100 100 100 100 97 100 100 77 89 83 91 38 100 100 99 92 50 29 100 100 100 100 100 100 100 100 100 100 100 100 100 100 100 100 100 99 100 100 100 84 100 100 100 100 30 5 33 88 100 100 100 100 82
100 100 100 100 100 100 98 100 100 37 90 92 22 5 66 83 98 76 15 100 100 100 100 100 100 100 100 100 100 100 100 100 100 100 100 100 99 100 100 97 100 100 100 100 98 5 13 90 81 98 100 100 99 98
100 100 100 100 100 100 100 95 73 100 17 91 5 5 8 24 99 100 100 100 100 100 100 100 100 100 100 100 100 92 100 100 100 100 100 100 100 100 100 99 98 99 96 34 7 5 31 95 96 100 100 100 88 91
100 100 100 100 100 100 100 100 84 46 6 49 5 76 97 100 67 100 100 100 100 100 100 100 100 100 100 100 100 100 100 100 100 100 100 100 100 100 100 100 100 100 100 95 79 51 91 100 99 100 100 100 100 100
100 100 100 100 100 100 100 100 87 9 38 81 100 100 59 85 100 100 100 100 100 100 100 100 100 100 100 100 100 100 100 100 100 100 100 100 100 100 100 92 97 100 100 100 92 92 100 100 100 100 100 98 100 100
100 100 100 100 100 100 100 100 100 9 89 60 92 84 89 100 100 100 100 100 100 100 97 90 100 100 100 100 100 100 100 100 100 100 100 100 98 100 100 100 100 100 100 100 94 100 100 100 100 100 100 100 100 100
100 100 100 100 100 100 100 100 98 50 100 92 100 78 92 99 100 100 99 100 100 100 100 100 100 100 100 100 100 100 100 100 100 100 100 100 100 100 100 100 100 100 100 100 100 100 100 100 100 100 100 100 100 100
100 100 100 100 100 100 100 100 100 99 100 100 100 81 100 100 100 100 100 100 100 100 100 100 100 100 100 100 100 100 100 100 100 100 100 100 100 100 100 100 100 100 100 100 100 100 100 100 100 100 100 100 100 100
100 100 100 100 100 100 100 100 100 100 100 100 100 95 100 99 100 100 100 100 100 100 100 100 100 90 100 100 100 100 100 100 100 100 100 100 100 100 100 100 100 100 100 100 100 100 100 100 100 100 100 100 100 100
100 100 100 100 100 100 100 100 100 100 100 100 100 100 100 100 100 87 100 100 97 100 100 100 100 96 100 100 100 100 100 100 100 100 100 100 100 100 100 100 100 100 100 100 100 100 100 100 100 100 100 100 100 100
100 100 100 100 100 100 100 100 100 100 100 100 100 100 100 100 94 5 15 94 97 99 100 100 100 100 100 100 100 100 100 100 100 100 100 100 100 100 100 100 100 100 100 100 100 100 100 100 100 100 100 100 100 100
100 100 100 100 100 100 100 100 100 100 100 100 100 100 100 100 85 5 9 5 29 92 100 100 100 100 100 98 98 100 100 95 85 100 100 100 100 100 100 100 100 100 100 100 100 100 100 100 100 100 100 100 100 100
100 100 100 100 100 100 100 100 100 100 100 100 100 100 100 100 42 5 5 7 19 8 71 99 100 97 92 98 96 95 94 100 100 97 72 100 100 90 100 100 100 100 100 92 91 100 100 100 96 100 100 100 100 100
100 100 100 100 100 100 100 100 100 100 100 100 100 98 100 88 98 16 6 40 49 58 53 68 71 78 83 100 100 96 88 48 31 63 11 7 43 58 85 78 97 84 81 100 100 100 91 78 91 98 93 100 100 100
100 100 100 100 100 100 100 100 100 100 100 100 100 100 100 47 77 93 98 100 93 14 8 5 5 5 6 64 61 84 5 5 6 16 66 99 94 100 100 93 46 63 61 90 71 84 93 100 100 100 100 100 100 100
100 100 100 100 100 100 100 100 100 100 100 100 100 100 100 100 99 85 72 100 94 24 64 99 15 5 5 4 5 16 60 64 7 5 5 5 28 33 99 100 98 100 60 62 100 97 97 86 99 100 100 100 100 100
100 100 100 100 100 100 100 100 100 100 100 100 100 100 100 100 100 100 100 99 31 56 100 100 100 85 16 5 5 5 5 6 16 12 5 5 5 20 99 100 100 94 82 100 100 100 100 96 100 100 100 100 100 100
100 100 100 100 100 100 100 100 100 100 100 100 100 100 100 93 83 100 100 89 5 20 100 100 100 100 93 6 5 5 5 5 5 5 5 5 16 5 5 22 64 19 36 53 73 37 27 99 100 100 100 100 100 100
100 100 100 96 100 100 100 100 100 100 100 100 100 100 97 84 99 100 99 82 53 72 100 100 95 73 9 5 5 5 5 5 5 5 5 5 5 5 5 25 86 61 25 76 100 100 96 69 85 100 100 100 100 100
96 100 92 100 100 100 100 100 100 100 100 100 100 100 100 100 100 19 81 100 98 60 78 82 62 7 5 4 5 5 5 5 5 5 5 5 5 67 94 100 99 86 50 50 93 97 100 100 97 100 100 100 100 100
73 97 100 100 100 100 100 100 100 100 100 100 98 86 99 95 98 55 48 60 93 98 92 61 8 5 5 5 5 5 5 5 5 5 5 5 5 5 8 68 77 37 49 60 84 98 99 100 100 100 100 100 100 100
16 100 100 100 100 100 100 100 100 100 100 96 46 36 18 14 7 5 74 99 100 62 24 7 5 5 5 5 5 5 7 7 6 12 5 60 59 13 28 56 90 78 95 98 94 98 100 100 100 100 100 100 100 100
100 100 100 100 100 100 100 100 100 100 86 98 58 93 59 9 98 100 100 96 53 51 5 5 5 58 65 60 58 6 15 73 100 100 100 84 8 5 5 15 83 92 97 98 98 96 100 100 100 100 100 100 100 100
100 100 100 100 100 100 100 100 100 100 45 11 48 75 58 100 98 100 100 58 49 33 13 23 55 71 67 76 46 26 5 24 89 100 100 96 21 16 79 87 71 81 93 96 100 100 100 100 100 100 100 100 100 100
100 100 100 100 100 100 100 100 100 44 66 55 67 99 100 100 100 90 45 52 59 68 62 60 64 61 89 95 91 100 86 5 6 63 100 100 99 74 17 64 83 93 99 100 100 100 100 100 100 100 100 100 100 100
100 100 100 100 100 97 81 62 67 71 71 57 51 63 94 98 70 27 62 64 72 72 51 63 92 58 5 52 77 96 99 99 94 67 65 60 70 53 82 92 92 100 100 100 100 100 100 100 100 100 100 100 100 100
100 100 100 96 79 73 79 48 90 92 43 55 57 51 48 42 11 5 42 62 52 58 61 57 46 34 67 90 100 100 100 95 86 100 100 100 100 81 90 95 100 100 100 100 100 100 100 100 100 100 100 100 100 100

GFSWCAN_prec_cloud_021.txt.gz
Cloud_Cover
100 100 100 100 100 100 100 100 100 100 100 100 100 100 100 70 85 5 5 44 44 100 58 84 98 100 100 100 100 48 47 100 100 100 100 99 70 94 100 74 99 98 97 100 100 100 98 100 99 100 100 22 5 10
100 100 100 100 100 100 100 100 100 100 100 100 87 100 51 26 98 9 5 5 8 33 7 84 96 100 100 100 98 98 34 42 100 100 100 100 99 91 96 100 100 100 88 100 100 97 21 45 79 100 16 5 5 5
100 100 100 100 100 100 100 100 100 100 97 80 80 100 100 95 93 42 19 2 84 85 23 99 64 100 100 100 92 94 100 70 80 100 100 100 100 98 98 100 100 100 100 100 78 70 94 36 99 78 14 21 5 8
100 100 100 100 100 100 100 100 100 100 100 79 65 72 60 86 79 19 92 5 13 99 100 97 100 89 71 100 100 100 84 87 93 98 89 90 97 100 100 100 100 95 84 95 75 97 72 38 100 34 5 5 26 100
100 100 100 100 100 100 100 100 98 100 100 95 100 80 56 99 100 8 17 3 2 49 100 100 100 100 5 80 100 100 100 85 92 99 100 100 86 100 100 100 100 98 73 99 83 100 99 100 48 5 5 47 80 97
100 100 100 100 100 100 100 100 100 100 100 90 100 77 45 82 95 100 20 81 86 56 100 100 100 100 100 100 90 68 85 99 100 100 100 100 94 100 100 100 100 100 100 100 100 100 100 41 5 10 9 90 91 92
100 100 100 100 100 100 100 100 100 100 100 100 100 49 28 91 98 100 51 94 100 100 100 100 100 100 100 100 100 100 100 100 100 100 100 100 100 100 100 96 100 100 100 100 100 100 96 6 43 18 10 89 80 95
100 100 100 100 100 100 100 100 100 100 62 63 56 6 21 33 26 89 5 78 100 100 100 100 100 100 100 100 100 100 100 100 100 100 100 100 100 100 78 60 100 100 100 100 100 97 7 21 57 20 69 87 71 100
100 100 100 100 100 100 100 100 100 100 95 99 62 7 5 39 76 100 96 100 100 100 100 100 100 100 100 100 100 100 100 100 100 100 100 100 100 96 99 100 98 93 100 100 100 97 37 35 44 91 99 83 100 100
100 100 100 100 100 100 100 100 100 91 100 100 69 73 90 98 64 96 100 100 100 100 100 100 100 100 77 100 100 100 100 100 100 100 100 100 99 100 100 100 97 86 94 100 100 100 99 5 19 20 97 99 69 100
100 100 100 100 100 100 100 100 95 100 100 100 100 97 96 99 100 100 100 100 100 100 100 100 100 100 100 100 100 100 100 100 100 100 99 100 100 100 100 100 100 96 88 92 87 44 51 48 22 100 85 90 100 100
100 100 100 100 100 100 100 100 98 96 90 100 98 97 98 100 100 100 100 100 100 100 100 100 100 100 100 100 100 100 100 100 100 100 100 100 100 100 100 100 100 93 100 100 100 100 73 55 100 97 94 100 100 100
100 100 100 100 100 100 99 100 100 100 100 100 100 100 100 100 100 100 100 100 100 100 100 100 100 100 100 100 100 100 100 100 100 100 100 100 100 100 100 100 100 100 100 100 100 100 99 97 100 100 100 100 99 100
100 100 100 100 100 100 87 100 100 100 100 100 100 100 95 100 100 100 100 100 100 100 100 100 100 100 100 90 100 100 100 100 100 100 100 100 100 100 100 100 100 100 100 100 100 100 100 100 100 100 100 100 100 96
100 100 100 100 100 100 100 91 100 100 100 100 100 100 100 94 100 100 100 100 100 100 100 100 100 100 100 100 100 100 100 100 100 100 100 100 100 100 100 100 100 100 100 100 100 100 100 100 100 100 100 100 100 100
100 100 100 100 100 100 100 90 97 100 100 100 100 100 100 100 100 100 100 99 100 100 100 100 100 100 100 100 100 100 100 100 100 100 100 100 100 100 100 100 100 100 100 100 100 100 100 100 100 100 100 100 100 100
100 100 100 100 100 100 100 100 100 100 100 100 100 100 100 100 99 41 100 100 99 100 100 100 100 98 94 100 100 100 100 98 100 100 100 100 100 100 100 100 100 100 100 100 100 100 100 100 100 100 100 100 100 100
100 100 100 91 100 95 100 100 100 100 100 100 100 100 100 100 100 48 44 5 94 100 100 100 100 98 78 100 99 100 100 100 66 69 82 54 85 100 100 100 100 100 100 100 100 100 100 100 100 100 100 100 100 100
100 100 100 99 100 100 100 100 100 100 100 100 100 100 100 100 100 100 68 6 5 20 92 100 100 100 73 92 82 61 100 100 36 65 93 86 100 52 42 100 100 100 100 100 100 100 100 100 100 100 100 100 100 100
100 100 100 100 98 100 100 100 100 100 100 100 100 100 100 100 100 100 100 68 55 37 92 98 88 60 10 70 100 88 96 38 5 5 15 87 91 98 90 100 100 94 100 100 100 100 100 100 100 100 100 100 100 100
100 100 100 100 99 100 100 100 100 100 100 86 100 100 100 100 100 100 100 92 90 73 74 5 55 99 98 43 5 32 62 83 7 5 5 56 15 74 51 77 74 100 75 78 100 100 100 100 100 100 100 100 100 100
100 100 100 100 96 100 98 100 100 98 88 92 100 100 100 100 100 100 100 100 100 61 86 27 32 10 96 100 98 41 10 5 34 33 69 47 19 35 5 5 69 100 100 100 33 47 71 93 100 100 100 100 100 100
100 100 100 100 100 98 71 100 100 94 99 100 100 100 100 100 100 97 100 100 100 91 25 16 8 18 33 76 100 100 100 100 82 24 5 5 20 12 5 6 5 16 73 98 9 16 34 15 39 58 83 99 100 100
100 100 100 100 89 88 91 100 100 100 100 100 100 100 100 100 100 100 100 100 100 100 100 25 28 5 8 6 7 14 50 70 10 5 5 5 5 5 5 5 5 5 5 6 76 100 75 96 80 75 72 46 100 100
100 100 100 89 79 77 100 100 100 100 100 100 100 100 100 100 100 100 100 100 100 100 100 100 99 20 5 5 20 31 6 5 5 5 5 5 5 5 24 7 5 5 43 98 100 100 78 79 100 100 100 96 84 100
100 89 71 10 60 100 100 100 100 100 100 100 100 100 100 100 100 100 100 100 100 100 63 29 91 49 5 5 27 18 5 5 5 5 4 5 5 28 62 60 74 9 5 54 64 99 95 88 84 99 100 100 100 100
91 87 74 68 100 100 100 100 100 100 100 100 100 100 100 100 100 100 100 100 100 100 45 12 33 60 6 5 5 5 5 22 5 5 5 9 12 6 34 26 6 5 5 5 6 72 100 94 83 97 99 100 100 100
7 82 100 100 100 100 100 100 100 100 100 100 100 100 100 100 100 100 100 100 93 68 63 64 90 83 44 18 10 20 45 59 48 26 29 5 5 5 5 5 5 31 81 98 87 58 99 97 93 90 100 100 100 100
97 100 100 100 100 100 100 100 100 100 100 100 100 100 100 83 68 45 45 42 61 56 50 99 94 76 64 63 63 68 69 87 100 100 100 80 18 5 5 5 17 24 79 100 94 100 99 97 98 94 99 100 100 100
100 100 99 100 100 100 100 100 100 100 100 100 100 100 99 58 29 63 56 41 5 48 27 5 28 50 54 79 50 23 28 20 72 95 100 95 30 13 50 52 34 81 99 95 95 100 100 100 100 100 100 100 100 100
100 100 100 100 100 100 100 100 100 100 100 100 100 96 55 53 8 49 57 52 44 84 78 70 64 89 92 88 95 96 86 5 6 22 91 78 94 100 92 55 53 55 90 100 100 100 99 100 100 98 100 100 100 100
100 100 100 100 100 100 100 100 100 100 100 80 10 78 30 66 64 44 45 60 93 91 58 80 86 37 6 34 55 96 97 100 99 92 100 98 86 41 5 5 53 93 100 100 100 100 98 100 100 100 100 100 100 100
100 100 100 99 100 100 100 100 100 100 45 54 47 70 47 25 9 5 28 44 10 5 5 23 20 54 56 88 99 88 91 88 92 96 98 100 100 91 92 82 93 100 100 100 100 100 100 100 100 100 100 100 100 100

GFSWCAN_prec_cloud_024.txt.gz
Cloud_Cover
100 100 100 100 100 100 100 100 100 100 100 100 100 98 100 100 100 80 6 15 5 14 6 18 75 91 48 7 12 7 8 5 55 99 99 100 100 100 100 100 100 98 100 100 100 100 98 89 73 32 37 84 100 100
100 100 100 100 100 100 100 100 100 100 100 100 100 100 100 100 37 100 100 44 5 48 9 0 74 92 68 94 65 90 15 5 7 82 96 94 100 100 96 97 93 100 96 89 96 100 99 98 7 5 38 78 100 63
100 100 100 100 100 100 100 100 100 100 100 100 100 100 100 100 100 27 7 95 83 57 14 6 4 84 100 100 100 85 98 96 42 44 96 99 98 98 98 93 100 100 100 100 57 86 100 68 85 10 22 94 77 6
100 100 100 100 100 100 100 100 100 100 100 100 100 100 100 100 87 91 89 14 99 84 54 11 92 81 100 100 100 100 97 96 92 48 71 95 86 99 93 94 55 72 49 48 51 38 79 91 90 68 62 42 17 8
100 100 100 100 100 100 100 100 100 100 100 100 100 100 99 93 41 42 91 69 99 89 94 16 2 73 100 100 100 100 98 100 99 100 67 88 100 92 91 95 100 28 74 100 99 93 100 98 90 44 100 46 83 42
100 100 100 100 100 100 100 100 100 100 100 100 100 100 100 30 48 99 95 90 88 21 88 97 54 63 100 100 100 100 100 100 100 99 86 100 100 96 92 100 86 39 95 100 100 100 100 39 11 86 96 86 78 70
100 100 100 100 100 100 100 100 100 100 100 100 100 70 22 94 93 89 23 62 86 100 85 100 100 100 100 100 100 89 100 100 98 100 100 100 100 94 100 88 99 100 100 100 60 68 11 7 47 91 100 100 100 97
100 100 100 100 100 100 100 100 100 100 100 100 76 14 78 14 5 82 51 88 97 100 100 100 100 100 100 100 100 100 100 100 98 100 100 100 100 100 80 55 100 100 100 100 100 100 94 65 70 91 100 100 97 56
100 100 100 100 100 100 100 100 100 100 100 100 86 78 19 10 47 95 78 100 100 100 100 100 100 100 100 100 100 100 100 100 98 84 99 99 100 100 92 99 100 83 72 99 92 100 100 97 43 63 97 100 98 100
100 100 100 100 100 100 100 100 100 100 100 100 99 95 88 59 93 83 100 100 100 100 100 100 100 100 100 100 100 100 100 100 100 100 80 100 100 100 100 100 100 72 80 57 65 83 41 74 15 94 100 100 96 56
100 100 100 100 100 100 100 100 100 100 95 100 100 99 100 95 70 100 100 100 100 100 100 100 100 100 100 100 100 100 100 100 100 100 97 100 100 100 100 94 82 58 64 68 67 71 51 61 80 30 76 41 5 58
100 100 100 100 100 100 100 99 100 100 100 100 98 100 100 100 100 100 100 99 100 100 100 100 100 100 100 100 100 100 100 100 100 100 97 100 97 92 99 93 98 100 100 98 96 100 91 86 28 26 36 87 82 92
100 100 100 100 100 100 100 100 97 100 100 100 100 100 100 100 100 98 100 100 100 100 100 100 100 100 100 100 100 100 100 100 75 100 100 100 92 98 100 100 100 100 100 98 100 96 99 99 96 100 98 100 100 100
100 100 100 100 100 100 100 100 79 100 98 100 98 100 100 100 100 100 100 100 100 100 100 100 100 100 100 92 100 100 100 100 100 100 100 100 100 100 100 100 100 100 100 100 100 100 100 100 100 100 100 100 100 100
100 100 100 100 100 100 100 100 100 100 100 100 100 100 100 100 100 100 100 100 100 100 100 100 100 100 98 100 100 97 100 100 100 100 100 100 100 100 100 100 100 100 100 100 100 100 100 100 100 100 100 100 100 100
100 100 100 100 100 100 100 90 96 100 100 100 100 100 100 100 100 100 100 64 100 100 100 100 100 100 100 99 100 100 100 100 100 100 100 100 100 100 100 100 100 100 100 100 100 100 100 100 100 100 100 100 100 100
100 100 100 100 100 76 93 100 90 100 100 100 100 100 100 100 100 100 100 85 97 100 100 100 100 97 100 100 100 100 100 92 100 100 54 71 100 100 100 100 100 100 100 100 100 100 100 100 100 100 100 100 100 100
100 100 100 100 100 62 96 100 100 100 100 100 100 100 100 100 100 100 100 100 100 100 100 100 100 99 94 100 100 87 100 100 95 78 95 87 83 35 68 99 100 100 100 100 100 100 100 100 100 100 100 100 100 100
99 100 100 100 96 90 96 95 98 100 100 100 100 100 100 100 100 100 100 100 68 57 95 94 100 100 88 44 98 84 89 97 100 47 49 65 94 87 52 24 80 100 100 100 100 100 100 100 100 100 100 100 100 100
100 100 100 100 90 95 98 68 68 100 100 100 100 100 100 100 100 100 100 100 92 99 78 99 77 53 90 78 80 73 15 42 58 22 24 8 5 7 9 19 42 50 89 100 100 100 100 100 100 100 100 100 100 100
100 100 100 100 100 99 90 58 75 100 100 100 100 100 100 100 100 100 98 100 100 100 100 74 45 69 6 11 98 98 70 25 6 14 18 49 5 12 36 8 5 5 12 93 100 99 100 100 100 100 100 100 100 100
100 100 100 100 100 100 72 27 61 99 100 100 100 100 100 100 100 100 100 96 100 100 100 100 98 56 88 65 18 50 71 100 100 85 28 6 17 20 46 5 52 63 40 5 82 93 58 98 100 100 100 100 100 100
100 100 100 100 100 99 65 48 78 100 98 100 100 100 100 100 100 84 100 100 100 100 100 100 100 100 63 41 22 9 5 18 56 75 89 100 87 15 32 40 51 89 23 5 17 37 32 50 41 35 82 100 100 100
100 100 100 100 100 98 74 46 100 100 97 100 100 100 100 98 94 96 100 100 100 100 100 100 100 100 100 98 100 79 11 5 5 22 16 18 49 9 10 43 10 24 16 5 10 84 100 100 86 38 42 80 100 94
100 100 100 100 93 80 64 88 100 99 100 100 100 100 81 85 97 100 100 100 100 100 100 100 83 82 91 100 100 99 66 34 5 5 5 5 5 7 10 5 5 5 5 59 28 90 100 100 67 98 90 73 97 100
100 100 79 51 86 7 9 100 100 100 100 100 100 100 100 100 100 100 100 100 100 100 100 100 99 100 100 100 100 81 23 15 5 5 5 5 5 5 12 6 5 9 5 36 72 69 21 98 98 98 97 98 94 100
100 96 75 50 15 5 86 100 100 100 100 100 100 100 100 100 100 100 100 88 90 100 100 100 100 100 100 46 21 6 36 7 38 20 27 12 5 5 5 13 5 5 5 5 5 10 8 40 100 98 100 99 97 88
100 66 32 37 5 82 100 100 100 100 100 100 100 100 100 100 100 100 100 100 100 100 100 100 74 54 25 41 24 16 73 96 100 68 31 5 5 5 5 5 5 5 54 55 30 34 73 77 67 96 99 93 99 90
81 50 17 5 82 100 100 100 100 100 100 100 100 100 100 100 97 100 100 100 100 100 73 10 5 53 48 51 89 99 99 85 68 83 6 5 17 5 5 28 64 67 84 84 75 100 98 99 92 92 96 93 86 100
34 34 67 66 82 100 100 100 100 100 100 100 100 100 100 100 95 100 100 100 100 100 22 11 20 15 49 47 46 29 22 53 44 7 53 8 5 6 9 5 5 24 87 98 88 54 57 100 100 100 100 97 96 100
93 100 100 70 97 100 100 100 100 100 100 100 100 100 100 100 100 100 100 98 75 20 42 33 73 83 90 84 100 99 48 6 30 5 34 74 85 62 49 34 68 73 82 93 98 100 96 100 99 93 89 98 100 100
100 100 81 90 100 100 100 100 100 100 100 100 100 100 100 100 100 74 46 48 97 80 54 80 45 5 6 5 20 32 80 97 97 82 98 95 85 88 99 92 83 82 79 98 100 96 99 89 95 100 100 100 100 100
100 100 100 100 100 100 100 98 100 100 100 100 100 100 100 100 92 14 28 37 5 5 5 17 7 12 8 56 73 80 85 60 83 87 98 96 100 100 96 100 96 91 90 99 99 95 100 100 100 99 100 100 100 100

GFSWCAN_prec_cloud_027.txt.gz
Cloud_Cover
100 100 99 86 73 100 100 100 96 100 100 100 100 100 100 100 100 99 91 65 100 100 66 14 18 43 93 100 6 5 6 33 52 99 44 58 100 100 62 88 42 91 98 100 100 100 92 100 100 88 32 17 5 5
100 99 97 99 98 100 100 100 100 100 100 100 100 100 100 100 100 100 100 100 100 97 69 75 5 5 6 84 84 100 84 5 5 33 97 72 99 100 99 58 34 83 12 84 67 61 95 90 87 50 15 27 5 5
97 100 91 100 100 97 100 100 100 100 100 100 100 100 100 100 100 100 100 100 100 99 19 88 100 17 12 81 100 100 91 92 72 7 97 99 91 100 96 71 86 57 84 96 27 79 83 76 76 100 76 8 100 13
100 90 100 100 100 100 100 100 100 100 100 100 100 100 100 100 100 100 100 100 100 100 100 7 1 15 22 91 100 89 100 81 98 99 97 76 78 92 94 58 74 44 76 73 54 25 56 77 98 100 100 100 45 64
100 100 100 100 100 100 100 100 100 100 100 100 100 100 100 100 100 100 25 41 100 100 80 33 2 0 0 46 98 100 100 100 99 100 100 79 91 74 70 60 82 100 90 99 100 9 60 98 100 100 79 51 5 23
100 100 100 100 100 100 100 100 100 100 100 100 100 100 100 100 100 99 95 47 80 100 100 87 3 3 2 4 100 100 100 100 100 100 100 92 97 85 80 99 91 100 94 90 98 100 95 100 6 5 12 56 54 96
100 100 100 100 100 100 100 100 100 100 100 100 100 100 100 100 99 94 5 16 66 100 100 100 100 92 17 99 100 100 100 100 82 97 81 97 100 98 100 100 100 100 99 90 100 100 94 21 7 69 20 56 85 100
100 100 100 100 100 100 100 100 100 100 100 100 100 100 100 100 84 18 82 92 96 100 100 100 96 100 86 100 100 100 100 94 90 100 100 66 98 100 100 64 95 100 100 84 89 100 100 83 38 59 70 100 100 100
100 100 100 100 100 100 100 100 100 100 100 100 100 99 100 23 5 5 39 100 100 100 100 100 100 100 99 100 100 100 100 100 64 100 56 57 92 97 71 9 75 100 100 56 93 94 62 90 98 91 6 17 95 100
100 100 100 100 100 100 100 100 100 100 100 100 100 72 78 81 95 99 100 100 100 100 100 100 100 100 100 100 100 100 100 100 100 77 85 41 92 66 62 84 100 100 99 34 60 99 59 80 74 34 10 92 100 100
100 100 100 100 100 100 100 100 100 100 100 100 100 100 100 87 58 100 100 100 100 100 100 100 100 100 99 100 100 100 100 100 100 100 89 100 85 62 76 100 79 87 100 65 29 91 93 100 100 76 64 88 90 80
100 100 100 100 100 100 100 100 100 100 100 100 100 100 100 100 100 100 100 99 100 100 100 100 100 100 100 100 100 100 100 100 100 100 100 96 100 62 86 100 100 87 72 84 92 93 83 100 95 85 72 31 9 32
100 100 100 100 100 100 100 100 100 100 100 100 100 100 100 100 100 100 100 99 100 100 100 100 100 100 100 100 100 100 100 97 94 100 100 100 84 64 77 100 100 100 100 100 100 100 100 100 99 100 100 100 97 96
100 100 100 100 100 100 100 100 99 100 100 100 100 100 100 100 100 100 100 82 98 100 100 100 100 100 99 100 100 100 100 98 100 100 100 100 100 100 100 100 100 100 100 100 100 100 100 100 100 100 100 100 100 100
100 98 100 100 100 100 100 100 100 100 100 100 100 100 100 100 100 100 100 100 88 100 100 100 100 100 100 100 100 100 100 100 100 100 100 100 100 100 100 100 100 100 100 100 100 100 100 100 100 100 100 100 100 100
98 100 100 100 100 100 99 100 100 89 100 100 98 100 100 100 100 100 100 100 80 100 100 100 100 100 100 98 99 100 98 88 36 87 100 100 100 100 100 100 100 100 100 100 100 100 100 100 98 100 100 100 100 100
100 100 70 100 100 100 84 46 24 77 86 84 100 100 100 100 100 100 100 100 100 100 100 100 100 100 95 100 93 99 99 66 60 90 97 100 100 100 100 100 100 100 100 100 100 100 100 100 100 100 100 100 100 100
100 100 100 100 100 97 70 72 29 65 99 100 99 100 100 100 100 100 100 100 100 99 100 100 100 100 98 100 98 58 31 98 100 98 96 100 100 100 100 100 100 100 100 100 100 100 100 100 100 100 100 100 100 100
98 100 100 100 100 100 95 44 24 97 80 100 100 100 100 100 100 100 100 100 100 100 100 100 100 100 93 11 48 76 79 40 72 97 52 9 8 69 91 100 100 100 100 100 100 100 100 100 100 100 100 100 100 100
100 100 100 100 100 96 97 77 95 99 91 100 100 100 100 100 100 100 100 100 100 100 100 94 91 46 7 11 99 100 90 88 55 74 37 5 5 23 5 17 20 12 34 43 100 100 100 100 100 100 100 100 100 100
100 100 100 100 100 100 88 84 61 68 72 71 100 100 100 100 100 100 100 100 100 100 100 100 67 90 30 6 27 49 75 28 6 5 5 10 13 58 64 66 61 6 22 5 5 19 89 100 100 100 100 100 100 100
100 100 100 100 100 100 83 37 24 29 68 40 100 100 100 100 100 100 99 91 100 100 92 71 100 100 100 85 39 8 21 48 11 5 5 5 5 5 14 9 65 77 96 84 28 6 11 8 30 100 100 100 100 100
100 100 100 100 100 93 53 49 30 57 7 8 97 100 100 100 100 100 100 100 100 100 100 100 81 100 100 100 100 100 71 42 5 15 7 5 5 32 61 26 47 93 60 13 7 5 16 12 81 100 78 66 94 100
100 100 100 100 80 94 96 32 75 94 96 89 72 100 100 100 100 100 100 100 100 100 100 100 93 100 99 100 100 100 100 100 100 100 100 88 11 5 5 5 5 18 15 5 63 58 35 94 100 100 100 73 38 70
100 100 94 99 82 99 96 86 99 98 79 94 76 100 92 100 100 100 100 100 96 94 87 98 100 100 100 96 100 100 100 100 100 100 96 68 88 100 14 5 5 5 17 70 93 55 49 25 42 96 84 100 89 84
100 100 72 28 78 41 5 14 72 37 58 100 100 100 98 79 79 100 100 99 58 71 67 70 100 100 100 100 100 100 90 100 100 100 100 100 76 8 5 5 4 28 5 13 54 82 33 34 8 18 89 83 83 93
83 60 43 80 95 33 5 5 4 7 67 100 100 100 100 85 63 100 88 77 91 88 86 100 100 100 100 100 100 99 90 68 100 100 86 11 5 5 5 30 80 80 8 5 5 28 5 5 6 5 54 98 73 89
23 5 27 44 65 74 71 23 5 5 67 100 100 100 100 100 100 100 99 100 100 100 100 100 100 100 100 100 68 67 92 98 47 16 40 9 40 57 26 5 5 11 56 82 89 65 62 91 98 73 69 60 58 36
88 27 60 53 93 99 52 32 5 62 100 100 100 100 94 100 100 100 100 100 100 100 100 100 100 100 99 77 64 43 47 12 24 6 10 72 44 5 5 9 35 44 54 60 66 99 99 86 92 80 41 64 12 86
32 5 26 5 89 76 26 6 87 100 100 98 86 88 99 100 100 100 100 100 100 100 100 100 100 92 63 52 41 5 27 45 7 5 6 5 5 5 5 5 5 5 6 56 47 57 56 74 83 84 99 100 100 99
73 39 21 5 5 58 70 98 100 100 83 98 100 100 100 82 100 100 100 100 100 100 98 98 100 98 92 77 71 63 6 31 47 5 6 27 64 56 8 5 5 27 69 90 87 99 96 89 95 88 100 100 100 100
84 87 84 28 19 66 100 100 100 100 45 77 100 100 100 100 100 100 100 100 100 100 100 100 100 64 30 33 15 26 13 63 79 68 77 89 86 52 22 42 94 97 87 78 89 99 99 86 88 98 100 100 100 99
100 100 100 99 100 100 100 100 99 85 28 89 100 100 100 100 100 100 100 100 100 100 100 74 13 14 5 5 6 74 97 86 88 79 95 98 100 96 100 100 93 90 95 86 82 85 96 100 100 100 100 100 100 100

GFSWCAN_prec_cloud_030.txt.gz
Cloud_Cover
100 100 100 100 94 84 100 100 93 100 100 100 100 100 100 100 100 100 100 100 100 100 90 78 100 96 100 100 81 8 5 6 5 46 86 100 72 70 62 37 34 54 99 100 100 99 87 97 100 100 99 97 90 6
100 100 100 100 100 98 100 100 100 100 100 100 100 100 100 100 100 100 100 100 100 100 100 100 100 100 98 90 100 100 51 5 5 8 83 93 100 12 48 66 27 14 6 93 73 84 72 73 90 86 96 83 76 5
94 100 98 100 100 100 100 100 100 100 100 100 100 100 100 100 100 100 100 100 100 100 100 100 100 4 5 5 45 99 100 100 19 5 17 89 91 81 32 64 54 6 6 26 100 23 99 93 98 100 100 95 33 5
100 98 99 92 97 94 97 100 100 100 100 100 100 100 100 100 100 100 100 100 100 100 100 86 59 99 4 3 5 76 99 100 100 76 96 74 35 6 37 36 47 44 89 90 88 68 100 100 100 100 100 100 100 69
100 100 99 100 89 100 100 100 100 100 100 100 100 100 100 100 100 100 100 100 99 99 86 65 15 0 1 5 74 41 97 100 100 100 96 59 18 30 6 70 33 88 100 100 100 71 100 98 100 100 30 23 8 8
100 100 100 100 100 100 100 100 100 100 100 100 100 100 100 100 100 100 100 97 13 100 100 88 28 4 2 0 2 48 100 100 100 100 94 44 21 53 8 100 85 100 100 100 100 86 100 100 100 61 67 16 10 64
100 100 100 100 100 100 100 100 100 100 100 100 100 100 100 100 100 100 98 17 35 66 99 59 70 93 82 3 3 7 100 100 100 100 97 6 71 5 39 76 97 100 100 100 100 83 92 99 54 30 75 62 15 38
100 100 100 100 100 100 100 100 100 100 100 100 100 100 100 100 100 99 84 75 69 97 100 94 100 100 20 29 38 100 100 100 100 100 100 30 56 40 80 40 56 100 100 100 100 99 56 38 76 99 50 54 7 11
100 100 100 100 100 100 100 100 100 100 100 100 100 100 100 100 98 68 89 100 97 100 100 97 100 100 100 96 100 100 100 100 100 100 100 63 91 97 18 17 29 100 100 100 100 99 100 64 99 82 100 62 39 26
100 100 100 100 100 100 100 100 100 100 100 100 100 100 100 100 99 74 100 100 100 100 100 100 100 100 100 100 100 100 100 100 100 100 100 100 87 30 5 5 5 46 100 100 80 87 81 78 92 96 81 100 76 27
100 100 100 100 100 100 100 100 100 100 100 100 100 100 93 99 92 100 100 100 88 100 100 100 100 100 100 100 100 100 99 100 100 100 100 100 100 98 13 56 61 28 82 100 96 89 97 84 100 100 100 82 72 75
100 100 100 100 100 100 100 100 100 100 100 100 100 100 100 100 100 100 100 100 100 100 100 100 100 100 100 100 100 97 100 100 100 100 100 100 100 84 80 96 80 48 59 100 98 100 100 100 100 100 99 100 100 96
100 100 100 100 100 100 100 100 100 100 100 100 100 100 100 100 100 100 100 98 100 100 100 100 100 100 100 100 100 100 95 100 100 100 100 100 93 49 93 100 99 99 88 89 100 100 100 100 100 95 100 100 100 100
66 93 100 100 100 100 100 100 100 100 100 100 100 100 100 100 100 100 100 100 100 100 100 100 100 100 100 100 100 100 100 100 100 100 84 78 100 100 100 100 100 100 100 100 100 100 100 100 100 100 100 100 99 100
99 82 99 100 100 100 100 100 100 95 83 100 100 100 100 100 100 100 100 100 100 100 100 100 100 100 100 99 100 93 100 100 98 79 75 95 100 100 100 100 100 100 100 100 100 100 100 100 100 100 100 100 100 100
100 100 100 100 100 100 100 100 100 100 33 99 100 100 100 100 100 100 100 100 100 100 100 100 100 100 100 99 100 100 100 92 70 89 98 100 100 100 100 100 100 100 100 100 100 100 100 100 100 100 100 100 100 100
18 95 100 100 100 100 100 97 67 95 89 99 100 100 100 100 100 100 100 100 100 100 100 100 100 100 96 99 100 100 100 61 99 100 100 100 100 100 100 100 100 100 100 100 100 100 100 100 100 100 100 100 100 100
32 20 78 100 100 100 100 100 57 88 80 65 84 87 99 100 100 100 100 100 100 100 100 100 100 99 100 100 100 100 78 46 64 97 100 98 100 100 100 100 100 100 100 100 100 100 100 100 100 100 100 100 100 100
10 95 100 100 100 100 100 100 98 87 50 66 50 26 100 100 93 80 100 96 100 100 100 100 100 98 89 76 69 68 96 69 46 7 51 87 72 62 16 66 99 100 100 100 100 100 100 100 100 100 100 100 100 100
92 100 100 100 100 89 78 66 100 100 87 7 73 72 80 100 100 100 100 100 98 85 87 100 100 100 41 13 31 69 62 65 52 46 72 87 63 35 5 14 49 16 63 68 91 100 100 100 100 79 97 100 100 100
100 100 100 100 100 98 73 36 97 100 100 75 64 92 52 100 100 100 99 100 99 100 100 100 100 100 100 96 83 98 62 8 6 6 40 75 85 94 90 72 66 8 23 5 9 36 20 5 45 100 95 75 87 100
100 100 100 100 100 81 90 56 51 100 98 61 55 83 98 89 100 100 100 100 100 100 100 74 52 96 100 100 39 8 5 5 5 5 5 6 5 19 15 20 54 62 74 78 73 20 27 52 22 40 100 100 100 98
93 100 100 100 88 82 53 100 96 99 66 5 37 37 29 66 69 100 100 100 100 100 90 36 100 100 100 100 100 100 94 82 67 48 34 5 8 30 65 61 42 40 28 11 20 23 44 6 6 81 100 100 60 24
93 100 96 89 88 90 91 69 95 93 98 97 93 36 5 38 76 98 100 100 100 100 45 46 90 100 100 100 100 92 81 94 100 100 100 99 100 98 92 98 100 81 72 37 60 58 56 5 8 7 47 91 58 91
95 76 100 91 84 100 100 100 100 99 90 62 94 37 21 77 81 100 100 100 100 100 100 80 98 78 87 100 100 94 100 99 100 100 86 99 100 100 100 100 100 100 100 100 40 7 47 71 69 57 10 48 89 39
88 42 79 20 81 61 99 100 100 94 54 69 70 52 57 37 69 100 100 100 100 100 100 100 100 100 100 100 100 100 99 100 96 100 100 100 100 100 90 100 100 99 99 92 56 31 32 48 82 100 79 48 16 88
81 58 88 87 72 48 5 82 78 28 78 40 64 91 30 10 5 99 100 100 100 100 100 100 100 100 100 95 82 87 100 100 100 100 100 100 100 98 100 100 84 17 5 7 55 43 16 20 29 61 78 31 5 42
31 5 83 69 88 80 85 46 82 92 87 44 6 22 48 5 37 88 100 99 100 100 100 99 91 98 89 75 99 100 100 100 100 100 100 100 97 100 87 51 17 5 5 41 25 36 75 91 99 99 91 88 52 5
96 70 8 71 10 10 5 5 5 5 17 79 86 5 5 52 100 100 100 100 71 96 91 94 100 90 87 100 100 100 100 100 100 100 100 100 98 6 38 56 54 55 14 18 8 83 100 100 79 83 51 73 55 99
48 46 54 46 5 5 5 2 5 5 26 41 10 5 5 75 100 100 100 100 100 100 100 99 98 100 100 100 100 100 100 100 100 99 96 32 5 5 6 5 5 5 8 84 68 40 68 84 86 99 84 93 92 93
20 19 29 21 5 5 5 25 46 0 34 14 38 34 12 65 100 100 100 100 100 100 100 90 90 99 100 100 100 100 100 79 54 6 15 37 23 24 7 5 5 25 84 100 100 94 97 93 99 98 92 88 75 96
87 98 98 69 16 5 42 5 26 5 5 9 6 68 12 97 100 100 100 100 100 100 100 99 100 100 100 100 100 94 70 50 10 5 15 74 68 6 47 49 59 76 100 100 100 99 91 93 97 96 86 87 99 99
100 100 100 100 100 99 88 91 58 76 35 20 34 26 99 100 100 100 100 96 100 100 100 100 100 100 100 100 96 61 66 80 99 82 98 89 100 100 100 86 82 91 96 95 99 100 96 93 86 73 81 91 93 92

GFSWCAN_prec_cloud_033.txt.gz
Cloud_Cover
100 100 99 61 100 100 100 92 76 100 100 100 100 100 100 100 100 100 100 99 100 100 100 100 100 100 100 100 100 100 96 72 56 88 98 96 97 92 75 21 100 97 100 100 99 100 100 45 98 95 100 100 100 100
98 80 43 100 100 94 94 100 66 100 100 100 100 100 100 100 100 100 99 100 100 100 100 100 100 100 100 100 100 100 100 93 60 97 28 18 85 96 97 66 6 59 96 98 78 45 40 96 100 100 100 100 100 100
5 5 51 98 100 99 71 13 91 100 100 100 100 100 100 100 100 100 99 96 100 100 100 100 100 100 100 100 100 100 100 100 100 96 97 39 5 90 99 99 51 71 73 98 64 49 27 92 100 100 100 100 99 98
72 30 65 97 83 97 100 96 98 100 100 100 100 100 100 100 100 100 100 100 100 94 100 100 100 100 100 100 82 79 99 100 100 100 69 69 7 5 53 85 82 58 96 55 46 73 34 67 38 91 100 62 66 78
62 79 32 74 100 100 100 100 100 100 100 100 100 100 100 100 100 100 100 100 100 100 100 100 96 71 18 11 14 5 0 83 100 100 100 100 50 5 13 84 98 82 100 100 99 29 95 84 16 100 100 83 97 97
44 97 96 100 100 100 100 100 100 100 100 100 100 100 100 100 100 100 100 100 100 100 100 91 12 5 6 45 5 5 5 52 100 100 100 98 79 5 5 37 82 100 100 100 100 76 16 98 100 100 100 30 24 32
9 87 100 100 100 100 100 100 100 100 100 100 100 100 100 100 100 100 100 100 100 95 100 73 5 5 90 40 23 30 15 83 100 100 100 100 100 75 5 9 5 89 100 100 100 98 56 99 100 100 100 54 10 83
100 100 100 100 100 100 100 100 100 100 100 100 100 100 100 100 100 76 100 100 100 100 100 100 51 75 71 96 28 4 68 99 100 100 100 100 100 59 27 3 3 82 100 100 100 99 87 100 98 94 99 93 59 28
100 100 100 85 100 100 100 100 100 100 100 100 100 100 100 100 100 100 100 100 100 100 92 82 99 100 100 100 53 81 85 100 100 100 100 100 100 98 100 18 5 22 93 100 100 100 99 65 100 52 64 70 100 77
100 100 98 100 81 80 100 100 100 100 100 100 100 100 100 100 100 100 100 100 100 100 100 100 100 100 100 100 100 100 100 100 100 100 100 100 100 100 100 12 5 5 17 99 100 100 100 62 98 98 46 35 86 100
93 99 100 91 86 100 97 80 100 100 100 100 100 100 100 100 100 100 100 100 100 99 100 100 100 100 100 100 99 100 100 100 100 100 100 100 100 48 25 5 5 5 6 72 100 100 100 100 100 92 92 85 86 88
96 100 100 100 100 100 100 43 96 98 100 100 100 100 100 100 100 100 100 100 100 100 100 100 100 100 100 100 90 86 99 100 100 100 100 100 97 34 56 47 7 5 5 5 64 100 100 100 100 100 100 100 100 100
19 34 98 100 26 100 92 57 91 100 100 100 100 100 100 100 100 100 100 100 100 100 100 100 100 100 100 100 100 100 100 100 100 100 100 88 29 42 39 5 36 67 76 98 36 100 100 100 100 100 100 100 100 100
11 17 89 90 52 37 100 100 96 98 72 100 100 100 100 100 100 100 100 100 100 100 100 100 100 100 100 100 100 98 100 100 100 100 100 99 46 44 39 49 92 100 100 97 67 83 100 100 100 100 100 100 100 100
100 27 7 5 5 78 88 99 100 99 68 100 100 100 100 100 100 100 100 100 100 100 100 100 100 100 100 100 100 100 100 98 94 100 100 100 100 100 100 100 100 100 100 100 100 100 100 100 100 100 100 100 100 100
100 95 54 61 19 90 100 85 23 86 99 93 100 100 100 100 100 100 100 100 100 100 100 100 100 100 100 100 100 98 100 100 90 100 100 100 100 100 100 100 100 100 100 100 100 100 100 100 100 100 100 100 100 100
18 76 31 79 100 100 100 43 51 75 61 91 100 100 98 100 100 100 100 100 100 100 100 100 100 100 100 98 96 100 100 100 87 100 100 100 100 100 100 100 100 100 100 100 100 100 100 100 100 100 100 100 100 100
67 17 90 100 100 100 100 100 43 75 100 70 77 99 100 100 100 100 100 100 98 100 100 100 100 100 100 100 100 100 100 100 61 48 96 100 86 70 93 100 100 100 100 100 100 100 100 100 100 100 100 100 100 100
100 92 98 100 100 100 46 39 70 20 92 100 49 69 49 32 53 98 100 100 100 97 100 75 87 100 100 100 92 97 99 74 73 100 100 95 99 99 93 62 54 81 100 100 100 100 100 100 96 100 100 100 100 100
100 100 100 100 100 100 64 42 87 83 94 100 100 81 81 28 14 27 42 59 78 96 100 100 100 100 100 100 94 97 100 100 100 100 100 99 55 66 50 29 23 7 62 57 19 12 41 88 100 85 40 100 100 100
100 100 100 100 100 100 71 76 57 86 84 100 100 96 60 56 72 90 78 73 100 100 100 100 100 100 74 76 100 90 69 98 83 58 71 71 70 66 99 98 83 83 52 9 5 5 5 5 5 5 58 93 100 59
100 100 100 100 100 100 88 88 52 53 86 98 100 100 100 98 77 73 81 100 100 100 27 95 55 99 98 43 99 100 32 7 15 41 33 48 49 66 75 56 62 43 34 25 43 31 12 8 10 30 44 74 89 13
100 100 100 100 100 89 63 76 88 86 13 88 100 100 28 82 53 75 94 44 54 100 85 100 100 100 100 84 100 100 92 38 20 9 41 60 47 22 6 5 35 37 49 46 12 22 51 35 40 40 44 28 10 7
100 100 100 100 100 94 93 84 81 89 98 95 99 77 5 25 84 96 97 5 64 100 100 100 100 100 100 100 87 30 72 100 100 67 24 91 80 98 99 78 13 10 6 39 52 69 83 23 5 5 5 56 61 88
100 100 100 100 98 100 95 97 96 98 97 100 100 100 38 82 61 99 63 5 78 100 100 100 100 100 100 100 98 82 96 95 99 100 100 100 100 100 100 100 76 99 100 100 100 100 100 100 100 100 92 73 66 27
100 100 100 100 99 74 52 94 100 99 89 72 100 71 82 49 16 3 5 5 45 100 100 100 100 100 100 100 100 100 100 97 100 100 100 100 100 100 75 73 74 67 83 100 100 97 100 97 100 99 69 17 19 5
79 76 93 98 99 99 53 36 6 14 72 44 100 100 99 8 5 1 4 17 15 100 100 100 100 100 100 100 100 100 100 100 100 100 85 100 100 98 98 97 100 100 100 100 100 81 40 16 20 32 26 36 20 5
21 70 97 100 96 96 90 50 26 32 5 5 36 100 99 10 5 5 4 5 45 100 100 100 100 100 100 100 100 100 100 100 100 100 100 81 46 72 100 100 100 100 100 100 98 70 63 75 90 82 90 94 59 5
80 93 66 96 100 100 100 73 20 5 2 5 5 5 5 5 5 5 5 7 97 100 100 100 100 100 100 100 100 85 94 100 100 100 100 81 92 100 100 100 100 100 100 95 55 12 70 67 90 97 61 56 56 84
93 100 100 100 100 100 94 55 5 10 44 12 11 5 5 5 5 43 27 45 100 100 100 99 100 100 96 88 88 74 96 98 98 100 100 100 100 100 100 100 92 68 61 31 23 41 62 94 85 84 76 82 88 88
100 100 100 86 19 6 5 6 62 2 41 10 23 10 3 5 5 5 5 78 100 100 100 88 97 87 69 84 87 99 99 100 100 100 100 100 100 100 100 55 6 48 69 82 85 86 76 86 87 88 91 95 68 88
88 53 9 49 16 5 75 63 37 18 5 24 6 88 6 5 5 4 78 98 100 100 100 100 100 100 100 100 100 100 100 100 100 100 100 100 67 46 9 13 55 80 98 100 94 89 90 83 73 78 80 72 69 77
99 77 57 16 51 26 99 100 100 45 57 48 5 5 6 5 4 81 100 78 100 100 100 100 100 100 100 100 100 100 100 100 100 98 97 90 100 100 97 87 75 97 94 95 100 96 91 92 75 84 94 81 94 82

GFSWCAN_prec_cloud_036.txt.gz
Cloud_Cover
86 100 96 34 90 48 51 6 50 10 9 95 96 54 99 100 100 100 100 100 100 100 81 93 100 100 100 100 100 100 100 78 99 98 96 100 67 92 100 100 89 100 99 91 89 98 97 76 82 96 100 98 100 100
97 100 11 15 62 21 5 5 5 10 22 57 73 99 99 100 100 100 86 100 100 100 98 94 100 100 100 100 100 100 100 100 94 98 81 85 10 5 38 100 89 90 100 100 100 98 75 98 88 100 100 100 100 100
81 5 5 5 9 5 72 74 48 23 71 90 100 100 99 100 100 100 100 100 99 100 100 100 100 100 100 100 100 100 100 100 100 100 100 100 29 78 5 13 70 99 100 100 100 95 58 74 52 79 100 100 100 98
5 18 5 5 7 29 93 100 63 53 76 93 100 100 95 100 100 100 100 100 100 100 100 100 100 100 100 100 100 100 100 100 100 100 100 93 100 100 95 7 19 96 100 100 100 83 99 64 52 68 85 100 100 100
100 83 23 35 56 98 100 100 100 89 100 100 100 100 100 100 100 100 100 100 100 100 100 100 100 100 100 100 100 100 100 100 100 100 100 100 72 59 100 47 5 68 98 100 99 43 94 56 40 20 9 65 100 93
100 100 7 41 99 99 100 100 100 51 69 100 100 100 100 100 100 100 100 100 100 100 100 100 100 100 100 100 94 80 86 52 74 92 83 100 95 100 31 100 39 5 85 100 100 42 30 65 22 5 6 5 26 93
100 73 78 10 12 29 100 94 97 44 59 100 100 100 100 100 100 100 100 100 100 100 100 100 94 97 90 43 40 68 75 99 97 93 68 100 100 100 92 100 97 1 18 98 100 74 26 65 13 22 100 6 14 56
100 94 76 98 88 97 100 100 92 78 100 100 100 100 100 100 100 100 100 100 93 100 100 100 42 61 96 64 81 38 95 95 84 78 100 100 100 100 100 100 99 4 4 5 15 88 32 35 5 5 100 26 8 49
100 86 100 94 53 6 75 100 16 28 100 100 100 100 100 100 100 100 100 100 100 100 93 93 91 96 100 98 99 60 9 31 76 100 94 100 100 100 100 100 100 6 4 5 8 86 100 18 5 5 45 99 59 65
96 98 76 41 99 98 100 100 7 6 84 100 100 100 100 100 100 100 100 100 100 100 100 97 96 100 100 100 100 100 100 100 100 100 100 100 100 100 100 100 100 37 5 5 12 92 100 100 69 62 34 100 100 100
98 80 14 87 100 100 100 87 21 100 63 100 100 100 100 100 100 100 100 100 100 100 100 100 100 100 100 100 100 100 100 100 100 100 100 100 100 100 100 100 100 91 5 5 5 12 72 92 82 99 100 100 100 86
100 76 47 100 74 100 100 60 98 94 94 90 100 100 100 100 100 100 100 100 100 100 100 100 100 100 100 100 100 100 100 100 100 100 100 100 100 100 100 100 100 83 5 5 5 100 100 100 100 100 100 100 100 98
100 100 100 56 100 100 11 9 9 17 9 5 82 100 100 100 100 100 100 100 100 100 99 100 100 100 100 100 100 100 100 100 100 100 100 100 100 100 100 100 82 8 21 59 28 94 95 83 100 100 100 100 100 100
95 91 65 100 24 5 5 15 91 9 5 5 6 82 100 100 100 100 100 100 100 100 100 100 100 100 100 100 100 100 100 100 100 100 100 91 35 24 32 25 8 55 68 24 21 62 28 98 100 100 100 100 100 100
99 14 6 65 9 9 24 100 67 5 5 9 39 18 95 100 100 100 100 100 100 100 100 100 100 100 100 100 100 100 100 99 98 100 100 100 79 100 89 8 88 99 81 89 100 98 100 100 100 100 100 100 100 100
100 19 30 7 8 97 100 100 14 5 5 8 36 57 100 100 100 100 100 100 100 100 100 100 100 100 100 100 100 100 100 95 100 100 100 100 100 100 100 99 99 100 100 100 100 100 100 100 100 100 100 100 100 100
46 98 49 46 83 87 100 94 44 62 19 91 11 20 100 100 100 100 100 100 100 100 100 100 100 84 96 100 100 100 100 86 100 100 100 100 100 100 100 100 100 100 100 100 100 100 100 100 100 100 100 100 100 100
23 24 40 76 96 100 100 100 49 43 44 17 5 5 12 98 100 100 100 100 100 100 100 100 100 100 100 100 100 100 100 100 84 75 90 100 100 100 100 100 100 100 100 100 100 100 100 100 100 100 100 100 100 100
45 77 100 99 100 94 84 38 21 6 7 5 5 5 12 8 59 49 86 78 82 100 100 100 100 100 100 100 100 100 92 96 77 100 100 100 100 92 85 82 90 100 100 100 100 100 100 100 97 88 93 100 100 100
30 100 100 99 100 100 99 41 84 84 7 4 23 32 49 5 40 22 68 100 100 100 100 100 100 98 100 77 83 69 99 95 100 99 67 92 82 77 94 99 93 58 19 6 14 27 27 33 68 86 60 21 90 100
100 100 100 100 100 100 100 99 61 77 60 28 65 68 27 55 42 63 70 82 99 72 70 100 100 76 98 56 93 93 93 88 100 100 100 100 99 100 100 98 78 73 18 9 8 5 5 5 5 5 15 84 100 100
100 100 100 100 100 100 100 93 65 42 89 58 65 88 73 100 60 60 98 100 100 7 5 72 71 48 33 13 100 100 83 100 100 96 93 96 73 67 38 7 26 16 19 20 35 21 14 6 4 5 6 33 22 45
100 100 100 100 100 99 67 72 95 90 100 100 20 11 5 66 55 77 96 70 14 5 5 5 78 73 72 96 98 96 95 69 94 82 80 27 5 8 8 12 16 14 27 8 18 21 38 6 5 11 54 74 74 61
100 100 100 100 95 79 95 94 98 95 100 100 100 18 4 21 61 89 58 5 5 5 5 5 96 100 94 92 97 96 78 99 64 97 41 5 6 18 5 8 8 13 30 21 31 26 38 45 12 5 5 5 5 6
100 100 99 65 56 98 100 96 97 100 100 100 99 33 7 79 76 56 55 5 5 1 2 5 90 100 97 100 100 100 100 100 64 96 93 51 36 35 5 5 5 9 42 18 38 38 21 10 8 10 8 12 30 72
66 60 82 10 34 88 46 100 100 100 100 90 61 12 69 11 24 36 9 5 4 0 0 5 98 100 100 100 100 100 100 100 100 100 99 100 99 97 74 83 94 100 100 100 100 98 58 46 57 90 88 76 84 72
91 27 46 96 99 96 100 100 100 100 100 78 5 97 77 29 7 68 71 5 1 1 5 6 97 100 100 100 100 100 100 100 100 100 100 100 100 100 100 100 100 100 99 100 100 99 78 74 78 47 74 50 22 6
63 100 90 100 100 100 100 100 100 100 100 71 26 90 17 6 2 12 5 8 5 5 5 9 100 100 100 100 100 100 100 100 100 100 100 100 99 100 100 100 100 96 87 98 83 66 49 13 38 100 100 96 17 5
94 99 100 100 100 100 100 100 100 100 94 59 5 5 5 5 5 5 2 5 5 5 5 17 100 100 100 100 100 100 100 100 100 100 96 87 100 100 100 100 100 97 100 100 69 73 100 100 100 98 70 81 67 60
100 100 100 100 100 100 100 100 24 36 12 3 4 5 5 5 3 5 5 5 5 3 0 54 100 100 98 100 100 100 100 100 99 83 90 94 70 45 42 27 34 43 82 100 100 87 45 87 87 92 82 67 79 94
100 100 100 96 40 44 34 14 6 3 4 5 23 30 2 2 5 5 3 1 0 0 5 90 100 100 96 95 95 95 95 75 89 92 92 94 86 52 39 17 28 56 89 90 86 82 70 80 89 87 83 74 52 86
96 83 46 71 40 5 6 72 31 21 5 42 5 35 5 5 5 0 4 5 5 5 4 87 100 100 98 100 89 85 93 94 96 80 70 70 96 95 96 94 79 82 100 86 97 97 100 100 86 80 78 56 10 19
96 100 100 20 8 48 54 25 36 47 47 26 6 5 5 5 5 1 5 5 4 5 55 100 99 72 71 88 96 98 100 100 100 100 98 82 98 78 97 69 26 85 99 100 98 100 100 99 79 69 62 60 40 29

GFSWCAN_prec_cloud_039.txt.gz
Cloud_Cover
5 23 88 8 5 5 5 5 5 5 5 5 18 6 19 16 64 87 100 96 100 100 100 100 100 100 100 100 100 100 84 70 100 64 100 88 75 56 94 100 100 100 100 100 100 100 78 100 99 67 84 49 91 100
9 5 5 5 5 5 5 5 5 5 5 6 50 89 79 88 100 100 100 100 100 100 100 100 100 100 100 100 100 100 100 100 99 100 100 100 87 78 11 89 100 100 100 100 100 100 99 99 86 76 65 100 100 93
5 52 5 5 5 5 5 5 43 9 6 5 6 12 49 69 85 100 100 100 100 100 100 100 100 100 100 100 100 100 100 100 100 100 100 100 100 98 86 11 27 99 100 100 100 100 100 100 100 100 100 100 100 100
75 5 5 5 5 5 6 24 100 100 100 11 21 89 100 86 100 100 90 100 100 71 79 98 100 100 100 100 100 100 100 100 100 100 100 100 99 88 66 91 54 31 83 100 100 100 100 100 67 77 88 100 100 100
100 32 5 5 11 46 10 99 100 100 98 26 77 95 70 100 93 100 100 100 100 99 100 100 100 100 100 100 100 100 100 100 100 100 100 100 100 100 100 83 5 100 40 21 38 59 100 100 100 75 61 58 79 100
99 30 5 31 97 5 5 5 5 5 5 10 98 100 100 100 76 99 100 100 100 100 100 100 100 100 100 100 100 100 100 81 100 100 100 100 100 100 100 100 73 78 5 13 14 5 57 100 100 100 65 41 25 99
94 9 11 31 55 6 5 5 5 5 5 17 100 100 100 100 97 94 100 100 100 100 100 98 100 100 100 100 100 100 81 96 99 100 86 77 96 100 100 100 100 100 61 13 5 5 5 50 95 100 73 14 18 45
87 5 45 100 100 56 5 5 5 5 5 17 24 96 100 100 100 100 100 100 100 100 100 100 100 100 98 100 91 78 99 100 80 83 94 69 43 100 100 100 100 100 98 87 5 5 5 5 77 100 100 76 67 86
30 77 48 100 100 8 5 5 5 5 5 24 5 100 100 100 100 100 100 100 100 100 100 100 100 100 99 100 92 64 65 90 64 90 93 99 99 100 100 100 81 100 100 100 23 5 5 5 6 89 100 100 56 59
100 89 100 100 82 26 5 5 5 25 74 5 5 96 100 96 100 100 100 100 100 100 100 100 100 100 100 100 100 90 100 100 100 44 96 100 100 100 100 100 100 100 100 100 97 5 5 5 5 25 100 100 100 49
100 97 99 32 19 18 5 5 5 94 53 49 78 49 100 97 100 100 100 100 100 100 100 100 100 100 100 100 100 100 100 100 100 100 100 100 100 100 100 100 100 100 100 100 100 68 5 13 51 68 99 100 100 68
77 97 74 92 88 53 5 9 62 30 56 57 90 29 88 100 100 100 100 100 100 100 100 100 100 100 100 100 100 100 100 100 100 100 100 100 100 100 100 100 100 100 100 100 100 99 38 100 100 100 100 100 99 99
75 100 100 100 85 38 5 5 5 6 5 28 88 77 63 96 100 100 100 100 100 100 100 100 100 100 100 100 100 100 100 99 100 100 100 100 100 100 100 100 100 100 100 100 100 85 53 33 84 95 100 100 100 100
77 98 100 86 100 51 5 18 12 30 5 5 5 0 12 10 100 100 100 100 100 100 100 100 100 100 100 100 100 100 100 100 100 100 99 100 100 100 100 100 100 100 100 100 95 88 5 6 52 86 98 100 98 100
63 100 100 91 29 18 6 5 13 5 8 5 5 0 2 6 5 100 100 100 100 100 100 100 100 100 100 100 100 100 99 99 100 100 100 100 99 99 100 100 100 94 100 96 89 85 65 90 100 100 100 100 100 100
100 100 92 99 87 72 57 33 5 5 11 14 12 5 3 5 5 10 100 100 100 99 100 100 100 100 100 100 100 100 100 100 100 100 100 100 100 100 99 95 96 100 100 98 100 76 90 67 98 100 100 100 100 100
99 81 94 100 100 100 66 80 21 50 8 22 5 5 5 5 5 5 9 99 100 100 100 100 100 100 100 100 99 100 100 100 100 100 100 100 100 100 100 100 100 100 100 100 100 100 100 100 100 100 100 100 100 100
100 63 38 45 89 96 40 100 44 6 5 11 5 5 5 3 4 4 19 76 100 100 100 100 100 100 100 100 100 100 100 100 100 92 99 100 100 100 100 100 100 100 100 100 100 100 100 100 100 100 100 100 100 100
100 100 100 68 80 70 92 67 20 38 8 7 5 5 5 5 5 5 6 92 100 100 100 100 100 100 100 100 100 98 100 100 100 100 99 100 100 100 100 100 100 100 100 100 100 100 100 100 100 100 100 100 100 100
100 100 100 100 100 100 100 88 66 47 7 88 33 52 8 5 7 5 6 25 99 100 100 100 100 100 100 100 82 100 100 100 100 100 98 98 99 98 100 99 98 100 99 98 85 88 100 100 100 100 100 100 100 100
100 100 100 100 25 47 100 60 45 61 100 100 98 100 99 25 9 68 74 100 100 100 65 34 8 21 56 100 100 100 100 100 100 100 100 100 100 100 94 100 100 79 58 19 5 5 5 5 5 5 5 6 6 5
100 100 100 79 100 95 92 80 79 100 100 100 100 99 100 72 29 83 99 100 100 67 5 36 11 24 5 5 32 87 100 100 94 94 100 100 100 95 100 100 95 53 34 42 26 16 5 5 5 10 24 6 5 1
100 100 100 100 98 58 81 100 100 100 100 100 94 100 100 100 60 84 73 43 5 83 53 5 5 5 5 5 20 100 100 100 88 95 92 100 100 98 93 76 97 98 99 89 7 5 15 18 12 12 6 5 5 8
100 100 100 100 100 100 82 100 100 100 93 91 96 92 96 87 28 74 6 4 22 100 98 6 5 0 0 2 62 63 93 100 100 100 94 100 98 60 56 90 61 5 5 5 5 5 8 6 5 5 5 8 22 24
100 100 100 91 60 98 88 89 86 95 87 44 89 100 100 100 47 5 5 5 6 99 100 23 5 4 3 8 96 100 90 97 100 100 100 68 100 100 93 63 5 15 5 5 7 14 18 24 22 37 27 8 5 5
100 98 91 36 46 68 6 64 88 44 83 100 100 100 100 97 40 6 5 2 5 75 100 89 2 5 5 31 100 100 100 100 100 100 100 100 100 100 92 90 62 19 7 5 5 8 11 21 26 28 10 9 58 99
82 30 32 13 11 6 43 64 95 100 92 100 100 100 100 65 27 5 5 0 1 22 95 90 14 0 0 12 100 100 100 100 100 100 100 100 100 100 100 100 100 95 91 100 94 70 44 20 49 78 95 93 70 76
19 5 54 69 78 94 100 100 100 100 100 100 100 100 69 6 32 12 3 4 5 4 35 79 6 5 5 5 99 100 100 100 100 100 100 99 98 100 100 100 100 100 86 99 100 100 99 98 100 84 42 41 60 85
93 69 99 100 100 100 100 100 100 100 100 100 77 27 36 4 4 3 3 3 4 5 5 9 5 5 5 5 87 100 100 100 100 100 100 100 100 100 100 100 100 100 100 97 68 52 44 43 22 37 57 44 64 89
75 100 100 100 100 99 100 99 54 90 42 9 5 3 2 0 3 2 3 1 3 0 0 0 0 0 0 0 60 95 99 100 100 100 100 100 100 100 100 100 100 100 100 68 38 11 20 20 59 86 64 37 67 85
100 100 93 19 18 7 20 31 5 2 4 5 5 16 0 0 0 0 0 0 0 0 0 0 0 0 4 1 12 96 99 85 100 100 100 99 100 97 67 54 52 52 32 9 14 71 76 64 71 85 80 70 67 91
100 100 100 66 37 29 8 5 5 5 5 5 5 9 5 4 3 0 0 0 0 0 0 0 0 0 3 5 78 36 61 23 38 68 58 33 12 6 5 5 5 5 17 58 85 89 86 95 85 87 85 64 25 20
90 93 90 74 24 10 54 94 50 33 34 6 5 5 2 3 3 1 7 34 10 6 5 5 5 5 5 5 14 12 5 5 16 36 25 23 23 15 43 54 78 80 80 94 84 95 91 89 87 84 82 80 60 29

GFSWCAN_prec_cloud_042.txt.gz
Cloud_Cover
100 100 80 49 5 1 5 1 5 5 5 5 5 43 90 14 40 88 96 100 100 69 81 84 72 100 100 100 100 100 100 99 100 99 96 82 24 5 37 100 86 22 56 91 88 100 100 100 93 82 100 100 100 100
100 100 31 5 54 3 5 5 5 99 95 9 5 25 10 5 5 85 100 100 100 100 11 86 90 100 100 100 100 100 100 100 100 100 48 82 87 97 33 26 87 100 35 64 78 89 100 91 100 100 91 98 71 99
100 100 57 22 32 5 5 5 23 100 100 100 91 93 85 6 10 65 100 97 100 96 5 84 100 98 100 100 100 100 100 100 100 100 100 100 100 73 66 60 97 12 88 99 52 44 56 98 100 68 94 62 70 99
100 98 100 91 5 2 5 6 94 100 100 100 66 58 100 81 92 95 97 50 93 90 76 86 100 100 100 100 100 100 100 100 100 100 97 98 100 100 90 70 88 66 69 39 94 86 74 89 68 100 99 70 76 84
92 100 99 64 6 5 5 7 8 55 23 8 5 45 99 79 50 94 45 89 81 100 100 100 100 100 100 100 100 100 100 100 100 100 100 100 100 100 74 82 18 100 78 8 54 44 73 100 99 74 83 100 100 100
100 29 100 37 5 4 24 5 5 5 5 13 9 84 13 5 5 5 79 98 100 99 100 100 100 100 100 100 100 100 100 100 100 100 100 100 100 71 100 79 93 100 100 45 5 5 17 86 100 100 79 84 86 100
100 100 89 6 5 63 58 6 5 5 6 6 5 6 5 5 5 78 98 98 98 100 100 100 100 100 100 100 100 100 100 100 100 96 84 61 84 79 100 55 100 100 100 72 10 14 12 81 64 67 100 100 100 96
100 100 97 58 5 5 100 5 5 5 5 5 5 5 5 58 18 88 95 100 100 100 100 100 99 100 100 100 100 92 86 77 80 31 5 5 5 36 29 57 100 100 100 100 78 52 35 15 65 44 79 98 77 78
100 100 85 33 5 8 30 5 5 5 5 5 5 3 40 13 87 93 100 100 100 100 100 100 100 100 100 100 100 93 91 58 44 75 17 12 45 60 5 100 100 100 100 100 100 72 6 5 19 23 21 60 66 59
100 100 100 100 98 52 34 11 5 5 5 5 5 5 96 5 99 100 100 100 100 100 100 100 100 100 100 100 100 90 99 100 99 67 76 96 87 89 95 100 100 100 100 100 100 100 76 98 86 8 15 57 20 41
100 100 100 100 100 50 20 5 5 5 5 6 6 89 5 5 65 100 100 100 100 100 100 100 100 100 100 100 100 93 97 95 93 98 100 100 100 100 100 100 100 100 96 100 100 100 100 100 98 80 65 100 100 100
100 97 100 100 100 48 71 10 5 5 5 8 13 7 32 78 66 92 100 100 100 100 100 100 100 100 100 100 100 100 100 100 100 100 100 100 100 100 100 100 100 100 100 100 100 100 100 100 100 100 100 100 100 100
100 100 100 100 86 91 100 5 5 5 4 4 11 27 14 24 12 6 100 100 100 100 100 100 100 100 100 100 100 100 100 100 100 100 100 100 100 100 100 100 100 100 100 100 100 100 100 100 100 100 48 54 66 86
100 100 100 100 100 100 17 76 5 5 5 5 6 0 5 5 5 5 5 96 100 100 100 100 100 100 98 100 100 100 100 100 100 100 100 100 100 100 100 100 100 100 100 100 100 100 100 100 100 88 43 87 94 97
100 100 100 100 100 96 99 31 5 5 5 5 5 2 5 4 5 6 85 19 75 100 100 100 100 100 100 100 100 100 100 100 100 100 100 100 100 100 100 100 100 100 100 100 100 100 100 98 77 93 86 97 93 89
100 100 100 92 74 99 100 31 11 5 22 5 5 5 4 6 18 10 15 14 7 71 100 100 100 100 100 100 100 100 100 100 100 100 100 98 100 100 100 100 100 100 100 100 100 100 100 94 68 100 100 100 100 99
100 100 100 100 95 100 100 18 9 24 5 5 5 5 5 5 5 5 0 2 5 5 57 100 100 100 100 100 100 100 100 100 100 100 100 100 98 82 100 100 100 100 100 100 100 100 100 100 94 100 100 100 100 100
100 100 100 96 94 96 7 33 14 5 5 5 7 12 5 0 2 2 5 5 5 8 86 69 100 100 100 100 100 100 100 100 100 100 100 100 100 100 100 100 100 100 100 100 100 100 100 100 100 100 100 100 100 100
100 100 100 90 61 13 26 48 84 96 14 16 15 8 5 5 5 4 5 5 21 82 84 100 100 100 100 100 100 100 100 100 100 100 100 100 100 100 100 100 100 100 100 100 100 100 100 100 100 100 100 100 100 100
100 100 100 100 63 13 5 44 48 28 72 75 8 6 5 5 5 35 36 5 88 100 100 100 63 8 82 100 100 100 100 100 100 100 91 100 100 100 100 100 100 100 100 100 100 100 100 100 100 100 100 100 100 100
100 100 100 100 100 30 100 80 68 64 96 14 40 8 38 36 100 100 99 100 100 100 52 6 12 92 45 92 100 100 100 100 100 100 100 100 100 100 100 100 100 100 100 100 100 100 100 100 67 59 47 25 12 6
100 100 100 100 65 86 100 99 92 96 84 33 59 91 72 99 94 97 99 100 100 9 5 5 5 62 97 7 13 43 100 100 100 100 98 68 94 100 100 100 100 100 97 92 84 91 88 26 14 8 10 13 6 5
100 100 100 97 98 75 75 46 100 100 100 96 100 100 100 100 88 84 92 12 76 36 5 5 5 15 100 56 5 5 5 10 59 81 90 99 100 100 100 100 99 100 94 89 86 73 80 100 91 42 5 5 6 27
100 100 100 90 97 88 72 70 83 100 100 100 100 85 60 34 27 91 58 6 84 69 5 5 5 97 82 94 5 5 5 5 45 91 74 75 100 99 100 100 95 100 100 100 89 65 77 88 44 19 22 35 10 34
100 100 99 100 98 100 97 100 100 100 100 100 100 46 29 65 78 68 11 6 100 64 5 5 5 15 99 100 48 5 5 5 5 96 94 98 100 100 99 99 50 26 77 100 96 85 77 12 5 5 37 47 5 5
100 98 86 73 76 100 100 100 99 94 72 80 35 21 37 68 88 42 5 77 100 18 5 5 5 5 34 76 88 24 5 5 69 100 100 92 80 98 85 100 98 63 51 100 100 97 58 5 5 5 5 5 5 5
91 94 80 58 100 99 48 12 5 44 58 100 50 82 99 100 81 30 71 100 100 85 14 32 5 5 22 60 19 5 5 5 82 100 100 100 98 98 100 98 100 92 67 78 98 98 78 73 11 9 10 8 37 50
80 100 100 100 62 20 5 47 98 98 100 100 100 100 100 76 18 48 99 100 100 100 94 6 5 5 5 8 96 48 5 5 94 100 100 100 100 100 100 100 100 90 83 67 100 100 72 62 87 100 100 100 71 71
100 91 34 93 66 84 84 100 100 98 100 100 99 20 5 5 5 28 66 98 98 21 5 5 0 5 4 6 20 24 42 26 49 100 100 100 100 100 100 100 100 100 89 88 100 100 100 100 97 87 58 35 25 15
95 19 28 67 100 100 100 100 15 5 30 62 28 5 6 76 100 100 94 96 97 77 7 0 0 2 0 0 1 5 5 5 5 95 100 100 100 100 100 100 100 100 100 100 100 100 96 91 89 87 81 90 94 96
86 100 100 86 22 15 78 89 22 5 5 6 16 4 1 1 0 1 0 0 0 0 0 0 0 0 0 1 5 5 5 5 5 11 99 100 100 100 100 100 100 100 100 100 100 97 96 88 93 98 95 97 85 87
100 63 66 78 16 6 5 5 8 63 52 85 8 31 55 24 5 5 5 2 0 0 0 2 5 5 3 4 5 14 4 47 55 29 52 98 100 100 100 100 100 100 100 96 80 88 96 97 88 82 80 78 66 67
97 96 92 73 55 15 46 34 10 43 67 76 31 14 5 7 5 4 36 27 5 32 63 61 39 51 9 10 6 45 28 28 9 8 6 27 18 37 72 74 70 68 73 84 92 90 88 82 80 84 91 89 77 62

GFSWCAN_prec_cloud_045.txt.gz
Cloud_Cover
100 100 100 95 91 85 11 8 40 15 32 10 5 5 5 5 5 6 79 79 74 68 48 56 32 92 100 80 100 100 100 100 100 98 100 99 83 36 5 5 6 77 100 58 70 98 92 86 78 100 95 68 90 100
100 100 100 100 100 70 19 12 5 99 100 100 82 5 34 5 12 9 69 100 100 100 15 36 50 62 100 100 84 95 100 100 100 100 100 100 100 87 20 68 5 47 17 99 100 93 60 82 56 72 100 100 100 97
100 100 100 100 90 7 5 19 19 94 100 35 11 9 6 10 21 55 99 40 86 97 61 98 95 100 100 100 100 100 100 100 100 100 100 100 100 94 72 99 50 52 5 7 39 99 73 100 38 56 46 32 90 99
100 100 100 100 98 12 34 68 5 14 19 5 5 5 46 49 8 10 77 80 92 92 99 100 100 100 100 100 100 100 100 100 100 100 100 100 99 99 92 72 43 97 62 100 88 12 71 93 98 82 57 9 5 7
100 100 100 100 86 15 60 26 5 5 5 5 5 11 71 6 5 5 30 51 55 45 98 100 100 100 100 100 100 100 100 100 100 100 100 100 100 100 100 89 72 90 100 99 100 73 90 79 100 30 61 52 8 21
100 100 100 100 100 73 6 69 5 5 5 5 5 98 5 5 2 7 44 29 5 9 45 100 100 100 100 100 100 100 100 100 100 100 100 100 100 97 63 71 99 99 100 100 61 95 100 100 100 54 71 24 26 38
100 100 100 100 99 99 95 18 76 5 5 9 10 5 5 2 5 5 28 100 82 58 94 99 100 100 100 100 100 100 100 100 100 100 100 100 100 99 54 28 100 80 98 58 77 100 93 100 100 78 61 93 82 86
100 100 100 100 100 99 100 75 23 5 5 5 5 5 5 5 7 8 8 97 100 90 88 100 100 100 100 100 100 100 100 100 100 100 100 87 6 51 9 13 25 97 100 89 100 100 89 71 100 100 91 27 81 80
100 100 100 100 100 95 97 34 73 9 5 5 5 5 4 3 38 61 56 96 100 100 100 100 100 100 100 100 100 100 100 100 100 44 16 21 31 91 77 3 0 98 100 100 100 100 100 100 97 100 100 62 83 33
100 100 100 100 99 100 99 82 33 95 33 5 5 5 8 5 5 23 100 100 99 100 100 100 100 100 100 100 100 100 100 100 91 5 52 69 68 94 29 63 96 99 100 100 100 100 100 100 100 100 100 100 82 6
100 100 100 100 100 100 100 100 100 98 5 5 5 16 5 5 44 61 97 47 99 58 90 93 100 100 100 100 100 100 100 98 89 74 88 74 100 100 99 100 100 100 100 100 91 98 100 100 100 100 100 99 90 100
100 100 100 100 100 100 100 100 100 100 40 17 13 5 11 50 65 35 63 57 29 100 99 97 100 100 100 100 100 100 100 100 89 100 99 100 100 100 100 100 100 100 100 100 100 100 100 100 100 100 100 100 100 100
100 100 100 100 100 100 100 100 83 10 85 6 5 6 5 6 2 4 5 5 6 22 88 99 86 100 100 100 100 100 100 100 100 100 100 100 99 100 100 100 100 100 100 100 100 100 100 100 100 100 100 100 100 100
100 100 100 100 93 100 96 100 100 100 56 6 12 6 21 23 5 6 5 5 5 29 26 55 100 100 100 100 100 100 100 100 100 100 100 100 100 100 100 100 100 100 100 100 100 100 100 100 96 98 100 100 100 94
100 100 100 100 100 100 100 100 88 79 5 21 5 5 5 5 49 51 100 34 7 23 42 27 83 100 100 100 100 100 100 100 100 100 100 100 100 100 100 100 100 100 100 100 100 100 100 100 100 100 100 100 99 83
100 100 100 100 100 100 100 97 81 35 73 9 81 56 8 18 30 67 91 63 16 6 22 62 72 66 100 100 100 100 100 100 100 100 100 100 100 100 100 100 100 100 100 100 100 100 100 100 100 100 100 100 100 100
100 100 100 100 100 100 100 100 65 100 82 99 100 68 52 68 8 36 6 6 4 5 46 60 38 16 42 100 100 100 100 100 100 100 99 100 100 100 100 98 100 100 100 100 100 100 100 100 100 96 82 94 94 100
100 100 100 100 100 100 100 100 100 100 100 100 100 65 84 5 5 5 5 5 6 8 5 28 54 89 80 94 100 100 100 100 100 100 100 100 100 100 100 100 100 100 100 100 100 100 100 100 100 100 83 98 100 100
100 100 100 100 100 100 100 97 100 100 100 100 81 98 87 12 12 5 5 5 5 29 78 90 100 90 5 5 75 100 100 100 100 100 100 100 100 100 100 100 100 100 100 100 99 100 100 100 96 93 97 96 100 98
100 100 100 100 100 100 100 99 100 100 100 90 36 69 66 26 10 24 10 15 99 100 100 100 26 5 5 5 12 51 100 100 100 100 100 29 99 100 100 100 100 100 100 100 100 99 97 95 98 99 100 100 97 97
100 100 100 100 100 100 100 100 100 99 84 80 62 62 30 64 61 87 39 23 98 100 96 50 22 5 5 5 5 5 42 100 100 100 100 100 100 100 100 100 100 100 100 100 100 100 100 100 100 100 100 100 100 100
100 100 100 100 100 100 97 94 97 72 51 54 73 86 75 59 83 67 66 99 99 100 100 68 24 5 5 5 4 5 73 62 98 100 100 100 98 92 100 100 100 100 100 100 100 100 100 100 100 100 100 100 81 48
100 100 100 100 100 100 59 72 100 100 94 33 65 44 32 80 57 87 94 73 7 88 100 100 99 100 66 7 5 6 97 98 30 92 100 100 100 90 47 66 97 100 100 98 100 100 99 99 100 100 76 68 76 70
100 100 100 100 64 86 70 95 97 96 94 87 99 91 6 55 92 97 94 80 5 5 100 100 100 100 100 98 47 6 97 100 93 40 73 100 100 100 100 100 97 87 67 100 99 100 100 100 100 96 80 58 64 57
100 100 99 83 92 62 100 99 100 99 96 72 99 77 21 67 80 99 49 3 10 6 8 90 7 81 100 93 98 41 80 100 100 67 5 6 52 99 100 100 100 100 84 100 81 100 90 17 54 68 98 97 97 90
100 84 83 69 83 96 99 97 99 67 72 92 73 44 60 89 98 45 10 5 13 100 100 87 100 100 100 98 94 45 100 100 100 97 26 5 64 100 100 100 100 99 97 100 100 94 83 5 48 68 84 100 66 87
94 81 80 69 100 87 88 46 7 35 100 85 41 92 76 93 31 5 6 21 89 100 100 100 100 100 96 97 98 82 36 100 100 100 52 10 52 100 100 100 100 99 96 99 94 83 64 47 55 82 100 65 74 73
90 95 81 85 68 53 5 69 70 82 40 73 32 86 99 12 5 27 80 96 100 100 100 100 100 100 100 100 49 4 5 7 69 98 77 6 5 100 100 100 100 95 90 91 91 100 92 80 72 59 60 84 73 15
92 99 97 99 98 100 99 100 27 71 100 72 83 52 23 4 5 11 57 96 90 98 34 48 99 100 100 100 100 77 5 23 5 12 6 5 3 79 95 100 100 98 100 99 99 98 85 86 92 92 100 97 85 78
90 100 98 92 94 100 100 96 91 80 20 5 54 5 1 3 1 4 5 8 12 66 75 77 79 83 76 54 5 7 46 5 5 5 5 5 3 88 69 49 100 100 100 100 100 100 100 100 100 100 100 100 100 100
24 74 66 71 51 96 93 22 57 5 4 5 43 4 0 0 0 0 0 0 0 0 0 0 0 1 5 5 5 5 4 5 5 5 5 44 6 38 59 98 100 100 100 100 100 100 100 100 99 96 98 100 100 96
94 77 76 98 39 5 24 5 30 50 17 74 6 66 58 9 35 0 4 5 0 0 0 0 0 0 4 5 9 5 2 4 7 31 7 83 67 22 60 79 96 100 100 100 100 100 100 98 100 100 100 95 80 76
100 97 99 86 69 24 31 6 30 54 74 84 43 12 13 9 5 5 32 52 26 13 62 43 27 22 47 24 49 67 35 28 41 5 5 8 76 50 72 60 67 85 96 100 100 99 100 100 99 93 88 83 75 71

GFSWCAN_prec_cloud_048.txt.gz
Cloud_Cover
100 91 72 98 86 46 59 98 5 42 6 5 15 5 5 5 5 5 6 22 49 70 9 5 5 18 95 33 97 100 96 100 100 100 95 78 55 21 5 14 5 6 100 81 98 100 50 84 51 40 46 92 36 100
100 94 98 100 100 100 100 20 9 23 8 20 5 10 74 96 98 5 91 98 70 22 23 5 5 5 66 90 83 99 100 100 100 100 100 100 100 52 76 40 5 8 5 5 87 100 100 98 88 82 97 97 100 100
100 100 90 100 100 100 98 96 31 24 98 11 5 5 6 18 14 5 11 22 89 98 5 5 8 89 42 58 77 92 100 100 100 100 100 100 100 100 100 100 67 96 45 98 40 53 100 100 100 100 83 64 99 100
83 86 100 100 100 100 99 100 18 7 10 35 3 36 50 98 51 5 5 27 97 93 25 36 32 99 100 100 100 98 100 100 100 100 100 100 94 99 99 97 45 100 95 82 97 35 5 86 100 100 100 69 65 64
100 100 100 100 100 100 100 81 54 42 15 4 5 5 63 5 19 5 4 10 5 6 75 39 58 100 100 100 100 100 100 100 100 100 100 100 100 100 100 100 100 100 100 100 100 97 69 11 47 97 100 84 70 61
100 100 100 100 100 69 100 100 93 100 5 5 5 9 5 5 1 9 8 5 5 5 70 87 35 78 100 100 100 100 100 100 100 100 100 100 100 100 100 98 100 98 100 100 100 96 87 100 91 13 30 100 100 84
100 100 100 100 100 100 100 95 92 35 91 1 4 7 0 5 5 9 6 5 5 5 10 77 46 40 92 100 100 100 100 100 100 100 100 100 100 100 100 99 100 33 5 13 67 88 78 95 100 100 100 90 49 96
100 100 100 100 100 100 100 100 100 10 5 4 5 0 2 5 5 9 5 36 56 18 5 31 12 11 42 85 100 100 100 100 100 100 100 100 100 100 100 100 61 5 2 11 91 100 100 94 96 100 100 100 100 39
100 100 100 100 100 100 100 100 100 100 5 5 5 1 2 3 5 5 77 90 98 51 23 14 94 82 85 93 100 100 100 100 100 100 100 100 92 99 93 99 5 18 44 5 98 100 100 95 100 100 100 100 100 100
100 100 100 100 100 100 100 100 100 84 5 5 5 5 6 5 5 30 100 96 94 98 26 13 50 49 98 100 100 100 100 100 100 100 99 96 46 96 100 70 30 98 100 100 100 100 100 100 100 100 100 100 100 100
100 100 100 100 100 100 100 100 100 91 35 92 5 6 5 5 42 85 100 56 65 6 79 62 94 95 72 100 100 100 100 100 100 100 100 72 91 100 100 100 100 100 100 100 100 100 100 100 100 100 100 100 100 100
100 100 100 100 100 100 100 100 100 100 100 13 30 5 5 21 51 26 84 33 24 5 42 93 41 26 46 97 100 100 100 100 100 100 100 100 100 100 100 100 100 100 100 100 100 100 100 100 100 100 100 100 100 100
100 100 100 100 100 100 100 100 100 76 48 12 13 10 5 7 5 14 30 2 11 6 13 28 26 9 69 92 100 100 100 100 100 100 100 100 100 100 100 100 100 100 100 100 100 100 100 100 100 100 100 100 100 100
100 100 100 100 100 100 100 100 100 94 49 5 19 51 26 18 32 6 8 5 5 69 19 43 100 53 40 78 93 100 100 100 100 100 100 100 100 100 100 100 100 100 100 100 100 100 100 100 100 100 100 100 100 100
100 100 100 100 100 100 100 100 100 52 29 24 6 92 98 90 51 72 98 64 8 32 48 44 81 69 92 86 44 99 100 100 100 100 100 100 100 100 100 100 99 100 100 100 100 100 100 100 100 100 100 100 100 100
100 100 100 100 100 100 100 100 100 97 88 7 58 100 65 35 7 97 98 72 16 9 20 42 91 98 98 100 100 48 100 100 100 100 100 100 100 100 100 100 83 97 100 100 100 100 100 100 100 100 100 100 100 100
100 100 100 100 100 100 100 94 100 100 80 99 100 93 94 73 5 33 7 6 5 5 13 60 76 9 85 100 96 31 38 100 100 100 100 100 100 100 100 100 100 100 100 100 100 100 100 100 100 100 100 100 100 100
100 100 100 100 100 100 100 100 100 100 100 100 100 100 53 6 5 5 5 5 6 10 5 32 95 99 86 99 56 75 66 86 100 100 100 97 100 100 100 100 100 100 98 95 100 100 100 100 100 100 100 100 98 95
100 100 100 100 100 100 100 100 100 100 100 100 100 99 50 19 7 5 5 5 5 5 8 74 97 84 10 8 5 65 67 78 39 100 100 99 87 100 100 100 100 100 100 100 100 100 100 100 100 100 100 100 100 81
100 100 100 100 100 100 100 100 100 100 100 100 100 97 92 47 31 41 11 10 86 82 100 100 50 5 5 5 8 7 5 5 5 36 100 100 69 92 100 100 100 100 100 100 100 100 100 100 100 100 100 100 100 100
100 100 100 100 100 100 100 100 100 100 100 100 62 88 100 60 84 87 76 39 94 89 42 92 8 5 5 34 5 5 5 5 5 5 55 100 100 52 100 100 100 100 100 100 100 100 100 100 97 100 98 100 100 100
100 100 100 100 100 100 100 100 100 100 100 96 100 99 92 45 72 99 85 97 97 65 98 11 5 5 37 30 6 88 100 83 22 5 5 95 100 96 90 100 100 100 100 100 93 97 100 100 100 100 100 100 100 99
100 100 100 100 100 100 100 100 100 100 100 99 89 75 43 77 81 89 99 59 23 49 5 5 5 5 5 41 100 100 100 100 83 5 5 27 100 100 100 80 100 100 100 100 100 100 100 95 99 95 100 100 100 100
100 100 100 100 100 100 100 100 100 100 97 89 99 100 15 64 98 96 96 5 2 8 28 5 5 5 5 96 100 100 100 100 100 52 8 98 100 100 100 88 59 98 100 100 100 100 100 89 70 78 86 89 83 36
100 100 100 100 100 100 100 100 99 93 97 95 100 77 31 91 57 99 50 0 4 5 4 14 45 29 65 100 100 100 100 100 98 55 67 69 100 100 100 100 100 90 97 100 94 93 98 85 100 92 9 5 5 5
100 100 100 100 100 100 97 99 100 87 95 97 87 36 80 85 99 52 5 5 5 5 5 84 99 98 100 100 100 100 100 100 45 7 100 31 100 100 100 99 100 100 100 100 98 95 88 91 86 61 42 9 15 5
100 100 100 100 100 92 88 72 76 73 100 85 68 96 96 91 47 5 5 5 5 5 22 84 100 100 100 100 100 100 100 98 70 5 66 100 100 90 94 59 54 87 99 100 96 74 77 76 84 85 80 55 47 9
100 100 100 95 96 87 75 84 77 84 13 14 36 83 18 10 5 5 5 5 5 5 11 85 73 95 100 100 100 100 100 65 34 42 19 92 100 98 29 72 5 99 99 100 99 92 72 63 45 54 56 42 64 63
100 100 96 96 100 98 33 96 10 5 4 5 5 5 5 5 5 4 2 4 6 5 5 0 32 53 5 63 94 100 100 100 38 5 5 15 100 100 6 52 16 62 100 100 87 87 68 62 72 67 62 77 90 92
97 56 64 91 84 82 100 19 5 5 22 5 5 5 3 2 0 3 3 1 42 2 0 0 0 2 0 0 3 26 53 27 69 10 5 5 39 99 89 46 60 52 98 100 100 87 93 98 96 89 87 96 97 88
52 76 86 81 61 28 5 28 54 5 21 17 63 19 0 0 0 0 0 0 0 0 0 2 0 4 5 4 5 5 5 19 5 5 5 30 55 58 27 5 31 68 68 98 100 100 100 100 98 91 96 94 100 100
90 73 83 100 57 5 11 40 65 60 32 76 6 60 38 8 5 5 6 11 5 5 2 2 4 2 54 82 63 67 9 28 45 5 5 36 70 66 67 60 71 67 59 54 100 100 100 100 100 100 100 100 96 96
99 100 99 96 89 49 5 6 15 41 45 86 10 12 6 7 5 4 46 38 10 22 59 74 90 100 70 90 71 48 46 51 72 18 6 5 14 50 74 69 66 56 12 56 60 80 100 100 99 98 100 98 89 84

GFSWCAN_prec_cloud_051.txt.gz
Cloud_Cover
100 100 100 86 79 100 54 49 75 58 100 100 100 16 14 5 5 5 5 84 6 69 8 5 5 5 5 5 5 63 90 95 97 81 81 98 85 50 5 5 5 5 52 93 100 100 99 87 72 76 70 80 53 25
100 100 100 88 90 50 50 100 90 100 100 86 30 87 5 26 5 5 9 75 100 5 5 5 5 5 5 92 71 82 98 100 100 100 100 96 100 50 5 5 5 5 5 28 10 96 100 53 69 40 62 78 98 89
100 100 100 100 80 19 5 38 100 100 100 100 88 16 6 87 5 5 14 32 96 21 5 5 10 5 5 84 56 87 100 100 100 100 100 100 100 100 95 100 100 100 51 96 32 6 10 69 95 71 75 24 49 93
100 100 100 100 62 98 100 100 100 100 94 100 97 100 42 45 5 5 4 29 88 64 5 5 21 29 55 22 100 98 100 100 100 100 100 100 100 100 100 100 100 100 79 88 71 77 5 5 6 78 71 62 61 49
100 100 100 84 100 100 100 100 100 100 72 100 100 100 74 92 5 5 3 6 6 32 8 5 7 72 10 20 93 90 100 100 100 100 100 100 100 100 100 100 100 100 100 11 60 100 76 86 26 8 72 100 100 100
100 100 100 100 100 100 100 100 100 100 100 100 100 100 99 3 5 2 5 5 5 5 5 5 7 82 10 62 72 100 100 100 100 100 100 100 100 100 100 100 100 100 100 100 57 50 67 100 58 76 20 6 99 100
100 100 100 100 100 100 100 100 100 100 100 100 86 100 16 5 7 2 38 92 43 5 5 5 5 7 6 84 56 52 96 100 100 100 100 100 100 100 100 100 100 100 100 66 5 78 58 9 88 100 100 84 7 64
100 100 100 100 100 100 100 100 100 100 100 100 100 100 29 5 5 4 12 5 20 28 5 28 5 5 5 26 36 33 59 89 100 100 100 100 100 100 100 100 100 100 63 72 53 5 18 48 82 100 100 100 100 56
100 100 100 100 100 100 100 100 100 100 100 100 100 100 5 5 4 5 46 97 73 47 38 28 100 62 6 14 75 84 71 72 100 100 100 100 100 100 100 100 100 100 85 85 46 49 45 100 77 100 100 100 100 100
100 100 100 100 100 100 100 100 100 100 100 100 100 100 6 7 5 5 50 68 78 98 11 9 99 65 54 41 79 100 91 92 99 100 100 100 100 100 100 100 100 100 100 100 100 100 100 100 100 100 100 100 100 100
100 100 100 100 100 100 100 100 100 100 100 100 98 95 54 5 13 58 38 21 18 5 49 78 83 74 26 98 100 90 99 100 85 98 100 100 100 100 100 100 100 100 100 100 100 100 100 100 100 100 87 100 100 100
100 100 100 100 100 100 100 100 100 100 100 100 100 71 71 42 15 5 46 6 5 3 23 70 76 26 14 100 100 100 100 100 100 100 100 100 100 100 100 100 100 100 100 100 100 100 100 100 100 100 100 100 100 100
100 100 100 100 100 100 100 100 100 100 100 100 100 100 100 31 92 6 5 2 9 5 46 54 35 12 47 93 92 100 100 100 100 100 100 96 92 96 100 100 100 100 100 100 100 100 100 100 100 100 100 100 100 100
100 100 100 100 100 100 100 100 100 100 100 100 95 96 64 100 55 5 5 5 5 90 39 55 26 86 19 62 85 100 85 100 100 100 100 100 100 100 100 100 100 100 100 100 100 100 100 100 100 100 100 100 100 100
100 100 100 100 100 100 100 100 100 100 100 100 99 99 100 96 88 68 73 71 18 43 90 50 10 30 92 100 85 93 94 40 85 42 100 100 100 100 100 100 100 100 100 100 100 100 100 100 100 100 100 100 100 100
100 100 100 100 100 100 100 100 100 90 100 96 100 100 90 16 46 100 100 87 10 44 43 20 24 16 79 100 93 100 96 40 5 6 34 98 100 100 100 100 100 100 100 100 100 100 100 100 100 100 100 100 100 100
100 100 100 100 100 100 100 100 100 100 100 100 90 18 48 72 35 39 19 6 12 75 12 46 71 15 62 100 100 100 51 6 44 87 28 10 91 100 100 100 100 100 100 100 100 100 100 100 100 100 100 100 100 100
100 100 100 100 100 100 100 100 100 99 100 100 92 81 7 13 19 24 93 97 12 61 5 17 47 89 74 78 5 5 47 83 92 66 5 5 4 88 100 100 100 100 100 100 100 100 100 100 100 100 100 100 100 100
100 100 100 100 100 100 100 83 86 100 100 100 100 75 87 72 65 48 46 7 6 23 8 59 91 89 24 5 5 14 52 97 32 5 4 1 4 3 95 100 100 100 100 100 100 100 100 100 100 100 100 100 100 100
100 100 100 100 100 100 100 100 100 100 100 100 100 94 96 70 54 51 13 42 88 12 70 100 99 8 5 5 5 5 5 69 77 85 96 41 1 4 5 94 100 100 100 100 100 100 100 100 100 100 100 100 100 100
100 100 100 100 100 100 100 100 100 100 100 100 99 100 68 85 93 95 96 81 91 66 98 30 5 5 5 5 5 5 70 100 100 100 96 9 22 5 5 5 100 100 100 100 100 100 100 98 100 100 100 100 100 100
100 100 100 100 100 100 100 100 100 100 100 98 100 100 100 100 79 100 98 82 96 100 29 5 5 4 5 5 5 5 5 83 100 100 100 99 100 100 19 5 52 100 100 100 100 100 100 100 100 100 100 100 100 100
100 100 100 100 100 100 100 100 100 100 77 100 100 98 100 100 99 100 100 99 52 6 8 23 5 7 5 3 5 5 28 100 100 100 100 100 100 100 40 5 100 99 100 100 100 100 100 100 100 100 98 100 95 82
100 100 100 100 100 100 100 100 100 100 97 100 100 100 75 100 100 100 100 70 28 14 5 5 7 4 11 26 26 12 79 92 100 100 100 100 100 100 33 84 100 100 100 100 100 100 100 100 100 100 100 100 96 98
100 100 100 100 100 100 100 99 97 95 100 100 100 100 100 100 90 99 53 14 5 5 5 5 11 16 5 5 11 46 97 60 100 100 100 100 100 100 100 100 100 100 100 100 100 100 100 100 100 100 100 100 100 98
100 100 100 100 100 99 98 96 95 99 100 100 100 100 100 96 88 59 10 5 5 5 5 5 5 24 22 60 75 100 100 100 80 97 100 100 80 89 87 100 100 100 99 100 100 100 99 100 100 100 100 100 100 95
100 100 100 100 93 100 99 98 99 100 100 99 100 100 92 73 51 5 5 5 5 5 5 5 5 5 4 22 65 100 100 100 91 30 59 96 86 22 71 100 100 100 100 100 100 100 100 97 100 100 100 100 100 100
100 100 100 100 94 99 100 98 100 100 100 90 70 91 40 15 5 5 5 5 5 2 5 5 5 5 0 0 0 2 42 100 100 43 60 100 83 42 100 80 100 100 100 100 94 100 100 100 100 100 99 91 73 79
100 100 98 100 100 100 100 100 100 100 80 16 5 5 5 5 5 4 2 4 1 5 5 0 0 2 5 5 5 5 5 22 5 18 25 66 17 5 8 15 24 95 100 100 94 89 100 100 100 100 98 77 93 92
100 100 100 100 100 100 100 100 75 21 40 9 4 5 3 2 0 0 4 0 3 2 2 0 1 3 5 3 3 2 7 6 5 5 5 33 97 27 23 42 55 42 61 100 99 57 98 100 99 95 74 64 62 66
100 100 100 100 100 91 19 47 55 5 55 61 68 16 0 6 3 0 1 0 0 0 4 5 5 6 5 5 5 5 5 26 7 5 5 27 34 34 41 32 25 59 71 78 71 60 69 96 80 84 91 92 88 84
100 100 100 100 99 10 11 71 78 69 48 50 10 64 34 6 7 4 40 17 5 44 79 100 100 100 100 100 100 90 24 23 9 31 9 29 37 15 59 68 65 68 76 71 66 55 9 40 61 50 58 56 46 54
100 100 99 93 89 73 11 56 23 52 29 86 31 14 10 5 5 4 54 28 6 77 98 99 100 100 100 100 100 100 92 78 97 88 90 76 94 52 86 65 62 59 26 58 61 58 37 64 76 82 97 100 100 100

GFSWCAN_prec_cloud_054.txt.gz
Cloud_Cover
100 100 100 100 100 100 100 64 100 100 100 100 28 5 37 100 96 100 100 32 5 10 5 5 5 5 72 5 5 5 53 65 100 100 100 100 40 24 20 5 5 34 44 10 34 85 100 6 15 33 56 87 59 70
100 100 100 100 100 100 100 93 100 100 100 74 53 100 72 100 85 99 96 5 5 5 5 5 5 5 24 5 5 5 13 99 65 100 100 100 88 91 29 5 8 16 32 74 31 5 20 5 5 5 5 8 78 78
100 100 100 100 100 100 100 100 100 100 100 52 18 79 12 100 100 100 50 15 1 5 5 5 5 5 5 5 5 27 5 90 96 95 74 100 96 100 98 99 49 43 27 97 70 5 15 6 5 42 31 48 39 94
100 100 100 100 100 100 100 100 100 100 100 6 70 5 95 100 100 87 34 34 3 5 5 5 5 5 5 5 6 30 50 32 70 100 96 100 100 99 100 100 100 22 23 21 91 100 77 64 12 5 17 69 62 68
100 100 100 100 100 100 100 100 100 100 52 100 100 74 100 100 100 100 97 28 5 4 5 5 5 5 5 5 5 17 87 98 100 99 100 100 100 100 100 100 100 71 80 5 64 57 5 97 28 22 8 25 6 12
100 100 100 100 100 100 100 100 100 100 76 97 100 58 100 100 100 100 100 6 5 5 5 5 5 5 5 5 5 5 88 57 64 90 100 100 100 100 100 100 99 100 99 100 100 99 98 100 96 4 7 72 52 5
100 100 100 100 100 100 100 100 100 100 56 100 100 100 100 100 100 100 78 23 7 4 5 4 5 4 5 5 6 15 94 14 51 66 84 100 100 100 100 100 100 100 100 98 92 100 100 100 100 100 99 99 96 33
100 100 100 100 100 100 100 100 100 100 100 100 100 100 100 100 100 69 84 17 5 28 5 21 5 5 13 36 84 50 43 83 78 100 100 100 100 100 100 100 100 100 100 100 100 98 100 100 82 98 100 100 100 100
100 100 100 100 100 100 100 100 100 100 100 100 100 100 100 50 5 5 58 5 5 3 15 33 98 51 5 8 97 100 42 86 68 100 100 100 100 100 100 100 100 100 100 100 100 100 100 100 100 99 81 67 93 100
100 100 100 100 100 100 100 100 100 100 100 100 68 100 100 12 5 6 55 5 5 5 6 41 99 60 5 8 48 70 74 61 97 78 100 100 100 100 100 100 100 100 100 100 100 100 100 100 100 100 100 100 100 100
100 100 100 100 100 100 100 100 100 100 100 100 100 100 84 29 5 5 9 7 9 5 42 45 66 17 28 61 26 49 86 81 76 100 100 100 100 100 100 100 100 100 100 100 100 100 100 100 100 100 100 100 100 100
100 100 100 100 100 100 100 100 100 100 100 100 100 100 96 9 20 50 32 5 5 2 13 10 18 23 25 48 99 99 66 68 99 91 100 100 100 100 100 100 100 100 100 100 100 100 100 100 100 100 100 100 100 100
100 100 100 100 100 100 100 100 100 100 100 100 100 76 38 38 100 67 68 66 51 7 44 63 5 15 8 63 41 77 71 56 76 92 81 64 100 100 100 100 100 100 100 100 100 100 100 100 100 100 100 100 100 100
100 100 100 100 100 100 100 100 100 100 100 100 100 100 61 67 64 63 67 79 16 89 88 88 69 80 59 90 85 91 23 92 90 91 22 5 5 17 94 100 100 100 100 100 100 99 100 100 100 100 100 100 100 100
100 100 100 100 100 100 100 100 100 100 100 100 100 100 79 100 100 100 100 100 61 77 62 36 9 9 20 96 87 68 84 85 16 5 11 51 5 3 5 5 88 100 100 100 100 100 100 100 100 100 99 99 100 100
100 100 100 100 100 100 100 100 100 100 100 100 100 100 100 100 100 100 100 99 99 90 56 10 38 22 21 82 68 63 98 60 6 23 15 39 5 5 5 5 5 93 100 100 100 100 100 100 100 100 100 100 100 100
100 100 100 100 100 100 100 100 100 100 100 100 100 100 98 66 98 100 100 100 100 34 5 24 1 1 56 98 85 100 75 14 71 100 100 17 9 5 5 5 5 8 97 100 100 100 100 100 100 100 100 100 100 100
100 100 100 100 100 100 100 100 100 100 100 100 100 100 100 100 73 100 100 100 100 55 5 5 20 93 87 78 4 47 33 91 99 100 29 5 5 5 3 5 5 5 9 97 100 100 100 100 100 100 100 100 100 100
100 100 100 100 100 100 100 100 100 100 100 100 100 100 100 100 100 100 100 100 100 95 23 86 70 74 6 5 5 5 33 41 58 9 5 5 3 2 1 5 5 5 5 12 100 100 100 100 100 100 100 100 100 100
100 100 100 100 100 100 100 100 100 100 100 100 100 100 100 99 100 100 42 99 100 99 89 92 47 5 5 5 5 5 5 5 5 5 4 4 42 81 44 5 40 5 8 8 76 100 100 100 100 100 100 100 100 100
100 100 100 100 100 100 100 100 100 100 100 100 100 99 85 49 98 100 88 80 100 100 73 5 5 5 5 21 5 5 5 5 5 5 5 5 100 100 100 56 35 6 25 5 13 100 100 100 100 100 100 100 100 100
100 100 100 100 100 100 100 100 100 99 81 95 99 100 100 94 96 99 90 99 100 100 46 5 5 5 48 38 5 5 5 5 5 6 5 5 99 100 100 100 100 100 48 10 5 81 100 100 100 100 100 100 100 100
100 100 100 100 100 100 100 100 100 90 80 100 97 100 100 100 96 91 95 100 100 72 21 6 15 42 42 5 5 5 5 5 5 5 5 10 81 100 100 100 100 100 96 42 5 14 100 100 100 100 100 100 100 100
100 100 100 100 100 100 100 100 100 90 100 100 100 100 100 54 93 91 100 100 22 18 33 56 32 19 9 13 42 5 5 5 5 5 57 25 59 100 100 100 100 100 100 39 66 91 100 100 100 100 100 100 100 100
100 100 100 100 100 100 100 100 96 92 100 97 100 97 71 96 90 100 88 9 10 10 61 33 21 5 5 5 5 5 5 5 5 71 89 96 46 94 100 100 89 100 49 11 100 100 100 100 100 100 100 100 100 100
100 100 100 100 100 100 100 97 92 98 99 99 86 86 100 96 87 6 5 5 5 28 6 2 0 5 4 5 3 4 1 5 6 72 28 73 100 77 32 30 92 100 39 14 100 100 100 100 100 100 100 100 100 100
100 100 100 100 100 83 99 99 84 82 96 97 85 100 90 25 37 5 5 5 5 5 5 2 5 2 0 0 0 2 5 5 5 1 5 42 92 11 4 24 100 100 98 20 100 100 100 100 100 100 100 100 100 100
100 100 100 100 99 92 51 83 95 100 79 39 38 83 17 6 5 5 5 5 5 5 5 5 5 5 2 0 0 0 4 5 5 25 19 5 37 100 31 5 31 100 100 68 84 100 100 100 100 100 100 100 100 100
100 100 80 90 100 100 40 14 5 5 5 5 5 5 5 5 5 5 5 6 7 5 5 0 0 5 5 5 5 8 15 42 6 5 5 5 5 39 100 24 9 62 74 100 94 100 100 100 100 100 100 100 100 100
100 82 88 91 99 93 61 36 6 24 41 5 5 5 5 5 12 5 3 3 3 1 3 5 5 13 5 5 13 95 100 87 23 5 5 5 6 5 58 97 97 46 64 64 86 100 100 100 100 100 100 100 99 93
65 50 54 82 75 16 5 20 56 17 65 76 72 26 5 6 31 6 7 61 5 5 6 31 6 45 44 66 91 69 98 100 100 100 99 90 56 21 5 7 63 64 68 67 73 78 93 100 100 100 100 100 100 100
72 70 87 100 76 7 38 57 79 69 90 75 14 92 48 10 42 5 50 24 5 5 20 44 22 26 83 99 100 94 97 94 100 97 94 94 68 82 47 58 80 84 74 74 78 67 70 100 100 100 100 100 87 78
96 99 100 100 97 71 10 65 27 51 33 57 41 28 10 12 1 4 6 26 5 11 19 74 64 56 94 100 100 100 100 100 100 100 100 100 100 99 100 98 65 63 59 62 61 50 66 62 77 89 99 96 98 86

GFSWCAN_prec_cloud_057.txt.gz
Cloud_Cover
100 100 100 100 100 100 100 100 100 100 100 100 100 100 100 5 5 5 52 9 8 9 18 5 5 5 5 5 5 5 58 72 99 72 100 100 100 90 58 20 14 6 17 22 53 76 67 32 42 95 49 37 98 100
100 100 100 100 100 100 100 100 100 100 100 100 100 100 100 30 11 26 6 5 3 10 5 48 5 5 5 5 5 5 86 100 92 100 74 100 99 100 76 58 18 35 5 57 5 5 27 26 7 5 78 87 100 100
100 100 100 100 100 100 100 100 100 100 100 100 100 100 100 83 100 29 5 10 5 6 6 5 5 5 5 5 5 5 5 54 95 79 91 100 100 100 87 89 37 88 84 100 100 20 51 12 25 44 76 94 93 98
100 100 100 100 100 100 100 100 100 100 100 100 100 100 100 75 10 5 18 41 62 9 5 5 5 5 3 5 5 5 5 5 6 54 99 100 100 100 100 99 32 14 100 100 100 96 24 67 17 59 78 51 82 87
100 100 100 100 100 100 100 100 100 100 100 100 100 100 100 88 93 26 85 91 87 2 5 5 5 5 5 5 5 5 5 5 5 89 81 100 100 100 100 100 100 100 100 100 100 100 100 100 62 68 95 92 89 60
100 100 100 100 100 100 100 100 100 100 100 100 100 100 100 81 6 5 94 8 5 0 5 5 5 5 5 5 5 5 7 5 5 78 98 64 100 100 100 100 100 100 100 100 100 100 100 100 100 61 90 46 62 92
100 100 100 100 100 100 100 100 99 100 100 100 100 100 90 73 6 28 22 23 50 5 5 5 8 5 5 5 6 5 5 5 5 8 14 100 66 16 100 100 100 100 100 100 100 100 100 100 100 99 100 100 95 100
100 100 100 100 100 100 100 100 100 100 100 100 100 96 100 100 75 9 44 54 92 8 5 20 4 5 10 17 100 80 16 5 8 10 5 28 22 90 100 100 100 100 100 100 100 100 100 100 100 100 100 100 100 100
100 100 100 100 100 100 100 100 100 100 100 100 100 100 100 89 42 95 99 89 9 4 18 22 55 3 5 20 91 90 37 8 8 6 8 49 100 84 100 100 100 100 100 100 100 100 100 100 100 100 100 100 100 100
100 100 100 100 100 100 100 100 100 100 100 100 100 100 100 94 46 98 100 98 97 5 5 61 85 52 5 10 77 92 28 60 74 23 22 76 56 17 5 35 99 100 100 100 100 100 100 100 100 100 100 100 100 100
100 100 100 100 100 100 100 100 100 100 100 100 100 100 98 76 5 37 100 80 13 6 16 55 30 36 5 61 55 75 99 76 55 5 46 59 72 66 14 5 5 88 94 99 100 100 100 100 100 100 100 100 100 100
100 100 100 100 100 100 100 100 100 100 100 100 100 100 91 100 82 95 84 24 7 38 33 26 5 22 6 47 100 99 84 100 51 67 89 85 26 98 5 5 5 5 5 48 100 100 100 100 100 100 97 100 100 100
100 100 100 100 100 100 100 100 100 100 100 100 100 100 100 55 88 98 100 88 96 14 64 62 5 9 6 72 71 91 99 93 99 99 41 26 77 94 19 5 5 5 5 5 15 68 100 100 100 57 59 93 99 100
100 100 100 100 100 100 100 100 100 100 100 100 100 100 100 100 100 100 100 100 60 64 100 92 69 60 94 82 99 99 79 100 100 100 54 31 41 52 5 5 5 5 5 5 5 13 51 100 100 100 100 100 96 100
100 100 100 100 100 100 100 100 100 100 100 100 100 100 100 99 98 100 100 100 96 93 70 86 41 15 35 79 99 82 60 99 64 90 17 28 16 38 5 5 5 5 5 5 5 10 55 100 100 100 100 100 100 97
100 100 100 100 100 100 100 100 100 100 100 100 100 100 100 100 100 100 100 100 100 100 63 41 100 96 50 64 86 92 61 7 22 23 15 89 38 5 5 5 5 5 5 5 6 24 98 100 100 100 100 100 96 100
100 100 100 100 100 100 100 100 100 100 100 100 100 100 100 100 100 100 100 100 100 100 23 100 100 100 87 88 81 85 59 5 85 53 47 91 44 5 5 4 1 5 5 5 7 42 100 100 100 100 100 100 100 99
100 100 100 100 100 100 100 100 100 100 100 100 100 100 100 100 76 98 100 100 100 100 60 99 67 98 82 81 100 85 11 41 37 79 98 90 6 5 3 4 1 5 5 5 5 10 33 94 100 100 100 100 100 100
100 100 100 100 100 100 100 100 100 100 100 100 100 100 100 100 100 100 100 100 100 93 81 71 79 40 5 8 24 76 84 71 99 100 100 98 8 5 1 3 5 18 69 75 98 99 28 60 99 100 100 100 100 100
100 100 100 100 100 100 100 100 100 100 100 100 100 100 98 100 97 100 100 100 100 66 86 100 69 5 5 5 5 14 82 100 100 100 80 6 4 4 9 15 96 100 100 99 39 5 32 100 100 100 100 100 100 100
100 100 100 100 100 100 100 100 100 100 100 100 100 100 100 100 100 100 100 100 100 63 100 93 14 5 5 5 47 76 100 100 100 55 5 5 3 5 70 100 82 100 100 100 100 100 8 11 99 100 100 100 100 100
100 100 100 100 100 100 100 100 100 100 100 100 100 100 100 100 100 100 100 100 74 67 100 60 5 5 5 6 66 100 96 68 5 5 5 5 8 5 82 63 83 100 100 100 100 100 100 6 79 100 100 100 100 100
100 100 100 100 100 100 100 100 100 100 100 100 100 100 100 100 100 100 100 92 33 51 20 9 5 7 5 5 6 35 5 5 5 5 5 5 5 8 60 95 28 100 100 100 100 100 100 12 17 100 100 100 100 100
100 100 100 100 100 100 100 100 100 100 100 100 100 100 100 92 90 83 93 32 62 24 47 14 48 5 5 10 5 5 5 8 5 5 5 5 5 10 95 59 83 75 98 100 100 100 85 5 34 100 100 100 100 100
100 100 100 100 100 100 100 100 100 100 100 99 100 100 100 95 65 100 76 48 25 5 5 5 5 5 4 4 5 2 4 5 5 1 1 5 5 5 5 74 70 96 100 100 78 100 100 100 100 100 100 100 100 100
100 100 100 100 100 100 100 100 100 100 100 100 100 99 100 97 98 33 12 9 5 5 5 4 3 4 4 5 0 0 0 4 8 18 0 5 5 0 1 5 100 90 100 42 67 100 100 100 100 100 100 100 100 100
100 100 100 100 100 100 100 100 100 100 100 90 92 100 86 87 28 5 5 5 5 5 5 5 5 5 0 0 1 3 2 5 5 0 0 5 5 4 4 3 10 100 100 72 19 47 79 98 100 100 100 100 100 100
100 100 100 100 100 100 100 100 100 100 99 76 64 68 20 6 13 5 5 5 5 5 5 5 5 5 5 4 5 5 43 92 69 56 95 93 98 14 5 5 5 5 48 100 68 10 31 84 92 100 100 100 100 100
100 100 100 100 100 100 100 100 100 100 100 99 93 36 30 5 5 5 5 6 10 5 5 4 5 17 32 16 7 98 100 98 100 67 52 76 99 100 44 26 8 25 58 57 100 47 73 70 63 92 100 100 100 100
100 100 100 100 100 100 100 97 87 81 43 8 5 5 15 7 5 22 5 5 5 6 17 44 63 51 5 26 40 84 100 100 100 100 100 89 100 96 92 60 20 39 62 66 70 58 27 60 92 100 100 100 100 100
100 100 100 98 72 50 48 48 63 5 59 80 69 29 7 46 6 51 31 80 5 11 5 5 6 53 56 62 86 98 100 100 100 100 83 100 96 82 75 63 67 70 76 81 93 83 72 90 96 98 94 100 100 100
100 100 85 92 91 66 16 55 85 79 99 70 24 90 38 8 8 5 8 12 5 5 27 64 78 28 50 61 67 84 99 100 99 99 98 92 85 84 88 92 99 97 100 100 95 93 93 100 100 100 100 100 100 100
94 94 100 100 100 90 33 25 40 47 18 36 33 50 41 17 1 4 29 48 5 5 26 26 8 50 56 85 90 71 95 72 73 94 100 100 100 96 84 80 84 88 81 75 81 60 67 72 92 100 100 99 99 98

GFSWCAN_prec_cloud_060.txt.gz
Cloud_Cover
100 100 100 100 100 100 100 100 100 100 100 100 100 100 100 100 100 93 65 30 5 5 19 5 5 5 5 0 3 2 11 16 98 52 46 49 42 97 70 7 12 70 80 74 85 93 46 76 85 79 100 100 62 45
100 100 100 100 100 100 100 100 100 100 100 100 100 100 100 100 100 100 63 5 5 5 5 4 5 5 4 5 0 5 37 73 58 100 46 99 100 37 59 100 82 92 76 71 54 94 17 66 6 26 5 7 47 85
100 100 100 100 100 100 100 100 100 100 100 100 100 100 100 100 100 100 52 7 26 5 5 5 5 5 5 5 3 0 5 58 28 14 36 63 100 88 27 18 41 64 49 87 72 5 5 5 5 5 22 100 86 98
100 100 100 100 100 100 100 100 100 100 100 100 100 100 100 100 100 91 100 7 6 3 4 5 5 57 5 5 5 4 4 5 5 5 5 6 64 34 38 54 34 92 100 100 89 8 10 28 5 17 41 12 5 22
100 100 100 100 100 100 100 100 100 100 100 100 100 100 100 100 100 100 93 29 5 4 4 5 5 80 40 5 5 5 5 5 5 5 5 40 63 82 100 100 100 100 100 100 100 100 100 79 6 5 43 6 30 100
100 100 100 100 100 100 100 100 100 100 100 100 100 100 100 100 100 100 75 13 5 0 5 6 20 21 6 18 5 5 5 5 5 5 5 5 5 21 19 100 100 100 100 100 100 100 100 100 100 98 67 99 100 100
100 100 100 100 100 100 100 100 100 100 100 100 100 100 100 100 100 100 67 22 4 3 30 9 5 5 45 5 5 5 5 5 5 5 5 5 5 11 77 20 62 100 100 100 100 100 100 100 100 100 100 100 100 100
100 100 100 100 100 100 100 100 100 100 100 100 100 100 100 100 100 100 57 52 4 5 5 5 5 20 8 51 51 7 5 5 12 17 5 5 5 5 50 60 100 92 97 100 100 100 100 100 100 100 100 100 100 100
100 100 100 100 100 100 100 100 100 100 100 100 100 100 100 100 100 100 78 44 5 5 5 5 5 5 5 22 83 43 5 10 5 5 5 5 5 7 9 7 5 6 18 97 100 100 100 100 100 100 100 100 100 100
100 100 100 100 100 100 100 100 100 100 100 100 100 100 100 100 100 100 76 57 20 5 43 45 21 7 5 74 81 72 58 61 7 8 5 66 6 21 47 9 62 21 5 5 99 100 100 100 100 100 100 100 100 100
100 100 100 100 100 100 100 100 100 100 100 100 100 100 100 100 100 100 100 100 12 6 28 32 6 5 6 93 68 65 100 61 9 52 38 46 10 0 2 73 4 40 5 5 5 40 100 100 100 100 100 99 99 100
100 100 100 100 100 100 100 100 100 100 100 100 100 100 100 100 100 100 97 66 24 10 48 5 10 5 30 100 100 96 91 96 70 69 90 57 4 4 4 8 3 4 5 5 5 5 10 100 100 100 100 100 97 90
100 100 100 100 100 100 100 100 100 100 100 100 100 100 100 100 100 100 100 57 23 8 92 23 6 5 27 76 99 79 99 95 86 98 69 35 5 5 33 20 5 5 5 3 1 4 5 41 59 92 100 94 100 100
100 100 100 100 100 100 100 100 100 100 100 100 100 100 100 100 100 100 57 53 27 13 13 5 15 46 100 64 96 96 83 94 95 98 67 20 8 13 100 100 100 8 8 37 6 5 5 23 49 90 74 71 100 100
100 100 100 100 100 100 100 100 100 100 100 100 100 100 100 100 100 100 100 94 88 30 46 44 27 99 70 88 80 91 91 100 79 60 36 15 26 68 100 100 100 94 99 100 79 5 6 38 100 100 82 91 98 100
100 100 100 100 100 100 100 100 100 100 100 100 100 100 100 100 100 100 77 89 93 9 5 7 71 43 100 75 89 96 62 26 5 18 8 99 100 100 100 100 100 100 100 71 5 5 5 46 74 100 94 78 91 100
100 100 100 100 100 100 100 100 100 100 100 100 100 100 100 100 100 100 94 34 75 59 17 42 89 76 49 79 76 61 66 10 5 6 11 100 59 9 14 81 100 100 28 0 5 5 5 5 68 99 98 82 68 100
100 100 100 100 100 100 100 100 100 100 100 100 100 100 100 100 100 100 100 99 100 84 60 100 100 100 100 87 9 5 5 5 5 8 39 64 37 71 88 55 86 3 3 5 10 33 47 100 100 100 100 97 89 100
100 100 100 100 100 100 100 100 100 100 100 100 100 100 100 100 100 100 100 100 71 82 100 100 100 89 100 89 50 5 5 5 5 6 58 32 86 78 11 6 3 3 5 5 43 100 100 100 89 100 100 100 100 100
100 100 100 100 100 100 100 100 100 100 100 100 100 100 100 100 100 100 100 100 88 41 90 100 97 38 100 95 52 5 5 5 4 5 5 8 12 5 4 3 0 2 9 69 98 88 100 100 100 100 100 100 100 100
100 100 100 100 100 100 100 100 100 100 100 100 100 100 100 95 98 100 100 76 8 39 100 70 45 100 100 89 9 5 2 3 5 1 0 0 0 4 5 5 5 5 12 6 100 100 100 100 100 100 100 100 100 100
100 100 100 100 100 100 100 100 100 100 100 100 100 100 100 100 100 100 93 80 94 95 75 99 100 99 49 5 4 2 0 5 1 3 3 5 1 0 0 1 5 9 5 6 93 100 100 100 100 100 100 98 100 100
100 100 100 100 100 100 100 100 100 100 100 100 100 100 100 100 98 100 100 100 100 100 100 100 87 30 5 5 5 2 3 2 2 0 0 0 0 0 5 5 5 5 5 73 30 90 84 100 100 100 100 29 100 100
100 100 100 100 100 100 100 100 100 100 100 100 100 100 100 100 100 100 100 100 100 100 84 31 37 5 5 4 1 0 0 0 0 0 0 0 0 0 0 0 0 1 6 98 100 100 100 100 98 100 93 97 91 100
100 100 100 100 100 100 100 100 100 100 100 100 100 100 100 100 100 100 100 100 100 100 96 11 5 5 3 0 0 0 0 0 0 0 0 5 8 17 17 5 0 0 0 4 22 86 37 97 81 100 59 100 100 100
100 100 100 100 100 100 100 100 100 100 100 100 100 100 100 100 100 93 76 86 91 67 5 5 5 5 0 0 0 0 0 0 2 5 9 97 100 100 21 14 57 29 0 1 0 3 5 100 36 51 99 100 100 100
100 100 100 100 100 100 100 100 100 100 100 100 100 100 100 100 100 80 96 78 36 5 5 5 5 1 0 0 0 0 0 4 5 5 6 89 100 97 100 90 29 89 21 5 5 5 5 71 100 39 78 100 100 100
100 100 100 100 100 100 100 100 100 100 100 100 100 100 100 81 55 48 65 43 7 5 5 5 5 5 5 5 5 5 5 5 5 5 12 65 5 5 6 49 84 68 17 5 24 5 27 91 100 22 35 100 100 100
100 100 100 100 100 100 100 100 100 100 100 100 100 100 100 99 87 50 24 5 5 5 5 5 5 5 5 5 5 5 5 5 92 95 80 24 5 7 15 40 68 78 92 52 34 32 23 50 96 60 22 99 100 100
100 100 100 100 100 100 100 100 100 100 100 100 99 78 34 40 14 5 5 5 5 5 5 9 5 5 5 33 34 8 5 37 81 79 100 76 78 21 89 95 93 100 92 79 81 52 34 48 5 52 56 96 100 100
100 100 100 100 100 100 100 100 100 100 100 82 73 34 6 33 5 5 5 5 5 5 5 5 18 9 46 12 96 100 50 8 17 22 90 100 97 95 97 100 96 100 100 99 99 100 98 78 60 59 88 97 92 100
100 100 100 100 100 100 100 100 100 87 76 36 8 73 7 6 5 5 6 5 5 8 35 55 66 5 5 32 62 91 99 92 85 88 97 85 87 99 100 78 82 92 88 92 85 95 99 98 97 100 99 100 100 94
100 100 100 100 100 100 97 100 73 56 18 12 8 39 43 17 2 4 6 17 5 5 5 5 5 5 25 59 65 47 79 66 82 97 100 100 100 100 84 85 92 90 90 95 98 98 92 80 92 99 100 98 98 95

GFSWCAN_prec_cloud_063.txt.gz
Cloud_Cover
100 100 100 100 100 100 100 100 100 100 100 100 100 100 100 100 100 100 87 100 94 21 13 5 5 4 4 5 23 5 6 5 44 42 99 85 89 84 78 96 94 100 100 100 100 100 89 100 100 96 74 78 84 41
100 100 100 100 100 100 100 100 100 100 100 100 100 100 100 100 100 100 100 100 41 54 38 11 5 2 4 4 0 5 24 15 80 82 65 97 87 53 78 99 58 90 46 80 65 85 6 7 12 22 19 59 66 45
100 100 100 100 100 100 100 100 100 100 100 100 100 100 100 84 100 100 100 100 92 99 74 46 11 4 3 3 0 6 7 11 5 34 67 96 100 18 59 86 36 85 100 100 100 96 34 10 5 37 7 7 5 28
100 100 100 100 100 100 100 100 100 100 100 100 100 100 100 100 100 100 100 100 65 14 96 51 5 5 5 5 2 5 5 5 5 5 24 90 47 6 53 42 10 20 10 100 100 100 100 64 43 56 50 63 58 49
100 100 100 100 100 100 100 100 100 100 100 100 100 100 100 100 100 100 100 100 56 64 99 20 5 5 5 8 5 5 13 5 5 5 11 32 5 5 5 5 19 95 96 100 100 100 100 100 96 84 82 77 66 99
100 100 100 100 100 100 100 100 100 100 100 100 100 100 100 100 100 93 100 100 100 100 99 31 20 68 6 34 7 5 40 5 4 5 5 5 5 4 5 5 5 26 100 100 100 100 100 100 100 100 100 100 100 100
100 100 100 100 100 100 100 100 100 100 100 100 100 100 100 100 100 100 100 100 100 100 60 76 68 8 17 10 8 6 5 5 7 5 5 5 5 4 5 5 3 23 47 69 13 39 74 98 100 100 100 100 100 99
100 100 100 100 100 100 100 100 100 100 100 100 100 100 100 100 100 100 96 100 100 97 50 44 29 60 38 91 82 9 41 5 28 16 5 5 4 4 19 5 5 0 0 2 5 50 93 99 100 100 100 100 100 100
100 100 100 100 100 100 100 100 100 100 100 100 100 100 100 100 100 100 81 79 100 9 66 8 61 53 30 84 73 35 99 42 67 44 5 5 6 5 5 1 5 4 0 1 0 2 4 9 20 82 100 100 100 100
100 100 100 100 100 100 100 100 100 100 100 100 100 100 100 100 100 100 37 100 99 98 64 48 25 69 38 80 100 78 86 86 97 42 19 8 6 0 1 2 23 15 3 1 5 5 5 5 5 6 100 100 100 100
100 100 100 100 100 100 100 100 100 100 100 100 100 100 100 100 100 82 91 100 79 31 26 6 69 20 13 94 92 87 98 91 98 84 55 81 9 2 3 0 20 5 3 1 0 4 5 5 5 5 62 100 100 100
100 100 100 100 100 100 100 100 100 100 100 100 100 100 100 100 100 100 100 100 100 78 25 39 58 16 76 91 98 96 99 100 100 80 95 92 35 10 80 62 27 35 86 78 47 56 44 67 58 8 79 100 100 100
100 100 100 100 100 100 100 100 100 100 100 100 100 100 100 100 100 100 100 100 100 100 82 84 43 64 97 97 100 100 100 100 92 99 85 89 63 5 10 15 64 100 100 100 100 100 100 100 100 34 74 100 100 100
100 100 100 100 100 100 100 100 100 100 100 100 100 100 100 100 100 100 100 100 100 100 67 9 7 94 91 85 100 100 96 100 95 92 82 100 5 5 4 3 11 57 94 97 59 99 100 90 66 21 37 31 100 100
100 100 100 100 100 100 100 100 100 100 100 100 100 100 100 100 100 100 100 100 99 95 67 6 24 6 71 69 100 85 99 86 45 47 47 5 5 5 2 0 10 11 7 5 27 98 69 58 10 5 7 42 100 100
100 100 100 100 100 100 100 100 100 100 100 100 100 100 100 100 100 100 100 100 100 99 58 36 6 5 8 47 100 47 38 6 33 6 5 5 5 3 1 5 5 24 5 5 12 7 9 5 5 5 5 22 100 100
100 100 100 100 100 100 100 100 100 100 100 100 100 100 100 100 100 100 100 100 100 100 81 66 51 5 5 98 95 65 55 46 72 5 5 5 5 0 0 1 5 0 3 5 0 0 2 3 5 15 42 99 100 100
100 100 100 100 100 100 100 100 100 100 100 100 100 100 100 100 100 100 100 100 100 100 94 82 7 6 65 100 100 46 98 72 9 5 6 5 0 0 0 1 0 0 0 2 5 5 5 5 30 100 100 76 100 100
100 100 100 100 100 100 100 100 100 100 100 100 100 100 100 100 100 100 100 100 100 73 32 58 11 96 98 69 82 70 15 5 8 71 25 4 0 0 0 1 3 5 5 5 1 5 0 24 84 100 100 100 100 100
100 100 100 100 100 100 100 100 100 100 100 100 100 100 100 100 100 100 100 100 95 24 51 74 44 97 37 38 54 8 14 8 84 100 6 0 0 0 0 2 0 1 5 5 5 5 5 23 98 100 100 100 100 100
100 100 100 100 100 100 100 100 100 100 100 100 100 100 100 100 100 100 100 68 79 95 98 42 100 100 42 44 9 37 12 48 97 19 3 0 0 0 0 0 2 0 2 1 5 5 7 36 57 100 100 100 100 97
100 100 100 100 100 100 100 100 100 100 100 100 100 100 100 100 100 100 100 97 15 44 5 75 97 70 42 69 16 5 6 64 13 1 0 0 0 0 0 0 0 0 4 2 2 5 27 90 31 86 95 100 100 100
100 100 100 100 100 100 100 100 100 100 100 100 100 100 100 100 100 92 92 15 43 92 62 71 80 66 99 96 12 5 19 12 2 0 0 0 0 0 0 4 17 59 32 5 1 1 5 18 34 5 85 100 100 100
100 100 100 100 100 100 100 100 100 100 100 100 100 100 100 100 72 20 74 100 100 100 86 42 19 86 100 56 5 5 5 2 0 0 0 0 0 0 0 4 7 95 99 97 45 2 1 5 5 15 96 96 100 100
100 100 100 100 100 100 100 100 100 100 100 100 100 100 99 65 20 50 100 100 100 77 90 79 78 98 20 5 5 5 1 0 0 0 0 0 0 0 2 5 5 12 64 75 37 39 5 4 2 4 92 79 96 100
100 100 100 100 100 100 100 100 100 100 100 100 100 93 70 75 100 100 100 100 99 100 100 99 78 48 20 5 5 4 0 0 2 5 4 5 5 22 66 88 88 44 99 100 79 60 10 5 5 5 5 47 63 100
100 100 100 100 100 100 100 100 100 100 100 100 90 97 100 100 100 100 80 100 100 100 36 23 9 6 10 5 4 0 3 5 5 5 5 5 5 29 92 99 100 98 100 100 97 99 91 54 62 18 5 5 77 97
100 100 100 100 100 100 100 100 100 100 100 100 100 100 100 100 100 84 100 100 100 81 38 6 5 5 5 5 5 5 5 5 5 5 5 5 5 5 5 16 97 100 97 62 100 98 99 93 91 97 86 36 24 89
100 100 100 100 100 100 100 100 100 100 100 100 100 100 100 100 100 100 89 22 5 5 5 5 5 5 5 5 5 5 5 5 63 68 20 8 5 5 8 90 92 83 100 100 99 100 100 100 95 100 99 95 99 94
100 100 100 100 100 100 100 100 100 100 100 100 100 100 100 100 100 88 8 5 5 5 5 5 5 5 5 5 13 5 5 19 65 95 100 91 87 52 65 96 99 100 100 100 98 100 99 96 75 75 63 28 57 76
100 100 100 100 100 100 100 100 100 95 79 76 70 63 85 88 19 7 5 5 5 5 5 5 5 5 5 12 69 79 14 5 5 19 75 100 100 98 94 93 100 100 99 99 95 94 88 94 89 78 42 62 85 96
100 100 100 100 100 100 100 100 100 99 99 92 18 7 5 5 5 5 5 5 5 5 5 5 5 5 5 11 37 50 94 87 78 85 93 99 91 71 99 100 100 89 91 91 96 99 94 82 72 71 93 94 100 100
100 100 100 100 100 100 76 57 46 38 19 12 10 5 5 9 5 5 5 5 5 5 5 5 5 5 5 31 5 17 55 24 69 100 100 100 100 100 100 100 99 65 73 82 83 88 88 84 74 74 75 85 80 70

GFSWCAN_prec_cloud_066.txt.gz
Cloud_Cover
98 100 100 100 100 100 100 100 100 100 100 100 100 100 100 100 100 100 100 100 100 100 100 100 92 25 5 5 73 5 5 5 5 18 89 36 11 5 5 19 83 5 5 10 38 88 44 34 53 74 44 85 86 92
100 100 100 100 100 100 100 100 100 100 100 100 100 100 100 100 100 100 100 100 100 100 100 100 88 13 4 5 5 5 5 5 11 15 38 5 5 5 5 65 5 48 7 42 56 20 5 5 5 5 6 12 21 18
100 100 100 100 100 100 100 100 100 100 100 100 100 100 100 100 100 100 100 100 100 100 100 100 100 47 5 5 2 3 5 5 5 5 6 5 5 5 11 51 74 5 5 5 3 5 5 10 14 6 35 5 5 5
100 100 100 100 100 100 100 100 100 100 100 100 100 100 100 100 100 100 100 100 100 100 100 100 100 100 5 5 3 2 3 5 5 5 27 60 8 5 16 6 21 7 5 2 4 5 16 100 100 100 100 100 33 76
100 100 100 100 100 100 100 100 100 100 100 100 100 100 100 100 100 100 100 100 100 100 100 100 100 100 18 5 5 5 4 5 5 5 27 98 13 4 4 1 2 4 4 4 1 7 91 100 100 100 100 100 100 100
100 100 100 100 100 100 100 100 100 100 100 100 100 100 100 100 100 100 100 100 100 100 100 100 100 100 32 14 5 5 4 5 5 5 5 100 9 5 4 2 0 4 2 4 5 5 84 100 100 100 100 100 100 100
100 100 100 100 100 100 100 100 100 100 100 100 100 100 100 100 100 100 100 100 100 61 100 100 100 100 19 5 5 5 5 4 4 2 35 100 6 5 5 0 0 2 0 2 3 4 5 34 56 5 10 82 99 100
100 100 100 100 100 100 100 100 100 100 100 100 100 100 100 100 100 100 96 49 73 100 100 100 100 98 9 89 50 12 18 6 4 5 90 96 9 7 5 1 0 4 2 4 2 17 5 3 3 2 4 5 55 100
100 100 100 100 100 100 100 100 100 100 100 100 100 100 100 100 100 100 100 100 100 100 100 83 97 82 42 97 91 79 30 54 5 11 100 37 5 5 5 4 5 1 3 4 5 29 38 1 0 5 5 53 5 55
100 100 100 100 100 100 100 100 100 100 100 100 100 100 99 100 100 100 100 100 100 100 98 100 100 96 66 100 100 93 100 94 95 100 61 53 5 5 5 5 5 1 5 4 5 21 4 5 9 27 5 5 48 82
100 100 100 100 100 100 100 100 100 100 100 100 100 100 100 100 100 100 100 100 100 100 54 100 100 38 69 93 100 100 98 97 100 98 58 96 92 93 41 4 1 1 5 1 23 4 39 70 86 90 71 100 26 10
100 100 100 100 100 100 100 100 100 100 100 100 100 100 100 100 100 100 100 100 100 100 100 88 60 93 100 100 100 100 99 96 96 71 89 100 100 98 72 5 2 2 5 1 29 5 23 84 49 79 100 100 100 100
100 100 100 100 100 100 100 100 100 100 100 100 100 100 100 100 100 100 100 100 100 100 95 62 84 100 100 94 92 100 100 98 94 100 100 85 93 91 18 5 2 3 2 3 1 2 3 5 5 5 27 87 100 100
100 100 100 100 100 100 100 100 100 100 100 100 100 100 100 100 100 100 100 100 100 100 95 76 100 100 100 84 98 100 57 82 82 60 46 86 98 83 11 5 5 5 1 0 5 5 5 5 5 5 5 5 5 22
100 100 100 100 100 100 100 100 100 100 100 100 100 100 100 100 100 100 100 100 100 100 98 100 100 100 99 69 90 79 62 39 6 5 48 44 62 18 5 5 2 5 4 5 5 5 5 5 5 5 5 5 5 5
100 100 100 100 100 100 100 100 100 100 100 100 100 100 100 100 100 100 100 100 100 100 100 100 100 100 100 71 86 51 12 19 6 5 5 5 5 1 1 0 3 0 0 0 2 5 5 5 5 5 5 5 10 43
100 100 100 100 100 100 100 100 100 100 100 100 100 100 100 100 100 100 100 100 100 100 100 79 100 98 72 62 99 45 5 5 5 5 9 5 1 0 0 4 0 0 0 0 2 4 5 5 5 5 5 41 100 90
100 100 100 100 100 100 100 100 100 100 100 100 100 100 100 100 100 100 100 100 100 100 100 100 100 99 100 83 76 5 5 5 9 48 5 5 0 0 0 0 0 0 5 5 5 5 5 5 5 5 5 45 99 100
100 100 100 100 100 100 99 100 100 100 100 100 100 100 100 100 100 100 100 100 100 100 100 100 100 100 74 44 96 5 5 5 55 19 5 1 1 0 0 3 5 5 5 5 5 5 5 2 5 7 9 76 99 100
100 100 100 100 100 100 100 100 100 100 100 100 100 100 100 100 100 100 100 100 100 100 100 100 100 96 98 100 42 5 49 62 52 32 5 5 0 0 2 5 5 5 5 5 5 5 5 5 5 39 68 63 55 97
100 100 100 100 100 100 91 100 100 100 100 100 100 100 100 100 100 100 100 100 100 100 100 94 9 99 100 74 51 15 5 7 6 5 3 4 0 5 5 5 5 5 5 0 4 2 5 23 5 5 5 49 95 7
100 100 100 100 100 100 100 100 100 100 100 100 100 100 100 100 100 100 100 100 100 100 100 46 74 47 28 5 5 5 5 5 5 5 0 0 1 5 4 5 5 5 5 5 5 5 5 30 21 5 5 39 20 60
100 100 100 100 100 100 100 100 100 100 100 100 100 100 100 100 100 100 100 100 100 100 100 72 15 15 40 5 5 5 5 5 5 5 0 0 0 0 5 5 3 5 5 5 5 5 5 5 56 54 4 5 5 12
100 100 100 100 100 100 100 100 100 100 100 100 100 100 100 100 100 100 100 100 100 84 61 28 21 48 5 5 5 5 5 5 5 5 2 5 5 1 0 0 3 5 37 54 39 17 20 28 5 5 5 5 5 5
100 100 100 100 100 100 100 100 100 100 100 100 100 100 100 100 100 100 100 100 96 58 58 6 20 5 15 13 5 5 5 5 5 5 1 5 5 5 7 7 7 71 100 92 98 98 85 84 68 5 5 5 5 5
100 100 100 100 100 100 100 100 100 100 100 100 100 100 100 100 100 100 100 73 13 5 5 7 5 15 12 5 5 5 5 5 10 5 5 5 11 58 95 100 100 100 100 84 91 95 98 100 81 87 80 12 37 7
100 100 100 100 100 100 100 100 100 100 100 100 100 100 100 100 100 77 65 41 41 26 83 40 93 20 5 5 5 5 5 5 5 5 5 5 5 28 89 100 100 52 80 97 100 100 100 100 100 98 100 94 87 89
100 100 100 100 100 100 100 100 100 100 100 100 100 100 100 93 90 80 99 98 73 100 86 92 67 16 25 12 46 41 22 27 5 5 5 6 73 50 34 34 6 80 95 93 100 100 100 100 100 90 96 100 97 100
100 100 100 100 100 100 100 100 100 100 100 100 100 57 85 97 100 99 94 100 100 100 100 74 23 57 54 20 50 50 49 64 100 94 80 57 38 6 5 5 5 67 100 100 97 100 100 100 100 99 100 99 100 100
100 100 100 100 100 100 100 100 100 100 100 100 100 100 100 94 57 65 98 100 98 73 28 18 27 43 13 78 40 7 7 57 69 78 100 100 99 66 76 79 75 92 100 99 93 72 81 79 82 100 93 89 94 99
100 100 100 100 100 100 100 100 100 100 100 100 100 100 100 100 100 100 100 67 62 63 59 58 61 65 66 71 75 92 39 46 62 53 94 100 87 71 69 92 95 90 87 89 84 85 84 87 94 94 95 99 98 100
100 100 100 98 100 100 100 100 100 100 100 100 100 100 100 100 100 64 44 7 64 67 42 64 66 46 56 62 68 69 82 73 82 68 95 100 74 76 100 95 93 98 75 68 64 76 93 100 100 100 90 92 100 99
100 100 100 100 100 100 100 100 100 100 100 100 100 100 100 97 71 10 6 38 23 34 59 61 59 63 60 56 53 46 53 53 71 94 100 100 100 100 100 98 83 70 66 66 65 66 82 93 98 100 100 97 87 82

GFSWCAN_prec_cloud_069.txt.gz
Cloud_Cover
100 100 100 100 100 100 100 100 100 100 100 100 100 100 100 100 100 100 100 97 100 98 100 100 89 58 26 6 5 5 5 5 5 5 5 5 5 5 5 5 5 5 5 5 24 94 77 55 41 10 5 77 100 100
100 100 100 100 100 100 100 100 100 100 100 100 100 100 100 100 100 100 100 98 100 100 100 100 100 52 100 89 5 5 5 3 4 5 5 5 5 5 5 5 5 48 4 18 5 5 5 5 5 9 56 72 82 100
100 100 100 100 100 100 100 100 100 100 100 100 100 100 100 100 100 100 100 100 100 100 100 100 100 100 88 86 8 34 7 5 2 5 5 5 5 5 5 5 5 5 5 36 51 48 32 5 5 5 6 99 100 100
100 100 100 100 100 100 100 100 100 100 100 100 100 100 100 100 100 100 100 98 100 100 100 100 100 100 100 100 30 5 5 5 3 5 5 5 5 5 5 5 5 5 5 4 5 5 5 4 3 3 5 15 100 100
100 100 100 100 100 100 100 100 100 100 100 100 100 100 100 100 100 100 100 100 100 98 100 100 100 100 98 100 70 60 72 5 5 5 11 5 5 5 5 4 5 1 0 2 1 0 0 5 5 5 5 18 28 92
100 100 100 100 100 100 100 100 100 100 100 100 100 100 100 100 100 100 100 100 100 100 100 100 100 100 100 100 77 22 61 84 25 5 5 5 5 5 5 5 8 1 0 0 0 0 0 2 5 5 5 5 5 17
100 100 100 100 100 100 100 100 100 100 100 100 100 100 100 100 100 91 76 100 100 100 100 100 100 100 100 100 83 20 95 100 100 5 5 1 2 5 5 5 5 0 3 0 0 0 3 5 5 5 5 1 2 5
79 100 100 100 100 100 100 100 100 100 100 100 100 100 100 100 95 100 100 100 100 100 100 100 100 100 100 93 32 36 55 97 100 26 46 5 3 5 32 5 5 3 3 0 1 4 3 2 5 2 1 0 5 5
60 100 100 100 100 100 100 100 100 100 100 100 100 100 100 100 98 100 100 100 100 100 66 100 100 95 99 84 13 5 70 100 100 98 99 5 5 5 52 5 3 5 5 0 0 0 0 4 5 5 5 5 5 5
88 100 100 100 100 100 100 100 100 100 100 100 100 100 100 100 100 100 100 98 100 79 99 100 97 100 70 98 97 58 100 100 100 100 100 16 6 84 30 26 5 5 5 1 0 4 0 3 5 5 5 5 5 5
100 100 100 100 100 100 100 100 100 100 100 100 100 100 100 100 100 100 100 92 49 75 69 72 91 98 37 52 91 66 98 100 100 100 99 79 97 100 92 99 76 5 4 0 0 0 0 0 5 5 4 0 3 5
100 100 100 100 100 100 100 100 100 100 100 100 100 100 100 99 93 100 100 100 90 36 58 71 100 70 31 23 56 68 99 100 100 100 99 95 80 90 100 99 82 5 3 0 0 0 0 0 2 5 5 5 5 5
100 100 100 100 100 100 100 100 100 100 100 100 100 100 100 97 100 100 100 100 100 97 100 84 75 25 43 48 73 100 99 100 100 100 88 78 80 97 85 13 5 5 5 5 5 0 0 5 5 5 5 5 5 5
100 100 100 100 100 100 100 100 100 100 100 100 100 98 100 100 100 100 100 100 100 100 98 47 39 62 44 49 90 67 98 100 100 71 5 50 64 22 5 5 5 3 0 0 5 5 5 5 5 5 5 5 5 5
100 100 100 100 100 100 100 100 100 100 100 86 88 57 100 100 100 100 100 100 100 100 100 55 70 98 100 100 96 46 74 100 100 93 50 41 11 5 5 1 4 4 5 5 5 5 5 5 5 5 1 5 5 5
100 100 100 100 100 100 100 100 100 100 100 97 24 100 100 100 100 100 100 100 100 100 89 85 96 100 100 100 97 31 73 100 94 61 5 6 5 5 1 0 0 0 0 1 5 5 5 5 5 5 5 5 5 5
100 100 100 100 100 100 100 100 100 100 100 100 65 98 100 100 100 100 100 100 100 100 100 100 100 100 100 100 96 91 84 48 91 26 8 5 5 2 0 3 0 0 0 0 5 5 5 5 5 5 5 1 5 5
100 100 100 100 100 100 100 100 100 100 100 100 100 100 100 100 100 100 100 100 100 100 100 100 100 100 100 100 100 89 19 64 35 7 5 5 4 0 0 0 0 0 5 5 5 5 5 5 5 5 5 5 5 5
100 100 100 100 100 100 100 100 100 100 99 100 100 100 100 100 100 100 100 100 82 100 100 100 100 100 100 100 98 76 65 19 5 5 5 5 2 0 0 1 3 5 5 5 5 5 5 5 5 5 5 5 5 63
100 100 100 100 100 100 100 100 100 100 100 100 100 100 100 100 100 100 100 100 100 100 100 100 100 100 94 88 12 48 34 37 5 5 5 5 0 3 2 5 4 5 5 5 5 3 5 5 2 5 5 5 5 5
100 100 100 100 100 100 100 100 100 100 100 100 100 100 100 100 100 100 100 100 100 100 100 100 100 100 85 31 46 10 15 12 28 5 5 5 0 5 4 5 5 5 5 5 5 4 5 5 5 5 5 29 5 5
100 100 100 100 100 100 100 100 100 100 100 100 100 100 100 100 100 100 100 100 100 99 98 100 100 76 84 97 15 19 26 8 5 5 1 1 4 3 1 3 5 5 5 5 5 7 35 16 42 13 7 11 5 5
100 100 100 100 100 100 100 100 100 100 100 100 100 100 100 100 100 100 100 100 94 52 86 96 100 100 61 5 5 5 5 5 5 1 5 2 2 4 5 5 5 5 13 33 61 99 94 91 100 98 91 29 5 5
100 100 100 100 100 100 100 100 100 100 100 100 100 100 100 100 100 100 100 100 100 100 44 95 95 15 8 5 5 5 5 9 5 5 5 16 5 5 5 5 21 27 88 99 97 99 100 94 100 81 37 62 12 67
100 100 100 100 100 100 100 100 100 100 100 100 100 100 100 100 100 100 100 100 99 77 94 100 34 5 5 5 5 5 8 6 5 12 5 34 37 30 7 8 39 96 98 100 77 88 96 100 100 92 94 94 82 99
100 100 100 100 100 100 100 100 100 100 100 100 100 100 100 100 100 100 100 100 100 100 100 97 7 5 5 5 5 5 6 64 49 45 7 59 5 96 99 100 100 67 25 55 100 100 100 100 100 98 100 97 96 100
100 100 100 100 100 100 100 100 100 100 100 100 100 100 100 100 100 100 100 100 100 100 69 5 5 5 5 5 21 30 61 60 35 26 5 5 37 91 98 100 90 33 77 97 98 100 100 99 99 98 96 100 100 100
100 100 100 100 100 100 100 100 100 100 100 100 100 100 100 100 100 100 100 100 100 70 70 80 61 52 33 17 62 74 68 68 7 5 20 10 20 37 48 39 85 94 98 98 100 100 100 100 100 100 95 99 94 100
100 100 100 100 100 100 100 100 100 100 100 100 100 100 100 100 100 100 100 99 75 20 6 5 48 69 42 44 57 63 71 63 64 76 98 50 36 6 5 6 62 62 68 97 99 100 100 100 100 100 100 98 94 100
100 100 100 100 100 100 100 100 100 100 100 100 100 100 100 100 100 100 83 79 64 24 11 25 64 21 27 55 31 10 34 67 29 58 100 92 89 24 66 89 98 90 88 99 98 76 94 90 91 96 97 96 90 95
100 100 100 100 100 100 100 100 100 100 100 100 100 100 100 100 100 99 71 61 74 87 98 97 63 85 62 64 74 98 26 28 70 77 96 100 95 90 83 99 95 93 92 100 96 87 78 71 80 73 67 83 97 99
100 100 100 100 100 100 100 100 100 100 100 100 100 100 100 100 87 14 72 99 100 100 75 76 80 27 45 60 63 60 70 66 90 67 99 94 76 76 96 100 100 96 72 72 87 82 77 72 73 71 72 80 84 84
100 100 100 100 100 100 100 100 100 100 100 100 100 100 84 59 92 100 100 100 100 94 78 55 61 63 56 52 38 62 68 53 71 94 100 100 100 100 100 86 100 94 41 58 53 56 74 71 75 80 84 91 90 95

GFSWCAN_prec_cloud_072.txt.gz
Cloud_Cover
100 100 100 100 100 100 100 100 100 100 100 100 100 100 100 100 100 100 100 100 100 100 100 100 100 69 91 88 25 5 5 5 5 5 5 5 5 5 5 4 4 4 10 19 76 97 46 0 4 5 4 5 2 5
96 82 100 100 100 100 99 100 100 100 100 100 100 100 100 100 100 100 100 100 100 100 100 100 99 100 100 100 74 5 28 5 5 5 5 5 5 5 5 5 5 4 3 5 4 4 0 0 3 5 5 5 5 5
89 79 100 100 100 100 100 100 100 100 100 100 100 100 100 100 100 100 100 100 100 100 100 100 95 96 100 100 100 41 10 6 5 5 4 5 5 5 5 5 5 5 5 5 5 5 5 5 5 5 5 5 5 5
96 98 100 100 100 100 100 100 100 100 100 100 100 100 100 100 100 100 100 100 100 100 100 100 100 100 100 100 100 94 39 84 5 7 5 9 7 5 5 5 5 5 5 5 5 5 5 5 5 5 5 5 5 5
100 93 100 100 100 100 100 100 100 100 100 100 100 100 100 100 100 89 100 100 100 100 100 100 100 100 100 100 100 100 11 73 70 52 9 11 96 43 5 5 5 5 5 5 5 5 5 2 5 5 1 4 5 5
100 68 100 100 100 100 100 100 100 100 100 100 100 100 100 100 100 100 100 100 100 100 100 100 100 100 100 100 100 100 81 100 85 7 100 41 100 78 26 5 3 5 5 4 4 0 0 1 5 5 0 5 5 5
100 54 99 100 100 100 100 100 100 100 100 100 100 100 100 100 100 100 88 100 100 100 100 100 100 100 100 90 100 100 63 100 56 82 81 100 85 100 69 12 4 5 5 4 5 2 3 3 4 5 5 5 5 4
99 77 87 100 100 100 100 100 100 100 100 100 100 100 100 100 100 100 99 100 100 100 100 100 100 100 21 97 100 100 100 100 99 5 23 77 44 100 69 26 5 5 5 16 5 5 5 5 4 2 1 5 5 5
66 74 84 100 100 100 100 100 100 100 100 100 100 100 100 100 100 100 100 100 100 100 100 100 88 74 48 55 100 72 100 100 54 10 49 60 100 95 100 85 5 5 5 24 5 5 5 0 0 1 3 5 5 5
47 5 100 100 100 100 100 100 100 100 100 100 100 100 100 100 100 100 100 100 100 100 66 100 85 63 50 98 100 76 67 100 100 100 26 80 74 38 58 91 30 6 8 12 5 4 2 5 2 5 4 5 5 5
70 8 88 100 100 100 100 100 100 100 100 100 100 100 100 100 100 100 100 100 100 99 76 44 23 58 30 95 100 79 86 96 94 89 72 32 97 100 99 97 60 9 62 34 4 5 0 1 5 5 5 5 5 5
7 7 52 100 100 100 100 100 100 100 100 100 100 100 100 100 99 84 78 72 98 84 82 80 73 67 40 99 100 68 68 94 66 72 84 96 74 97 100 94 46 38 89 20 4 1 1 0 5 5 5 5 5 5
5 92 92 100 100 100 100 100 100 100 100 100 100 99 100 100 99 96 100 100 100 93 97 55 60 22 63 68 43 67 89 88 100 100 85 90 72 100 100 100 90 18 22 5 1 0 0 4 5 5 5 5 5 5
5 76 100 100 100 100 100 100 100 100 100 100 100 99 100 100 100 100 100 100 69 67 71 100 98 48 20 63 52 64 80 100 100 100 100 89 96 55 84 26 53 5 5 5 5 5 5 5 5 2 5 5 5 5
5 28 100 100 100 100 100 100 100 100 100 100 99 90 91 100 100 100 100 100 100 100 100 100 100 95 64 81 79 82 100 100 100 100 100 100 95 59 45 5 5 5 5 5 5 5 5 5 5 5 4 5 5 5
5 73 100 100 100 100 100 100 100 100 100 100 100 98 100 100 100 100 100 100 100 100 100 100 100 72 92 100 100 100 100 100 94 100 100 100 6 5 11 5 5 4 0 1 5 5 5 5 5 5 5 5 5 5
5 81 100 100 100 100 100 100 100 100 100 100 100 100 100 100 100 100 100 100 100 100 100 100 100 100 100 100 100 100 100 98 98 100 100 51 5 5 5 5 5 0 0 0 2 4 5 5 5 5 8 1 5 5
75 100 100 100 100 100 100 100 100 100 100 100 100 100 100 100 100 100 100 100 100 100 100 99 90 81 100 100 85 99 100 91 100 92 32 5 6 5 5 5 0 0 1 5 5 5 5 5 5 5 5 5 5 5
91 100 100 100 100 100 100 100 100 100 100 100 100 100 100 100 100 100 100 100 100 46 67 68 50 66 100 100 78 83 87 90 76 42 5 5 5 5 5 3 5 5 5 5 3 0 4 5 5 5 5 5 5 5
100 100 100 100 100 100 100 100 100 100 100 100 100 100 100 100 100 100 100 97 96 100 100 96 74 73 100 89 100 70 59 94 24 5 5 5 2 5 5 5 5 5 5 5 5 3 5 5 5 5 5 26 89 25
100 100 100 100 100 100 100 100 100 100 100 100 100 100 100 100 100 100 100 100 100 100 100 98 73 86 42 38 74 27 69 10 5 5 5 5 5 5 5 5 5 5 23 5 5 5 5 5 6 8 5 54 100 100
100 100 100 100 100 100 100 100 100 100 100 100 100 100 100 100 100 100 100 100 100 100 100 100 100 100 100 56 30 70 12 5 5 5 5 5 5 5 5 5 5 5 15 14 70 97 96 97 90 99 100 100 100 100
100 100 100 100 100 100 100 100 100 100 100 100 100 100 100 100 100 100 100 100 100 100 100 100 100 100 69 53 98 75 15 5 25 7 5 5 5 5 5 5 23 77 100 95 100 100 100 72 22 74 84 100 100 100
100 100 100 100 100 100 100 100 100 100 100 100 100 100 100 100 100 100 100 100 100 100 100 100 100 100 84 100 60 34 30 78 12 5 5 18 53 12 5 28 5 28 96 100 94 22 5 30 70 87 98 100 100 99
100 100 100 100 100 100 100 100 100 100 100 100 100 100 100 100 100 100 100 100 100 100 100 100 100 97 100 98 99 98 48 18 58 23 5 66 74 42 36 9 5 19 91 12 75 100 99 99 99 95 88 100 92 100
100 100 100 100 100 100 100 100 100 100 100 100 100 100 100 100 100 100 100 100 100 100 100 100 100 100 100 100 99 45 6 70 72 63 9 66 76 100 98 100 96 8 9 65 100 99 96 86 100 97 95 86 97 95
100 100 100 100 100 100 100 100 100 100 100 100 100 100 100 100 100 100 100 100 100 100 100 100 100 74 38 59 43 63 77 80 11 5 30 60 73 80 90 100 86 18 36 95 99 100 100 100 100 93 92 81 91 93
100 100 100 100 100 100 100 100 100 100 100 100 100 100 100 100 100 100 100 100 100 100 100 100 98 76 97 57 67 70 72 67 15 5 19 10 8 34 33 85 98 100 100 93 100 99 97 98 100 96 98 100 88 89
100 100 100 100 100 100 100 100 100 100 100 100 100 100 100 100 100 100 100 100 100 100 100 100 100 92 35 49 64 53 60 26 5 21 22 39 9 6 32 5 8 39 67 85 82 100 100 100 100 98 99 97 78 85
100 100 100 100 100 100 100 100 100 100 100 100 100 100 100 100 100 100 100 100 100 100 100 92 79 26 21 15 36 5 36 60 6 23 99 91 50 6 13 62 82 71 75 98 100 78 73 82 91 87 80 79 83 85
100 100 100 100 100 100 100 100 100 100 100 100 100 100 100 100 100 100 100 100 100 100 91 90 82 81 41 55 28 51 5 41 66 73 96 91 82 88 87 97 97 96 94 97 91 95 99 75 74 74 63 72 76 84
100 100 100 100 100 100 100 100 100 100 100 100 100 100 100 100 100 100 100 100 100 63 57 65 66 20 49 53 59 56 36 62 91 70 69 82 72 99 95 76 100 80 59 52 48 56 74 94 88 84 86 90 88 92
100 100 100 100 100 100 100 100 100 100 100 100 100 100 100 100 100 100 100 97 69 79 95 54 59 53 29 50 36 87 41 49 82 95 99 100 100 100 71 76 91 57 45 53 15 56 77 97 94 98 99 95 90 92

GFSWCAN_prec_cloud_078.txt.gz
Cloud_Cover
5 1 82 100 100 100 100 100 100 100 100 100 100 100 100 100 100 100 100 93 8 18 49 94 100 98 90 82 18 5 5 13 5 17 68 58 15 6 37 26 5 5 11 38 83 71 46 5 5 6 21 10 5 5
5 4 99 100 99 100 100 100 100 100 100 72 100 100 100 100 100 100 100 100 33 53 65 54 76 100 100 95 68 33 9 8 6 10 12 16 45 14 10 9 7 87 8 84 100 73 14 5 34 5 5 5 5 44
5 17 100 100 79 99 89 100 100 100 66 100 100 100 100 100 100 100 100 100 100 100 95 86 51 82 100 100 100 100 73 35 53 75 100 35 11 9 44 17 85 88 61 99 98 65 78 88 76 99 22 44 12 59
6 94 100 96 65 96 25 67 100 100 100 100 100 100 100 100 100 100 100 100 98 100 100 100 100 78 100 100 100 100 100 100 82 99 100 78 55 8 67 38 45 94 100 98 93 98 56 99 100 85 8 28 39 78
13 100 100 99 48 13 32 6 90 100 100 100 100 100 100 100 100 100 100 100 100 100 100 100 87 100 100 100 100 100 100 100 94 85 74 45 46 51 94 41 35 100 100 93 100 84 41 99 100 100 62 56 93 100
10 100 100 96 5 5 5 3 100 100 100 100 100 100 100 100 100 100 100 100 100 100 100 100 95 86 90 100 66 66 15 70 69 59 82 49 100 17 57 67 53 99 91 100 100 63 66 100 96 57 76 95 90 100
92 100 100 92 77 5 10 4 10 90 100 100 100 100 100 100 100 100 100 100 100 100 100 100 100 90 100 100 52 82 78 64 73 38 47 66 42 67 92 91 10 5 50 98 90 82 83 91 99 49 81 24 31 16
72 100 100 64 24 8 6 73 46 97 100 100 100 100 100 100 100 100 100 100 100 100 100 100 100 100 48 100 96 91 100 96 99 33 53 29 23 22 14 56 5 43 100 100 47 61 55 75 53 6 27 8 5 5
30 77 100 13 28 5 5 100 100 100 100 100 100 100 100 100 99 77 100 100 100 100 100 100 100 100 62 86 100 93 100 100 94 100 79 5 7 9 5 5 5 10 100 99 94 48 35 44 11 5 5 5 2 5
15 98 100 14 12 4 5 95 100 100 100 100 100 100 100 100 100 100 100 100 100 100 100 100 100 100 100 78 100 88 100 100 100 100 63 5 5 8 70 11 11 57 99 42 90 5 12 13 5 5 5 5 5 5
93 80 64 28 11 14 4 68 100 100 100 100 100 100 100 100 100 100 67 95 100 100 100 100 100 95 100 100 95 83 100 100 100 100 90 67 31 50 59 88 13 50 97 9 40 14 40 6 5 5 4 3 5 5
98 96 12 78 53 24 4 18 100 100 100 100 100 100 100 100 100 100 100 100 100 100 100 100 100 97 100 100 100 100 100 100 100 98 19 52 46 58 76 76 17 99 73 31 31 48 22 5 5 5 5 5 5 5
58 99 42 100 87 35 5 9 100 100 100 100 100 100 100 100 100 100 100 100 100 100 100 88 94 86 100 93 100 100 100 100 100 81 29 33 47 63 96 34 52 66 96 15 51 37 5 5 5 2 3 1 5 5
100 87 95 100 90 5 5 5 100 100 100 100 100 100 100 100 100 100 100 100 100 100 100 100 100 100 82 100 100 100 100 99 90 96 91 76 86 72 47 32 9 5 6 5 8 5 5 5 1 0 0 5 5 5
79 17 99 100 80 5 5 5 98 100 100 100 100 90 100 100 100 100 100 100 100 100 100 100 100 100 100 100 100 100 89 98 100 100 95 100 60 5 22 8 12 36 13 18 5 5 5 5 5 3 0 4 5 5
96 43 100 100 31 5 27 85 100 100 100 100 100 43 100 100 100 100 100 100 100 100 100 100 100 100 100 100 100 99 91 99 98 100 99 80 17 5 16 50 48 5 5 21 5 5 5 5 5 5 5 5 5 5
73 100 58 74 13 80 89 95 100 100 100 100 100 96 100 100 100 100 100 100 100 100 100 100 100 100 100 100 100 99 84 100 100 99 99 37 5 33 71 99 60 5 5 5 5 5 5 5 5 5 5 5 5 5
100 100 56 71 85 65 100 100 100 100 100 81 100 100 100 100 100 100 100 100 100 100 100 100 100 100 100 100 100 100 100 100 100 100 100 99 100 100 100 100 59 14 5 5 5 11 8 5 7 15 20 36 26 5
100 85 58 76 99 100 100 100 100 100 100 100 100 100 100 100 100 100 100 100 100 100 100 100 100 100 100 100 100 100 100 100 100 100 100 100 100 88 98 77 11 28 5 5 8 5 5 38 54 41 78 95 100 88
100 100 85 100 100 100 100 100 100 100 100 100 100 100 100 100 100 100 100 100 100 100 100 100 100 100 100 100 100 100 100 100 100 100 100 100 54 68 100 18 61 16 55 18 30 54 73 28 13 36 78 100 100 99
100 100 100 100 100 100 100 95 99 100 100 100 100 100 100 100 100 100 100 100 100 100 100 100 100 100 100 100 100 100 100 100 100 100 100 65 30 100 52 22 64 6 34 18 95 75 63 72 10 93 100 100 100 100
100 100 100 100 100 100 100 83 88 97 100 100 100 100 100 100 100 100 100 100 100 100 100 100 100 100 100 100 100 100 100 100 100 100 96 16 29 58 52 79 80 98 98 92 98 85 44 16 97 100 99 93 38 45
100 100 100 100 100 100 100 91 96 100 100 100 100 100 100 100 100 100 100 100 100 100 100 100 100 100 100 100 100 100 100 100 100 96 36 5 8 81 77 43 56 100 95 68 64 7 54 86 55 100 25 68 80 39
100 100 100 100 100 100 100 100 93 100 100 100 100 100 100 100 100 100 100 100 100 100 100 100 100 100 100 100 100 100 100 100 100 91 28 36 97 97 19 8 8 38 95 57 14 50 43 61 71 67 94 100 78 96
100 100 100 100 100 95 100 98 99 100 100 100 100 100 100 100 100 100 100 100 100 100 100 100 100 100 100 100 99 87 81 94 100 99 99 100 100 47 33 8 5 5 49 77 82 98 83 72 83 88 91 93 90 100
100 100 98 99 50 78 87 71 23 99 100 100 100 100 100 100 100 100 100 100 100 100 100 100 100 100 100 100 100 96 86 100 100 100 100 100 86 80 100 94 71 28 83 100 100 100 98 85 99 88 100 93 93 88
100 100 74 57 100 69 41 57 78 100 100 100 100 100 100 100 100 100 100 100 100 100 100 100 100 87 100 100 90 100 100 100 100 100 100 100 98 65 25 62 94 34 98 100 97 98 100 100 100 100 100 96 97 100
100 100 99 86 100 88 46 60 100 100 100 100 100 100 100 100 100 100 100 100 100 100 100 100 94 98 99 100 100 100 100 100 100 100 100 100 92 48 36 15 47 100 100 96 99 100 100 100 100 100 100 99 85 88
100 79 95 75 43 100 96 100 100 100 100 100 100 100 100 100 100 100 100 100 100 100 100 100 100 100 100 100 100 100 100 100 100 87 100 95 18 6 9 78 61 63 76 86 86 98 100 100 98 100 82 77 73 90
100 100 100 96 100 100 100 100 100 100 100 100 100 100 100 100 100 100 100 100 100 100 100 100 100 100 100 100 100 100 100 100 64 89 80 27 18 6 48 71 78 74 89 96 74 34 80 50 59 61 20 5 22 73
100 100 100 100 100 98 100 100 100 100 100 100 100 100 100 100 100 100 100 100 100 100 100 100 100 100 100 100 100 100 100 79 76 45 34 36 53 78 78 74 92 100 96 33 45 16 46 26 55 87 46 76 79 88
100 100 89 100 100 100 100 100 100 100 100 100 100 100 100 100 100 100 100 100 100 100 100 100 100 100 100 100 100 100 99 67 91 44 75 77 63 100 77 83 98 76 53 46 33 18 35 96 99 97 100 96 94 97
100 100 100 100 100 100 100 100 100 100 100 100 100 100 100 100 100 100 100 100 100 100 100 100 100 100 100 100 100 97 90 100 79 46 88 77 100 100 91 91 95 71 55 52 59 90 77 100 100 98 100 98 94 98

GFSWCAN_prec_cloud_081.txt.gz
Cloud_Cover
100 100 100 97 5 7 100 12 100 100 100 100 100 100 100 100 96 96 88 75 42 9 36 85 53 10 38 5 5 5 12 54 93 59 5 5 5 43 57 51 47 68 97 6 98 30 65 93 48 23 5 5 5 7
100 100 100 100 100 64 46 83 46 100 98 100 100 100 100 100 100 100 40 55 81 50 21 99 98 56 5 5 34 71 33 42 10 67 63 18 18 37 13 25 47 80 40 100 97 34 83 33 58 5 76 11 12 33
100 100 100 100 100 100 5 77 88 100 100 100 100 100 100 100 100 89 48 60 65 87 56 100 100 100 93 100 100 100 100 100 85 23 5 25 9 10 5 6 21 97 16 91 97 92 44 36 14 56 58 34 15 50
100 100 100 100 100 100 32 6 36 98 100 100 100 100 100 100 100 100 99 96 100 100 58 89 100 100 100 100 100 100 100 100 97 62 34 32 92 89 24 15 26 49 89 21 86 5 10 43 44 42 58 87 21 58
100 100 100 100 100 100 84 3 6 97 21 100 100 100 100 86 100 100 100 100 100 100 100 84 100 100 100 83 85 79 59 18 31 12 9 5 7 27 8 5 5 5 6 5 53 26 11 49 40 65 28 75 20 6
100 100 38 100 100 100 97 3 2 5 97 65 100 100 100 100 100 100 100 100 100 100 100 100 98 100 100 100 93 44 37 5 5 5 49 24 5 5 5 5 5 5 5 5 37 26 14 70 52 54 49 64 77 6
100 100 100 100 100 100 100 0 0 2 5 66 100 100 81 94 98 100 100 100 100 100 100 100 74 92 100 100 100 100 70 39 68 26 94 99 12 5 5 5 12 48 54 56 5 89 95 31 54 55 77 53 15 5
100 100 100 100 100 100 99 2 53 6 29 48 97 100 81 95 92 99 98 100 100 100 100 100 100 100 72 100 100 100 100 70 84 100 52 76 7 5 5 5 63 62 43 51 15 84 18 17 47 56 54 5 5 5
98 81 100 100 75 100 100 11 87 88 100 100 97 88 38 52 81 91 96 99 93 89 100 100 100 100 100 99 98 80 100 99 80 88 100 8 5 5 5 39 69 63 81 57 7 12 5 38 65 49 6 5 4 2
63 72 100 100 58 100 100 16 100 100 100 100 84 100 98 54 73 92 95 100 100 92 100 100 100 100 100 100 100 96 100 100 100 100 97 35 5 5 5 27 60 99 88 34 5 5 5 50 9 5 5 5 5 5
29 51 100 57 12 79 34 87 100 100 100 92 97 100 100 31 37 82 63 63 92 100 100 100 100 100 100 100 100 100 100 100 100 100 100 45 30 5 16 71 98 100 73 7 5 5 5 22 5 5 0 0 5 5
45 16 99 85 5 14 13 100 100 99 43 75 100 100 100 100 100 89 89 91 100 100 100 100 100 100 100 100 99 100 87 100 100 100 100 50 5 14 54 95 93 62 22 5 11 26 40 5 1 5 5 5 5 5
47 81 96 98 53 99 91 100 97 100 85 50 100 98 100 100 100 99 100 100 100 100 100 100 100 100 100 100 100 79 100 100 100 100 100 27 30 84 73 100 84 83 97 100 55 83 14 5 0 2 5 1 5 5
9 39 100 48 78 100 100 99 99 100 100 75 99 83 100 60 93 100 100 100 100 100 100 92 97 100 93 100 100 100 100 100 100 100 87 62 65 93 98 91 100 100 100 71 42 37 5 5 5 0 0 4 5 5
6 99 90 63 40 71 100 100 100 100 100 84 90 66 18 93 100 100 100 100 100 100 100 89 100 100 100 100 100 100 100 100 100 100 96 100 100 100 71 98 100 100 100 50 5 5 5 5 5 4 1 5 5 5
76 100 38 55 99 78 98 100 100 100 100 100 93 17 6 80 100 100 100 100 100 100 100 100 100 100 100 100 100 100 100 100 100 100 100 100 100 100 100 77 81 92 98 8 16 5 5 5 5 5 5 5 5 5
95 99 12 98 100 100 100 100 100 100 100 100 27 7 5 98 100 100 100 100 100 100 100 100 100 100 100 100 100 100 100 100 100 100 100 100 100 82 100 100 100 96 35 50 24 5 5 5 5 53 68 11 31 5
84 71 11 100 100 100 100 100 100 100 93 65 6 5 100 100 100 100 100 100 100 100 100 100 100 100 100 100 100 100 100 100 100 100 100 100 91 100 100 100 100 90 5 6 8 39 64 74 65 95 86 43 79 20
47 100 64 100 100 100 100 100 97 73 28 59 53 36 93 100 100 100 100 100 100 100 100 100 100 100 100 100 100 100 100 100 100 100 100 79 100 100 100 100 100 96 56 62 27 42 35 32 34 38 34 99 100 100
89 85 97 100 100 100 100 100 73 36 92 22 60 64 65 100 100 100 100 100 100 100 100 100 100 100 100 100 100 100 100 100 100 100 94 100 100 100 96 99 100 71 74 61 64 34 37 5 5 8 88 100 97 100
100 100 100 100 100 100 100 68 74 64 69 27 58 11 34 100 100 100 100 100 100 100 100 100 100 100 100 100 100 100 100 100 100 99 65 100 100 49 62 100 100 55 57 35 58 8 5 9 8 98 100 94 92 9
100 100 100 100 100 100 98 78 79 61 64 61 80 21 75 100 100 100 100 100 100 100 100 100 100 100 100 100 100 100 100 100 100 98 100 100 83 72 98 100 66 98 94 95 69 43 12 9 87 97 80 60 25 5
100 100 100 100 100 100 100 100 94 100 100 98 87 100 96 100 100 100 100 100 100 100 100 100 100 100 100 100 100 100 100 100 100 100 100 100 100 73 95 62 76 92 89 84 72 63 62 82 50 99 5 10 40 21
100 100 100 100 100 100 100 98 100 61 85 94 98 99 100 100 100 100 100 100 100 100 100 100 100 100 100 100 100 100 100 100 100 100 100 100 100 99 85 62 34 68 82 23 65 68 58 5 69 19 50 98 88 97
100 100 100 100 98 69 75 91 94 84 100 100 73 100 100 100 100 100 100 100 100 100 100 100 100 100 100 100 100 100 100 100 100 100 100 100 76 75 58 58 24 15 43 67 83 87 72 60 62 72 82 96 100 100
100 100 93 95 74 13 47 80 61 39 57 93 71 81 100 100 100 100 100 100 100 100 100 100 100 100 100 100 100 100 100 100 100 100 100 87 70 25 69 54 47 22 66 94 100 95 91 81 83 80 92 92 98 95
100 100 100 51 5 17 83 96 76 22 22 63 87 66 100 100 100 100 100 100 100 100 100 100 100 100 100 100 100 100 100 100 100 100 100 67 56 50 56 54 31 5 63 98 96 100 100 100 95 93 99 84 81 100
100 100 66 65 27 51 100 100 70 7 99 100 100 95 100 100 100 100 100 100 100 100 100 100 100 100 100 100 100 100 100 100 100 100 100 72 57 92 100 54 57 100 100 88 100 100 100 91 100 100 100 99 74 67
89 26 41 97 100 100 100 97 46 53 98 100 35 52 100 100 100 100 100 100 100 100 100 100 100 100 100 100 100 100 100 100 100 100 77 68 86 100 96 69 95 81 88 94 95 98 98 100 99 100 80 32 39 60
76 65 100 100 100 100 100 100 100 100 100 47 49 97 100 100 100 100 100 100 100 100 100 100 100 100 100 100 100 100 100 96 84 99 99 99 100 100 40 76 78 88 100 87 38 37 82 60 60 44 23 5 65 76
100 100 100 100 100 100 100 100 100 100 92 100 100 100 100 100 100 100 100 100 100 100 100 100 100 100 100 100 100 100 76 62 100 100 100 100 100 89 64 67 79 98 89 8 22 5 37 40 75 72 63 78 90 90
100 100 100 100 100 100 100 100 100 100 100 100 100 100 100 100 100 100 100 100 100 100 100 100 100 100 100 100 100 86 100 100 100 100 100 100 92 59 69 78 100 92 67 48 44 5 55 71 98 99 96 96 93 93
100 100 100 100 100 100 100 100 100 100 100 100 100 100 100 100 100 100 100 100 100 100 100 100 100 100 100 100 100 100 100 100 100 100 100 99 87 69 95 100 98 70 53 22 54 40 75 99 100 100 100 96 96 90

GFSWCAN_prec_cloud_084.txt.gz
Cloud_Cover
100 100 100 100 100 100 100 88 100 100 99 100 100 100 100 85 84 47 5 5 4 0 9 5 5 5 5 5 5 5 5 5 5 5 15 14 14 16 14 48 13 47 49 10 5 5 5 5 5 6 11 36 14 45
100 100 100 100 100 100 100 95 100 100 97 60 100 100 100 100 100 78 90 35 5 5 5 5 5 20 14 6 5 5 5 4 5 5 5 5 16 32 37 13 5 5 5 31 22 6 5 5 5 5 21 75 86 22
100 100 100 100 100 100 100 100 72 100 100 85 69 100 100 100 100 100 77 88 76 6 5 5 5 19 70 97 100 74 44 11 5 5 5 5 5 5 5 5 5 19 20 10 30 46 34 7 5 7 25 10 85 57
100 100 100 100 100 100 100 100 100 76 95 30 81 99 100 100 100 100 100 100 100 35 42 19 5 17 18 46 51 15 24 49 89 76 7 6 11 21 5 5 5 29 88 73 6 13 8 5 6 14 10 46 90 42
100 100 100 100 100 100 100 100 100 91 5 5 48 95 76 100 100 100 100 100 100 100 35 56 20 5 5 8 45 28 7 12 22 30 62 68 19 12 5 5 27 52 36 77 91 69 57 16 5 5 51 60 5 5
100 100 100 100 100 100 100 100 100 100 8 5 28 30 36 77 100 100 100 100 100 100 100 100 100 100 100 100 100 100 90 41 45 56 73 82 71 19 5 5 5 52 66 88 78 76 19 14 60 76 7 5 5 5
100 100 100 100 100 100 100 100 100 100 100 4 5 78 5 5 50 100 100 100 100 100 100 100 100 96 100 69 57 100 100 100 94 40 85 37 50 6 5 7 20 39 59 53 53 63 30 48 51 13 5 5 5 1
78 100 100 100 100 100 100 100 97 100 100 100 24 6 5 5 35 54 100 100 100 100 100 100 100 100 100 100 100 96 96 97 95 100 100 12 5 5 5 5 5 10 10 32 96 54 49 22 50 5 5 5 5 0
32 65 100 86 100 100 100 100 100 100 100 100 100 8 20 78 41 88 62 100 82 99 100 100 100 100 100 100 100 100 74 98 71 100 100 91 5 18 5 5 5 6 32 73 100 100 36 14 6 5 5 5 0 0
49 50 95 8 23 82 62 87 100 100 100 100 44 8 7 98 100 69 99 100 100 100 100 86 75 100 100 89 88 100 90 64 54 100 100 100 5 100 8 43 69 95 47 78 100 98 48 15 5 4 5 0 0 0
18 15 5 6 29 37 18 90 100 100 100 100 59 7 5 43 93 33 83 99 100 100 100 100 76 42 77 80 59 55 76 68 100 100 100 98 6 99 8 98 100 100 90 70 87 100 51 5 3 4 5 5 0 0
87 32 5 9 4 10 78 8 100 79 100 95 100 7 47 25 55 100 22 98 100 100 100 100 100 84 98 61 100 92 69 100 100 100 100 91 93 99 76 98 100 100 71 61 80 100 57 8 1 5 5 4 1 0
78 13 5 5 5 36 27 5 94 100 100 99 72 32 40 8 7 58 41 100 100 100 89 100 100 100 100 100 100 100 99 100 100 100 100 48 93 100 100 100 100 100 100 65 100 100 98 11 4 1 5 0 0 0
99 100 8 5 5 21 11 100 42 100 100 96 52 99 5 7 3 4 64 100 100 100 100 100 98 99 99 98 95 97 98 100 100 100 99 67 26 100 100 100 100 100 100 87 100 100 65 59 5 5 1 0 2 2
99 100 100 14 5 6 18 100 78 100 100 99 34 85 90 20 5 5 69 82 100 100 100 100 100 95 99 44 68 52 92 100 100 100 84 66 42 100 100 100 100 100 100 76 94 82 5 45 5 5 5 5 5 5
96 100 69 5 28 5 37 100 100 100 100 100 95 74 82 53 5 18 96 100 99 100 100 100 100 100 100 54 65 94 90 100 100 97 97 99 100 100 100 100 100 100 100 92 36 34 5 12 18 9 5 5 5 6
92 100 33 16 5 11 100 100 100 100 100 86 52 49 12 64 5 5 71 100 100 100 100 100 100 100 85 73 100 100 100 100 100 100 100 100 100 100 100 100 100 100 100 68 86 25 5 39 5 5 5 9 68 83
100 100 27 5 46 100 100 100 100 100 100 97 88 27 14 31 5 5 8 100 100 100 100 100 100 100 100 100 100 100 100 100 100 100 100 100 100 100 100 100 100 100 96 91 81 47 38 5 5 5 16 74 81 60
100 91 13 88 100 100 100 100 100 100 86 70 86 9 25 5 5 5 5 88 100 100 100 100 100 100 100 100 100 100 100 100 100 100 100 100 100 100 100 100 100 100 94 100 96 31 42 5 5 5 48 100 96 73
100 100 72 100 93 100 100 100 100 98 99 55 37 53 5 6 5 5 7 43 100 100 100 98 100 100 100 100 100 100 100 100 100 100 100 100 100 100 100 100 100 100 56 100 77 8 5 5 5 27 90 100 93 90
100 97 87 100 100 100 82 91 100 74 100 100 25 5 41 67 59 77 72 49 100 100 100 100 100 100 100 100 100 100 100 100 100 100 100 100 100 100 100 100 100 47 94 92 100 12 5 5 8 92 100 65 86 52
100 100 100 100 100 100 100 92 80 92 100 100 100 19 67 86 72 32 18 95 88 100 100 100 100 100 100 100 100 100 100 100 100 100 100 100 100 100 100 100 100 35 74 95 100 10 5 5 75 100 87 58 26 5
100 100 100 100 100 90 97 90 88 97 100 99 98 83 88 72 43 40 42 6 41 100 100 100 100 100 100 100 100 100 100 100 100 100 100 100 100 100 100 100 100 30 65 100 72 5 5 67 42 100 24 23 5 28
100 100 100 100 91 95 98 100 100 100 100 100 91 85 92 78 97 98 54 5 16 100 100 100 100 100 100 100 100 100 100 100 100 100 100 100 100 100 100 100 99 20 79 100 52 5 5 5 88 45 49 80 63 96
100 100 95 80 100 95 95 100 100 100 100 99 100 94 71 81 41 87 32 5 87 100 100 100 100 100 100 100 100 100 100 100 100 100 100 100 100 100 100 100 56 67 74 84 5 10 34 65 64 72 80 99 100 100
99 84 61 69 97 100 100 100 83 69 86 99 75 74 77 12 63 46 5 75 100 100 100 100 100 100 100 100 100 100 100 100 100 100 100 100 100 100 100 100 58 57 60 38 74 81 74 79 95 82 89 85 100 100
96 96 100 100 100 100 38 8 35 40 30 32 80 98 60 5 6 3 11 100 100 100 100 100 100 100 100 100 100 100 100 100 100 100 100 100 100 100 100 70 93 39 35 59 98 100 100 100 100 100 100 97 87 98
100 100 100 100 56 6 7 5 64 97 76 95 99 89 38 4 3 26 33 100 100 100 100 100 100 100 100 100 100 100 100 100 100 100 100 100 100 100 62 76 44 79 68 76 74 88 100 100 100 100 100 88 62 72
95 69 23 76 83 18 33 33 12 15 6 62 100 100 46 5 5 5 70 100 100 100 100 100 100 100 100 100 100 100 100 100 100 100 100 100 100 71 98 64 59 56 71 76 95 99 97 100 95 98 32 27 44 66
50 41 96 38 17 44 51 8 12 88 100 100 100 100 91 6 33 9 42 100 100 100 100 100 100 100 100 100 100 100 100 100 100 100 100 100 83 91 95 92 68 67 90 85 42 33 89 15 34 29 9 5 78 73
90 93 60 29 7 41 32 86 100 100 100 100 100 99 97 60 72 46 62 100 100 100 100 100 100 100 100 100 100 100 100 100 100 100 100 99 97 100 100 83 54 79 75 51 5 5 24 13 19 6 41 69 91 91
100 94 100 70 81 98 100 100 100 100 100 100 100 95 70 84 16 68 98 100 100 100 100 100 100 100 100 100 100 100 100 100 100 100 100 99 100 100 100 98 96 81 53 10 34 5 22 23 50 71 68 90 92 94
100 100 100 100 96 100 100 98 100 100 100 100 100 82 48 52 91 100 100 100 100 100 100 100 100 100 100 100 100 100 100 100 100 100 100 100 100 100 100 100 100 63 44 9 49 15 55 73 82 97 99 100 100 96

GFSWCAN_prec_cloud_087.txt.gz
Cloud_Cover
100 100 100 100 100 96 100 100 100 100 29 6 96 100 72 100 100 100 100 100 83 30 5 5 5 3 3 4 36 5 5 5 4 4 3 2 0 2 0 0 0 5 5 5 5 5 5 5 5 3 5 5 5 5
100 100 99 100 100 100 100 100 100 100 100 18 6 97 97 10 100 100 100 100 96 88 58 34 5 5 5 5 4 2 8 4 5 5 5 5 5 5 5 6 5 31 64 74 68 48 78 71 43 5 5 5 5 5
100 100 95 100 100 100 100 100 97 100 100 100 14 5 96 59 5 51 100 100 100 97 96 61 38 45 40 73 47 5 5 5 6 5 6 5 5 5 5 23 62 64 54 69 83 79 77 92 93 55 33 5 4 1
100 100 87 100 100 100 100 100 100 64 100 100 100 18 5 63 75 5 10 100 100 100 95 93 45 7 12 22 52 16 5 5 5 9 28 13 5 5 10 27 49 37 31 40 54 45 48 24 34 5 5 5 5 5
100 100 100 100 100 100 100 100 100 100 84 100 100 97 5 5 39 62 42 7 100 100 100 100 86 80 32 5 5 61 9 5 6 7 5 23 11 5 5 28 6 5 5 6 56 93 62 27 22 24 29 5 5 5
100 100 100 96 100 91 100 100 100 100 100 5 95 100 98 5 5 37 97 98 7 99 100 100 100 98 98 95 100 100 100 75 92 43 5 5 15 5 6 7 6 27 23 40 91 82 80 54 6 5 5 5 5 5
100 97 100 46 100 100 100 100 100 100 100 100 33 88 100 7 1 4 11 53 100 39 44 100 100 100 100 100 100 64 9 47 83 66 16 5 7 5 5 5 5 66 100 100 96 95 76 61 5 5 5 5 5 5
100 99 99 83 100 100 100 100 100 100 100 100 60 71 70 100 8 5 2 3 52 100 99 35 87 100 100 100 100 91 81 100 82 65 72 29 11 99 16 5 5 13 93 100 100 67 84 69 6 5 5 5 4 0
100 100 90 98 88 93 100 70 100 100 99 100 97 99 85 70 23 5 5 5 5 12 100 100 94 87 100 100 100 100 90 84 100 97 37 54 6 98 98 5 13 8 70 100 100 100 100 73 13 5 5 5 5 4
100 100 87 26 100 80 100 100 100 100 100 66 100 30 54 100 100 99 8 11 96 6 94 100 100 100 30 100 100 64 34 53 58 24 16 56 57 88 42 8 6 56 91 100 100 100 100 98 84 9 5 5 5 5
100 100 80 10 75 99 80 95 98 100 96 99 23 94 65 100 92 100 42 6 5 5 4 13 83 91 94 6 5 11 37 8 46 57 53 96 80 100 90 8 42 63 90 100 100 100 100 100 96 16 12 20 5 5
100 100 100 44 100 80 18 84 99 78 82 92 13 10 65 56 79 25 87 5 3 5 5 5 28 83 100 99 83 10 12 24 64 97 83 100 73 100 91 30 71 78 75 100 100 100 100 100 55 5 28 5 5 5
100 100 100 99 5 5 12 31 97 94 87 91 10 7 83 97 91 85 6 92 6 5 19 6 53 98 100 100 100 100 64 82 100 87 100 100 100 100 96 20 50 73 64 100 100 100 100 100 87 5 31 5 5 5
100 100 100 100 85 5 5 22 75 100 100 84 43 5 19 90 44 45 7 9 29 5 22 45 58 95 100 99 96 100 100 100 100 100 100 100 100 100 100 98 55 67 100 100 100 100 100 100 100 12 6 16 5 5
100 100 100 100 93 5 5 52 28 99 100 100 90 74 13 5 5 4 26 50 16 12 85 97 61 95 100 100 100 78 100 100 100 100 100 100 99 96 83 93 99 91 100 100 100 100 100 100 100 35 5 5 5 5
100 100 100 100 100 55 50 100 99 100 100 100 99 95 11 5 7 5 5 5 5 5 6 70 91 100 100 100 100 100 95 100 100 100 100 100 96 95 100 96 100 100 100 100 100 100 100 100 100 67 5 5 5 5
100 100 100 100 100 85 100 100 100 100 100 100 100 88 10 5 5 2 0 0 5 10 93 100 34 100 100 100 100 100 100 100 100 100 100 88 100 100 91 89 100 100 100 100 100 100 100 100 100 73 7 5 5 25
100 100 100 100 100 98 100 100 100 100 100 100 100 39 5 5 4 2 0 5 5 5 22 100 100 96 100 100 100 100 100 100 100 100 99 100 100 99 90 100 100 100 100 100 100 100 100 100 100 12 5 6 5 5
100 100 100 100 100 100 100 100 100 100 98 100 100 98 11 84 6 5 0 5 5 5 5 5 92 11 91 100 100 100 100 100 100 100 100 100 97 94 100 100 100 100 100 100 100 100 100 100 100 5 5 15 5 5
100 100 100 100 100 100 100 100 100 99 99 100 100 84 82 100 42 18 5 6 23 7 30 46 5 2 99 100 100 100 100 100 100 100 100 100 100 99 100 100 100 100 100 100 100 100 100 100 95 5 5 63 10 5
100 100 100 100 100 100 100 97 100 100 100 100 100 100 100 100 67 100 100 88 80 99 49 5 0 0 63 77 100 100 100 100 100 100 100 100 100 100 100 100 100 100 100 100 100 100 100 100 53 5 5 5 5 65
100 100 100 100 100 100 100 98 82 100 100 100 100 100 100 100 96 97 99 100 92 5 5 0 0 0 0 94 100 100 100 100 100 100 100 100 100 100 100 100 100 100 100 100 92 100 100 97 14 12 5 5 23 5
100 100 100 100 100 100 97 99 100 100 100 100 100 100 100 100 91 78 88 69 16 2 0 0 2 5 4 58 100 100 100 100 100 100 100 100 100 100 100 100 100 100 100 100 95 100 100 99 21 8 5 5 5 5
100 100 100 100 100 100 100 100 100 100 100 100 100 100 100 100 96 100 96 65 92 5 2 4 5 5 5 5 100 100 100 100 100 100 100 100 100 100 100 100 100 100 100 100 99 100 100 99 30 6 5 55 81 97
100 100 100 100 100 100 100 100 100 100 100 100 100 100 86 99 96 93 65 100 90 4 0 0 0 4 39 99 99 100 100 100 100 100 100 100 100 100 100 100 100 100 100 100 100 100 100 9 5 5 53 78 95 99
100 100 100 99 100 100 100 100 100 100 100 100 100 100 100 98 97 57 100 100 16 0 0 2 3 5 68 100 100 100 100 100 100 100 100 100 100 100 100 100 100 100 100 100 100 100 60 14 41 29 66 45 92 93
100 100 100 100 100 100 100 100 100 100 100 100 100 95 100 100 45 100 100 76 4 0 0 0 0 7 98 100 100 100 100 100 100 100 100 100 100 100 100 100 100 100 100 100 100 99 40 46 75 87 99 98 92 85
100 100 100 100 100 100 100 100 100 100 100 100 65 80 73 82 100 84 47 5 5 5 5 2 3 22 90 100 100 100 100 100 100 100 100 100 100 100 100 100 100 100 100 100 95 55 81 96 100 100 97 88 18 22
100 100 100 100 100 100 100 100 98 91 37 5 21 81 100 67 12 5 5 7 8 5 5 9 96 67 100 100 100 100 100 100 100 100 100 100 100 100 100 100 100 100 100 100 96 100 71 52 72 100 54 25 5 7
100 100 100 100 100 100 100 100 93 79 23 32 46 24 28 8 51 60 5 72 40 57 70 79 64 98 100 100 100 100 100 100 100 100 100 100 100 100 100 100 100 99 100 82 22 100 100 29 44 6 10 5 31 49
100 100 100 100 77 52 18 29 22 51 30 18 23 7 5 10 96 95 53 93 100 100 100 46 60 99 100 100 100 100 100 100 100 100 100 100 100 100 100 100 100 100 100 100 98 66 53 16 5 33 19 5 39 32
92 76 49 16 51 81 87 60 78 72 23 5 5 51 78 83 51 64 77 99 100 100 82 47 71 100 100 100 100 100 100 100 100 100 100 100 100 100 100 100 100 100 96 12 44 92 27 5 40 77 15 5 38 62
100 100 99 93 89 99 83 20 30 5 5 5 34 99 100 100 90 44 75 100 92 27 6 95 100 100 100 100 100 100 100 100 100 100 100 100 100 100 100 100 100 98 28 45 98 100 25 26 99 53 19 44 59 67

GFSWCAN_prec_cloud_090.txt.gz
Cloud_Cover
96 100 100 76 100 100 100 100 100 100 100 100 35 73 2 0 4 5 79 42 20 96 29 5 5 17 26 21 5 5 3 2 0 3 0 2 4 5 5 5 1 1 3 4 5 5 2 0 0 1 0 0 3 5
100 100 100 100 100 90 94 100 100 100 40 100 98 76 94 6 5 1 8 98 97 7 56 67 5 5 12 25 5 5 5 5 5 5 2 0 5 5 4 5 0 0 1 2 4 4 4 5 5 5 5 5 5 5
100 100 100 100 100 100 100 100 100 100 100 100 100 100 100 88 2 5 0 4 44 100 74 4 53 8 5 19 37 5 5 5 4 0 1 2 1 0 0 0 1 0 0 3 5 12 5 5 5 5 5 5 5 5
100 100 100 100 100 100 100 98 100 100 100 100 100 100 100 50 95 9 5 4 5 17 33 94 6 5 5 5 5 9 5 5 5 5 5 5 5 5 5 5 5 4 6 13 15 79 5 5 5 5 5 5 5 5
100 100 99 100 100 100 100 72 100 98 100 76 100 92 100 100 11 48 5 1 5 7 22 20 99 67 1 5 5 5 5 15 20 21 17 5 5 5 5 5 5 6 50 100 100 92 90 60 6 5 5 5 5 5
100 100 100 85 90 100 100 100 59 100 100 100 100 100 100 100 100 10 6 0 0 5 58 81 86 66 100 75 7 10 62 96 77 99 96 49 73 58 5 5 5 5 5 62 100 100 100 100 100 82 17 47 66 34
100 100 100 100 89 99 100 100 100 96 100 78 34 100 100 100 100 100 98 36 5 1 1 49 40 56 81 67 100 92 29 98 73 40 44 89 62 92 25 58 17 5 5 32 42 96 100 100 100 100 100 100 97 81
100 100 100 100 75 98 100 100 100 100 100 100 84 100 100 61 98 100 100 62 11 5 10 46 67 28 30 99 75 78 100 100 100 90 66 91 100 56 79 71 16 6 5 10 55 27 95 100 100 100 100 99 32 34
100 100 100 100 100 99 89 100 100 100 100 76 100 100 100 95 56 100 100 44 74 74 34 7 5 6 5 6 78 43 16 100 100 100 85 94 100 97 63 95 14 98 16 18 44 96 93 100 100 100 100 100 92 5
100 100 100 100 100 80 100 96 100 100 83 88 100 100 100 100 51 11 100 95 100 100 96 6 4 5 3 4 5 13 5 27 75 100 100 96 100 65 8 12 42 94 97 57 61 47 100 100 100 100 100 100 100 9
100 100 100 100 100 100 100 5 99 91 100 100 98 50 100 100 100 39 46 79 76 100 65 22 5 5 4 5 5 8 7 7 51 100 100 100 100 100 80 6 69 24 68 64 56 11 60 96 100 100 100 100 100 62
100 100 100 100 100 100 100 90 85 91 99 96 100 99 19 96 100 80 19 5 46 23 18 6 5 5 5 5 5 5 97 44 71 86 100 100 100 100 100 63 51 53 89 76 95 86 72 77 100 100 100 100 100 100
100 100 100 100 100 100 99 100 100 98 8 89 100 97 8 18 89 21 12 5 5 5 6 12 6 5 5 5 5 5 97 45 100 100 100 100 100 100 99 97 99 98 67 96 98 87 66 100 100 100 100 100 100 100
100 100 100 100 100 100 100 100 100 91 72 9 61 78 5 10 64 71 46 4 4 4 5 5 6 5 50 75 7 20 17 100 99 100 100 100 100 100 100 100 100 100 100 100 100 100 86 95 97 91 100 100 100 100
100 100 100 100 100 100 100 100 100 100 93 86 99 79 28 14 5 25 34 6 4 5 5 5 5 45 40 98 87 18 47 79 100 100 100 100 100 100 100 100 86 98 100 100 100 100 100 98 99 100 100 100 100 100
100 100 100 100 100 100 100 100 99 100 100 99 99 100 100 8 18 9 16 34 6 5 5 4 5 8 22 22 13 16 24 84 100 100 100 100 100 100 100 100 100 100 100 100 100 100 100 80 94 100 100 100 100 100
100 100 100 100 100 100 100 100 100 100 100 100 100 100 30 5 6 6 5 5 5 5 12 5 24 5 18 5 34 5 5 98 100 100 100 100 100 100 100 100 100 100 100 100 100 100 99 94 100 100 100 100 100 100
100 100 100 100 100 100 100 100 100 100 100 100 100 100 99 100 72 5 0 5 5 5 59 5 43 6 73 5 5 5 87 74 100 100 100 100 100 100 100 100 100 100 100 100 100 100 100 100 100 100 100 100 100 100
100 100 100 100 100 100 100 100 100 100 96 100 100 100 100 100 68 5 0 3 5 6 61 5 7 5 57 22 5 6 6 6 77 100 100 100 100 100 100 100 100 100 100 100 100 100 98 100 100 100 100 100 100 100
100 100 100 100 100 100 100 100 100 100 100 100 100 100 97 100 100 22 4 5 5 88 41 36 14 5 83 50 2 5 5 5 5 86 100 100 100 100 100 100 100 100 100 100 100 100 100 100 100 100 100 100 100 100
100 100 100 100 100 100 100 100 100 98 34 94 100 100 100 100 100 60 13 5 46 100 35 5 4 10 78 58 5 5 4 5 5 33 100 100 100 100 100 100 100 100 100 100 100 100 100 100 100 100 100 84 100 100
100 100 100 100 100 100 100 100 100 98 35 91 100 100 100 100 100 100 96 100 95 100 16 0 31 99 100 74 6 5 5 5 3 5 70 100 100 100 100 100 100 100 100 100 100 100 100 100 100 100 100 100 100 100
100 100 100 100 100 100 100 93 95 100 89 95 100 100 100 100 100 92 100 100 100 100 16 7 97 100 100 100 31 22 5 5 0 4 21 96 100 100 100 100 100 100 100 100 100 100 100 100 100 100 100 100 100 100
100 100 100 100 100 100 100 96 100 100 99 100 100 100 100 100 100 100 100 94 100 100 9 76 100 100 100 100 34 5 5 2 4 5 25 88 100 100 100 100 100 100 100 100 100 100 100 100 100 100 100 100 100 100
100 100 100 100 100 99 100 100 100 100 100 100 100 100 100 100 94 96 100 100 100 70 4 100 57 87 100 98 37 21 5 5 3 12 100 100 100 100 100 100 100 100 100 100 100 100 100 100 100 100 100 100 100 100
100 100 100 100 100 97 83 100 100 100 100 100 100 100 100 100 96 50 100 100 74 33 100 100 100 100 100 97 59 31 26 82 100 97 100 100 100 100 100 100 100 100 100 100 100 100 100 100 100 100 100 100 100 76
100 100 100 100 94 100 100 100 100 100 100 100 100 100 100 86 71 99 100 28 56 99 100 100 82 98 87 47 82 8 13 100 56 75 100 100 100 100 100 100 100 100 100 100 100 100 100 100 100 100 100 100 98 92
100 100 100 100 88 99 97 100 100 100 100 100 100 100 100 100 100 100 38 90 100 100 98 56 47 72 95 34 6 5 48 96 60 62 100 100 100 100 100 100 100 100 100 100 100 100 100 100 100 100 100 100 100 97
98 99 100 90 81 100 100 100 100 100 100 100 100 100 99 100 100 100 100 100 100 99 95 32 99 95 10 5 7 5 29 100 99 93 100 100 100 100 100 100 100 100 100 100 100 100 100 100 100 100 100 100 95 65
100 100 100 100 100 100 100 100 100 100 100 100 100 100 100 100 100 100 100 98 76 40 13 33 23 5 14 6 56 75 100 95 100 100 100 100 100 100 100 100 100 100 100 100 100 100 100 100 100 100 100 100 96 85
100 100 100 100 100 100 100 100 100 100 100 87 96 100 100 100 100 100 67 51 46 59 40 64 40 5 5 18 90 100 100 100 100 100 100 100 100 100 100 100 100 100 100 100 100 100 100 100 100 100 100 64 75 83
100 100 100 100 100 100 100 100 100 100 82 82 75 81 90 62 23 12 76 35 85 86 32 5 5 5 5 90 100 100 100 98 100 100 100 100 100 100 100 100 100 100 100 100 100 100 100 100 100 100 100 91 88 58
100 100 100 100 100 100 100 100 95 54 58 77 71 55 15 7 5 6 74 20 12 5 5 5 5 5 58 100 92 100 100 100 100 100 100 100 100 100 100 100 100 100 100 100 100 100 100 100 100 100 100 74 54 58

GFSWCAN_prec_cloud_093.txt.gz
Cloud_Cover
100 100 100 100 51 68 100 100 84 29 73 100 80 78 100 100 66 0 0 3 0 0 0 2 4 5 3 5 29 6 5 5 3 2 2 0 0 0 0 0 0 0 0 2 0 2 0 0 0 0 0 1 4 2
100 100 100 100 100 100 89 100 100 64 100 71 100 100 63 100 100 94 0 0 3 5 2 0 0 0 2 5 5 5 5 5 5 5 5 5 5 4 0 0 0 0 0 0 4 2 0 0 0 0 0 0 0 0
100 100 100 100 97 100 97 100 93 100 70 100 100 100 22 91 99 100 95 7 0 0 2 2 5 5 2 0 4 5 5 5 5 5 5 5 5 1 0 0 0 0 1 5 5 6 3 1 1 1 0 0 5 5
100 100 100 100 100 78 98 100 90 98 100 92 100 100 100 96 44 100 51 99 84 5 1 0 0 0 2 4 4 0 2 5 5 5 5 5 5 5 5 4 0 0 5 5 79 66 91 92 100 60 8 5 47 47
100 100 100 100 100 99 86 83 100 54 85 62 86 94 100 100 100 100 21 99 100 100 60 2 0 0 0 5 1 4 5 5 5 5 7 5 5 5 8 5 5 5 4 3 5 14 75 100 100 100 92 97 68 18
100 100 100 100 100 100 81 66 87 100 83 100 100 100 100 100 70 100 100 97 94 100 100 36 100 27 0 0 5 5 5 24 99 72 100 38 58 28 91 11 41 44 5 5 5 5 11 65 31 100 100 100 100 93
100 100 100 100 100 100 31 24 88 56 100 43 59 73 100 100 96 98 85 100 98 95 5 94 99 100 94 3 2 3 57 60 8 87 100 100 80 94 100 92 77 98 10 5 9 8 17 18 30 36 67 86 100 100
100 100 100 100 100 100 100 86 73 82 14 47 87 72 71 100 87 26 100 100 100 100 100 100 100 87 45 97 6 5 5 20 99 81 84 99 100 100 100 32 100 100 60 52 5 36 57 34 60 62 50 37 60 90
100 100 100 100 100 100 100 100 100 100 99 13 94 57 29 83 100 65 82 100 100 100 90 95 100 100 98 82 20 5 5 5 5 89 100 100 100 100 100 96 49 100 31 46 18 9 58 82 54 30 56 58 34 16
100 100 100 100 100 100 100 100 100 100 100 14 15 26 18 95 82 97 99 95 98 57 100 100 100 100 100 25 6 5 5 5 8 5 6 98 100 100 100 100 100 95 100 36 7 85 99 88 91 100 93 100 100 100
100 100 100 100 100 100 100 100 100 100 100 97 19 53 88 11 6 37 74 100 97 93 57 100 100 90 93 88 26 5 5 13 34 5 6 11 100 100 100 100 100 100 100 100 92 47 66 67 83 100 100 100 100 100
100 100 100 100 100 100 100 100 100 100 100 100 88 100 90 60 52 31 98 48 100 95 8 84 61 100 73 68 30 77 8 36 37 6 23 50 100 100 100 100 100 100 100 100 100 100 98 93 100 100 100 100 100 100
100 100 100 100 100 100 100 100 100 100 100 100 100 100 100 95 74 10 100 64 38 62 54 67 37 44 100 98 62 18 49 71 5 64 37 5 20 100 100 100 100 100 100 100 100 100 100 100 100 100 100 100 100 100
100 100 100 100 100 100 100 100 100 100 100 99 100 100 100 100 28 5 5 5 26 49 17 92 16 5 27 100 34 10 5 13 91 87 18 94 53 50 100 100 100 100 100 100 100 100 100 100 100 100 100 100 100 100
100 100 100 100 100 100 100 100 100 100 100 100 100 100 100 100 29 36 28 6 6 34 5 6 5 7 43 100 85 71 30 90 6 5 80 85 99 96 100 100 100 100 100 100 100 100 100 100 100 100 100 100 100 100
100 100 100 100 100 100 100 100 100 100 100 100 100 100 100 100 75 67 60 42 8 63 10 5 23 70 93 89 78 99 43 20 5 5 6 16 78 90 100 100 100 100 100 100 100 100 100 100 100 100 100 100 100 100
100 100 100 100 100 100 100 100 100 100 100 100 100 100 100 98 74 98 5 5 5 5 5 5 5 6 83 100 80 93 79 5 5 10 12 6 5 76 99 100 100 100 100 100 100 100 100 100 100 100 100 100 100 100
100 100 100 100 100 100 100 100 100 100 100 100 100 100 100 100 100 100 99 8 6 5 5 13 5 5 5 86 100 100 96 6 18 11 6 5 5 52 32 100 100 100 100 100 100 100 100 100 100 100 100 100 100 100
100 100 100 100 100 100 100 100 100 100 100 100 100 100 100 100 100 100 100 10 6 5 8 39 6 29 5 52 99 100 98 7 58 7 5 4 3 7 46 60 100 100 100 100 100 100 100 100 100 100 100 100 100 100
100 100 100 100 100 100 100 100 100 100 100 100 100 100 100 100 100 100 35 30 81 43 100 98 16 20 57 76 100 100 79 6 93 26 5 4 0 5 39 83 100 100 100 100 100 100 100 100 100 100 100 100 100 100
100 100 100 100 100 100 100 100 100 100 100 100 100 100 100 100 100 100 74 42 44 19 100 90 5 5 58 91 96 100 5 7 99 50 54 14 1 5 6 91 75 95 100 100 100 100 100 100 100 100 100 100 100 100
100 100 100 100 100 100 100 100 100 100 100 100 100 100 100 100 100 100 98 67 76 98 100 70 5 96 90 60 98 100 7 8 94 100 77 70 5 17 5 18 19 89 98 100 100 100 100 100 100 100 100 100 100 100
100 100 100 100 100 100 100 100 100 100 100 100 100 100 100 100 100 100 90 99 100 100 100 63 26 77 73 100 100 88 6 10 74 79 48 20 5 5 5 5 8 81 88 98 100 100 100 100 100 100 100 100 100 100
100 100 100 100 100 100 100 100 100 100 100 100 100 100 100 100 100 100 100 100 100 100 100 82 11 24 30 99 100 75 74 40 84 83 66 5 5 5 5 5 24 98 95 99 100 100 100 100 100 100 100 100 100 100
100 100 100 100 100 100 100 100 100 100 100 100 100 100 100 100 100 100 100 77 100 100 100 67 8 14 100 98 80 98 100 100 100 100 100 58 8 7 5 21 99 97 98 82 100 100 100 100 100 100 100 100 100 100
100 100 100 100 100 100 100 100 100 100 100 100 100 100 100 100 95 53 71 100 100 100 98 93 80 100 100 99 100 100 99 97 100 97 60 5 11 8 23 74 100 98 100 100 100 100 100 100 100 100 100 100 100 100
100 100 100 100 100 100 100 100 100 100 100 100 100 100 100 90 29 65 100 100 100 98 100 100 100 100 100 100 100 100 100 100 100 31 5 34 77 77 88 100 100 100 100 100 100 100 100 100 100 100 100 100 100 100
100 100 100 100 100 100 100 100 100 100 100 100 100 85 100 100 100 100 100 97 90 100 100 100 100 100 100 100 96 100 100 100 92 32 55 37 63 80 99 99 100 100 100 100 100 100 100 100 100 100 100 100 100 100
100 100 100 100 100 100 100 100 100 100 97 100 100 100 100 100 100 100 100 99 100 100 100 100 100 100 100 99 94 98 85 83 66 9 5 16 64 99 100 98 100 98 100 100 100 100 100 100 100 100 100 100 100 100
100 100 100 100 100 100 100 100 99 99 100 100 100 100 99 100 100 100 85 84 100 100 100 100 100 99 70 42 100 97 49 30 4 7 9 19 95 100 95 100 100 100 100 100 100 100 100 100 100 100 100 100 100 100
100 100 100 100 100 100 100 100 100 100 100 96 99 100 91 95 68 82 99 100 100 100 100 99 76 51 98 54 5 15 24 5 5 47 94 94 92 71 100 100 100 100 100 100 100 100 100 100 100 100 100 100 100 100
100 100 100 100 100 100 100 100 100 98 97 98 93 99 100 100 100 100 100 100 100 100 36 50 99 81 12 5 5 5 1 5 5 27 99 100 98 100 100 100 100 100 100 100 100 100 100 100 100 100 100 100 100 100
100 100 100 100 100 100 100 100 100 100 99 100 92 92 100 100 100 100 100 98 59 32 5 5 6 5 5 5 5 5 5 5 29 100 99 98 100 100 100 100 100 100 100 100 100 100 100 100 100 100 100 100 100 100

GFSWCAN_prec_cloud_096.txt.gz
Cloud_Cover
100 100 100 100 100 99 100 100 98 100 58 22 5 24 5 10 39 43 63 7 5 0 0 0 0 0 1 0 4 0 0 2 5 5 5 5 5 4 0 0 0 0 0 0 3 2 3 0 0 0 0 0 0 0
98 100 100 71 100 100 76 94 30 69 45 48 95 33 5 37 86 66 11 19 32 13 4 0 0 0 0 0 5 5 5 3 1 4 5 5 5 5 5 5 4 4 1 0 0 0 0 0 0 0 0 0 1 0
100 100 99 100 100 100 100 100 100 100 85 44 91 99 31 44 42 32 6 75 31 5 5 5 5 2 3 4 0 3 9 47 50 78 29 6 5 5 5 5 5 5 0 0 5 5 5 5 12 2 1 1 0 0
100 100 85 100 100 100 100 100 100 41 100 99 58 100 99 8 90 45 20 86 14 29 13 47 6 6 6 5 14 5 5 5 38 100 99 72 72 17 20 5 5 14 5 5 5 51 24 79 22 44 28 6 24 53
83 100 100 100 100 100 100 100 100 88 38 100 100 100 97 75 18 60 60 37 52 57 78 6 46 83 100 74 18 6 31 16 5 5 33 97 99 9 98 91 4 8 10 5 5 3 5 8 61 14 56 100 100 100
61 99 90 86 92 100 100 100 100 100 100 36 100 100 66 63 98 38 91 94 11 86 58 100 100 12 76 91 100 96 79 21 5 5 6 5 5 66 100 100 100 25 100 32 5 11 5 5 5 5 18 94 63 60
100 100 100 93 100 100 100 100 100 100 100 100 100 100 100 71 36 53 74 48 90 51 62 17 44 100 83 65 13 99 58 41 5 5 9 5 5 6 39 79 100 62 54 100 78 6 66 5 73 21 82 20 71 100
100 100 100 100 99 100 100 100 100 100 100 100 100 100 100 100 98 44 25 15 14 66 67 76 78 11 55 92 66 22 77 93 20 18 22 26 30 24 43 11 84 13 60 100 100 30 22 98 89 99 89 93 100 100
100 100 100 100 100 100 100 100 100 100 100 57 100 100 100 100 100 96 44 22 5 16 76 63 96 95 51 50 63 7 17 98 7 8 17 15 28 25 3 0 54 100 88 44 99 100 100 88 90 100 100 100 100 100
100 100 100 100 100 100 100 100 100 100 100 100 10 99 100 100 100 100 100 100 100 40 20 13 38 52 98 37 12 55 5 50 36 6 5 30 16 5 5 2 0 0 77 100 100 100 100 100 100 100 100 100 100 100
100 100 100 100 100 100 100 100 100 100 100 100 98 49 17 100 100 100 100 86 43 5 15 5 6 9 43 92 100 44 37 58 92 5 6 6 10 5 2 5 5 5 5 50 100 100 100 100 100 100 100 100 100 100
100 100 100 100 100 100 100 100 100 100 100 100 100 98 100 50 46 100 100 100 100 90 22 70 7 5 11 73 100 72 29 44 83 56 97 73 4 5 5 5 5 60 55 82 100 100 100 100 100 100 100 100 100 100
100 100 100 100 100 100 100 100 100 100 100 100 100 100 73 100 85 100 100 100 100 100 100 100 37 6 5 8 98 33 27 62 7 73 76 23 2 4 5 6 5 5 65 98 99 100 100 100 100 100 100 100 100 100
100 100 100 100 100 100 100 100 100 100 100 100 100 100 100 100 100 100 94 100 100 100 100 100 98 78 11 11 22 33 28 26 79 98 82 67 31 5 5 5 66 5 58 87 100 100 100 100 100 100 100 100 100 100
100 100 100 100 100 100 100 100 100 100 100 100 100 100 100 100 100 100 100 100 100 100 100 100 100 100 99 6 7 8 55 98 19 89 48 12 19 8 5 5 5 11 5 65 100 100 100 100 100 100 100 100 100 100
100 100 100 100 100 100 100 100 100 100 100 100 95 100 100 100 100 100 100 100 100 89 98 35 79 100 67 6 65 50 39 95 5 33 8 88 47 26 5 5 5 5 5 20 22 93 100 100 100 100 100 100 100 100
100 100 100 100 100 100 100 100 100 100 100 100 100 100 100 100 100 100 100 100 98 100 100 99 95 100 100 100 100 78 5 33 16 5 41 85 51 5 6 5 5 6 81 34 13 96 100 100 100 100 100 100 100 100
100 100 100 100 100 100 100 100 100 100 100 100 100 100 100 100 100 100 100 100 100 100 100 100 100 100 100 90 100 79 6 90 16 31 18 88 94 8 21 5 2 6 5 60 85 81 93 100 100 100 100 100 100 100
100 100 100 100 100 100 100 100 100 100 100 100 100 100 100 100 100 100 100 100 100 100 100 100 100 100 100 98 72 5 5 5 32 94 14 10 53 5 5 5 5 5 5 5 5 11 47 92 86 100 100 100 100 100
100 100 100 100 100 100 100 100 100 100 100 100 100 100 100 100 100 100 100 100 92 91 80 100 100 100 100 100 100 50 6 29 20 100 80 5 19 8 5 5 5 5 5 28 5 5 5 18 100 100 100 100 100 100
100 100 100 100 100 100 100 100 100 100 100 100 100 100 100 100 100 100 100 100 98 34 100 100 100 100 100 100 100 100 92 69 22 69 100 100 100 43 5 29 5 5 5 5 5 67 59 5 29 100 100 100 100 100
100 100 100 100 100 100 100 100 100 100 100 100 100 100 100 100 100 100 100 100 94 71 100 100 100 100 100 81 100 84 100 55 87 100 100 92 100 99 21 24 5 5 5 5 6 96 88 80 74 99 100 100 100 100
100 100 100 100 100 100 100 100 100 100 100 100 100 100 100 100 100 100 100 100 100 100 100 100 100 100 98 100 100 100 99 70 100 100 100 98 100 87 43 40 5 19 5 5 4 13 100 100 100 100 100 100 100 100
100 100 100 100 100 100 100 100 100 100 100 100 100 100 100 100 100 100 100 100 100 100 100 100 100 100 100 100 100 100 100 100 100 100 100 93 100 29 98 41 7 8 5 5 5 54 82 74 100 100 100 100 100 100
100 100 100 100 100 94 100 100 100 100 100 89 100 100 100 100 100 100 100 100 100 100 100 100 100 99 86 82 100 100 100 100 100 100 100 18 14 93 97 73 63 20 10 5 32 89 71 16 99 99 100 100 100 100
100 100 100 96 96 45 69 95 100 100 100 100 100 99 100 100 100 100 100 100 100 100 100 100 100 100 100 100 100 100 100 100 100 99 100 28 78 30 100 100 69 97 14 5 59 56 82 97 99 81 100 100 100 100
100 100 100 73 58 72 100 100 100 100 100 100 98 100 100 100 100 100 100 100 100 100 100 100 100 100 100 100 100 100 100 100 100 97 26 5 25 100 100 99 100 78 11 24 89 98 100 100 100 100 100 100 100 100
100 91 54 100 92 58 100 100 100 100 100 100 100 100 100 100 100 100 100 100 100 100 100 100 100 100 100 100 100 100 100 99 74 54 53 28 96 100 100 100 100 46 51 97 98 100 100 93 99 100 100 100 100 100
94 78 88 100 100 100 100 100 99 100 100 100 100 100 100 100 100 100 100 77 73 94 100 100 100 100 100 100 96 93 62 90 49 31 29 73 98 88 81 81 50 53 5 42 77 89 100 100 100 100 100 100 100 100
84 89 67 80 100 100 100 100 99 100 100 100 100 100 100 100 100 100 100 98 42 19 87 82 19 5 18 6 71 92 81 10 5 48 52 48 25 8 43 79 100 80 22 90 87 100 100 100 100 100 100 100 100 100
68 96 85 90 100 100 100 100 100 100 100 100 100 100 100 100 100 100 91 14 37 56 49 15 61 52 5 5 5 5 5 11 48 33 46 10 5 23 76 100 65 61 97 96 100 100 100 100 100 100 100 100 100 100
98 100 100 100 99 100 96 99 100 100 100 100 100 100 100 100 100 96 56 5 17 5 66 65 13 5 4 4 5 5 5 5 5 5 5 5 9 65 100 100 100 100 100 100 100 100 100 100 100 100 100 100 100 100
100 100 100 100 100 100 100 100 100 100 100 100 100 100 100 100 76 74 100 86 66 10 10 5 5 5 5 5 5 5 5 8 5 5 5 5 5 64 93 100 100 100 100 100 100 100 100 100 100 100 100 100 100 100

GFSWCAN_prec_cloud_099.txt.gz
Cloud_Cover
100 100 100 98 59 38 100 86 100 98 100 5 5 5 10 21 30 41 54 15 5 5 35 50 0 0 0 5 5 4 4 2 2 0 2 5 5 5 5 5 4 0 0 4 4 5 4 0 0 0 0 0 0 0
99 100 100 100 91 59 100 100 86 23 100 100 5 71 100 9 6 11 41 58 25 5 4 3 6 13 5 4 2 4 2 2 6 5 5 5 0 5 7 19 5 5 5 0 0 0 0 0 0 0 0 0 0 5
100 99 100 100 100 100 100 100 100 6 39 100 20 39 100 100 44 5 45 17 32 14 5 5 5 5 5 5 0 2 5 5 2 5 5 5 5 4 4 4 5 5 3 5 5 5 3 0 0 2 0 0 0 5
100 100 100 100 100 100 100 100 100 45 81 99 100 100 100 100 100 96 39 5 5 35 5 12 5 5 5 5 6 5 3 2 4 5 5 5 5 3 3 0 1 1 1 7 29 4 27 6 5 5 5 5 6 5
100 100 100 100 100 100 100 100 100 97 92 5 76 94 100 100 100 100 100 99 84 28 91 27 23 5 5 5 5 5 5 5 5 6 34 31 9 5 5 5 4 0 0 0 60 100 23 20 5 5 16 92 100 100
100 100 100 100 100 100 100 100 100 100 100 71 100 100 100 100 100 100 100 100 100 99 78 91 38 6 5 5 5 5 5 12 5 6 6 5 32 6 5 10 0 0 0 0 0 52 100 66 6 13 99 92 84 100
100 100 100 100 100 100 100 100 100 100 100 100 100 100 100 100 90 100 100 100 88 100 83 75 36 27 86 32 5 5 5 5 5 5 30 22 19 22 28 13 0 0 0 0 0 4 44 98 88 90 78 63 99 83
100 100 100 100 100 100 100 100 100 100 100 100 100 100 100 100 100 100 100 100 100 100 99 29 6 34 100 100 75 12 9 5 6 6 38 80 34 86 64 3 0 0 1 1 0 0 5 47 90 73 100 100 99 100
100 100 100 100 100 100 100 100 100 100 100 100 100 100 100 100 100 100 100 100 100 100 92 100 100 93 100 100 100 100 100 100 9 11 15 25 28 61 31 5 0 5 2 4 5 5 2 3 95 100 100 100 98 91
100 100 100 100 100 100 100 100 100 100 100 100 100 100 100 100 100 100 100 100 100 100 100 100 21 6 96 99 100 100 100 100 72 38 7 74 13 5 5 11 5 2 5 0 5 18 88 100 59 78 100 100 100 100
100 100 100 100 100 100 100 100 100 100 100 100 100 100 99 100 100 100 100 100 100 100 100 100 100 89 47 9 5 30 100 100 100 53 20 33 37 5 5 4 21 52 4 0 2 5 41 90 100 100 100 70 100 100
100 100 100 100 100 100 100 100 100 100 100 100 100 100 100 100 100 100 100 100 97 100 100 99 100 100 100 62 88 13 85 100 100 52 64 95 5 5 5 5 5 5 5 5 0 1 5 66 99 94 100 100 100 100
100 98 100 100 100 100 100 100 100 100 100 100 100 100 100 100 100 100 100 100 100 99 54 100 92 70 16 100 86 44 88 98 100 100 100 95 60 5 5 5 5 17 4 33 2 2 1 24 98 100 100 100 100 100
100 100 92 100 100 100 100 100 100 100 100 100 100 100 100 100 100 100 100 100 100 100 100 92 98 100 100 43 76 95 14 39 89 100 100 100 100 53 25 19 37 62 6 5 5 5 4 5 75 100 100 100 100 100
100 96 87 100 100 100 100 100 100 100 100 100 100 91 100 100 100 100 100 100 100 100 100 100 100 97 100 100 85 100 84 93 98 100 100 100 100 100 100 62 18 33 37 33 5 5 5 5 5 56 100 100 100 100
100 100 100 100 100 100 100 100 100 100 100 100 100 100 100 100 100 100 100 100 100 100 100 100 100 100 100 100 97 100 100 100 100 100 100 95 100 100 100 54 18 20 48 6 8 5 5 5 5 10 74 84 81 100
100 100 100 84 100 100 100 100 100 100 100 100 100 100 100 100 100 100 100 100 100 100 100 100 100 99 100 100 100 100 100 19 100 100 100 100 100 100 54 6 8 5 7 49 19 5 5 5 5 5 5 10 72 99
100 81 92 100 100 100 100 100 100 100 100 100 100 100 100 100 100 100 100 100 100 100 100 98 92 100 100 100 100 100 27 5 44 100 100 100 100 100 100 57 98 42 78 87 61 26 5 5 5 5 5 26 94 100
98 100 100 94 100 100 100 100 100 100 100 100 100 49 19 98 100 100 100 100 100 100 100 75 20 100 100 100 100 91 78 92 100 100 100 100 100 100 100 100 87 93 98 100 44 62 5 5 5 5 5 5 91 100
100 100 100 100 100 100 100 100 100 100 100 82 95 96 94 100 100 100 100 100 100 100 100 98 99 100 100 100 100 100 100 100 100 100 100 100 100 100 100 100 99 100 100 99 49 53 5 5 5 5 5 5 12 81
100 100 100 100 100 100 100 100 100 98 96 97 63 100 83 94 100 100 100 100 100 100 64 87 100 100 100 100 100 100 100 100 100 100 100 100 100 100 100 100 100 100 100 100 81 91 8 5 5 5 5 5 20 98
100 100 100 100 100 100 100 100 100 80 96 72 100 100 100 100 100 100 100 100 98 16 54 100 100 100 100 100 100 100 100 100 100 100 100 100 100 100 100 100 100 100 100 100 100 97 24 7 5 5 5 69 100 100
100 100 100 100 100 100 100 100 100 87 100 100 98 93 100 98 100 95 95 15 17 100 100 100 100 100 100 100 100 100 100 100 100 100 100 100 100 100 100 100 100 100 100 100 100 93 33 13 22 7 5 6 5 46
100 100 100 100 100 100 100 100 100 76 100 100 100 96 92 88 99 100 97 11 100 100 100 100 100 100 100 100 100 100 100 100 100 100 100 100 100 100 100 100 100 100 100 100 100 97 6 7 93 81 5 5 5 56
100 100 100 100 100 100 100 98 98 99 75 94 92 100 100 100 100 90 66 78 100 100 100 100 100 100 100 100 100 100 100 100 100 100 100 94 100 100 100 100 100 100 100 100 100 49 5 75 93 100 47 32 65 11
100 100 100 100 93 100 100 98 87 81 88 93 99 100 100 100 100 46 11 100 100 100 100 100 100 100 100 100 100 100 100 100 100 100 100 98 100 100 100 100 100 100 100 100 49 5 10 73 66 71 74 90 100 100
100 100 100 100 53 95 100 100 45 50 64 28 91 100 100 100 52 5 100 100 100 100 100 100 100 100 100 100 100 100 100 100 100 100 100 100 100 100 100 100 100 100 78 40 5 16 67 84 92 100 100 100 91 100
100 99 55 100 100 96 97 77 50 7 5 5 39 91 99 51 5 100 100 100 100 100 100 100 100 82 90 100 100 100 100 100 100 100 100 100 100 100 100 100 91 7 14 7 30 92 91 100 100 100 99 91 99 100
84 72 60 81 77 83 16 6 19 69 5 6 13 80 100 93 98 100 100 100 100 100 100 100 93 67 100 100 100 100 100 100 100 100 100 100 100 92 85 14 5 34 24 31 91 99 97 96 96 100 98 100 100 100
96 44 76 77 80 40 67 14 5 18 100 98 98 78 43 79 100 100 100 100 100 100 100 88 100 100 100 100 99 100 100 100 100 100 98 68 10 30 12 23 55 49 62 85 56 7 94 100 100 100 100 100 100 100
16 73 78 82 67 89 96 99 100 100 100 100 100 83 100 100 100 100 100 100 100 100 99 100 97 96 99 68 79 100 100 72 33 5 29 28 5 5 38 40 10 31 30 99 99 94 100 100 100 100 100 100 100 100
88 83 78 88 67 100 80 99 100 100 100 100 100 100 100 100 100 100 100 100 100 100 100 100 100 84 85 95 63 30 5 5 5 5 5 21 8 27 59 53 37 88 100 100 100 100 96 99 100 100 100 100 100 100
100 100 100 100 100 100 100 92 59 76 100 100 100 100 100 100 100 100 100 100 100 100 100 100 100 100 68 36 5 5 5 5 5 5 5 5 5 37 54 59 65 96 100 99 98 100 100 100 100 100 100 100 99 100

GFSWCAN_prec_cloud_102.txt.gz
Cloud_Cover
100 85 100 100 100 100 100 100 100 100 9 13 91 5 6 11 32 9 6 36 5 5 14 5 5 5 5 5 5 2 0 0 4 5 5 5 0 0 0 0 0 0 1 5 5 23 13 0 0 0 0 0 0 0
100 100 100 100 100 100 100 100 100 100 16 31 36 5 5 5 5 10 20 74 99 44 91 11 5 5 5 5 5 5 5 5 5 5 2 4 0 0 2 0 0 0 0 0 0 0 5 5 5 2 0 0 0 0
100 100 100 100 100 100 100 100 100 100 100 74 87 35 20 38 15 39 100 45 5 79 100 11 6 5 5 5 5 5 5 5 13 5 9 5 5 4 5 5 0 0 0 0 0 0 0 4 99 100 7 4 1 1
100 100 100 100 100 100 100 100 100 100 100 100 85 100 76 99 99 5 16 100 47 32 19 61 6 6 5 5 5 5 5 5 5 5 11 5 15 5 4 0 2 0 0 1 0 0 0 0 1 54 98 70 59 7
100 100 100 100 100 100 100 100 100 100 100 100 100 100 94 55 7 5 96 64 68 100 100 100 100 98 5 64 20 4 4 5 5 7 46 76 7 30 5 19 31 5 2 2 4 0 0 0 0 0 1 5 69 100
100 100 100 100 100 100 100 100 100 100 100 100 100 100 100 100 100 100 94 98 100 100 100 100 100 100 100 100 100 93 5 5 43 18 55 5 5 38 71 15 5 5 5 7 2 0 0 0 0 0 0 5 4 6
100 100 100 100 100 100 100 100 100 100 100 100 100 100 100 100 100 100 100 100 100 100 100 100 100 91 100 100 73 100 99 79 5 56 88 74 99 18 78 57 54 5 5 5 5 5 2 0 0 0 0 4 4 24
100 100 100 100 100 100 100 100 100 100 100 100 100 100 100 100 100 100 100 100 100 100 100 100 100 100 95 92 96 90 66 21 78 11 65 98 96 74 78 98 68 16 5 5 5 8 13 15 3 0 0 5 64 95
100 90 94 100 100 100 100 100 100 100 100 100 100 100 100 100 100 100 100 100 100 100 100 100 100 100 100 99 98 100 83 68 95 31 54 44 87 95 7 5 5 6 18 5 5 5 6 5 5 5 1 1 10 99
100 100 84 72 100 100 100 100 100 100 100 100 100 100 100 100 100 100 100 100 19 100 100 100 100 100 100 96 29 51 94 98 100 100 99 99 32 56 100 14 55 27 37 98 17 5 22 8 11 5 5 4 5 5
100 100 100 100 100 100 100 100 100 100 100 100 100 100 100 100 100 100 100 100 100 100 100 100 100 100 100 100 81 12 53 46 97 100 99 91 43 98 97 5 14 11 25 15 74 96 97 84 38 19 5 5 4 0
11 51 100 100 100 100 100 100 100 100 100 100 100 100 100 100 100 100 100 100 100 100 100 100 100 100 100 100 100 87 83 100 100 100 100 100 82 82 89 60 8 22 60 82 85 91 95 100 94 8 5 5 5 5
5 8 100 100 100 100 100 100 100 100 100 100 100 100 100 100 96 100 100 100 100 100 100 100 100 100 100 100 100 100 98 100 100 100 100 100 100 100 96 100 100 94 96 100 100 100 100 100 100 71 5 5 5 5
4 4 32 52 99 100 100 100 100 100 100 100 100 100 100 71 79 100 100 100 100 100 100 100 100 100 100 100 100 100 100 100 100 100 100 100 100 100 16 99 99 100 100 100 100 100 100 100 100 100 52 5 0 5
97 4 5 8 5 11 96 100 100 100 100 100 100 100 72 46 90 28 100 100 100 100 100 100 100 100 100 100 100 100 100 99 100 96 96 100 100 100 94 91 100 100 100 93 100 100 100 100 100 100 100 5 5 5
35 47 53 46 22 76 100 100 100 100 100 100 100 100 70 24 33 88 70 38 72 100 100 100 100 100 100 100 100 100 100 100 100 97 98 100 100 100 99 100 100 100 100 91 66 98 100 100 100 100 100 42 5 5
1 82 77 92 96 97 100 100 100 100 100 100 100 100 37 52 5 89 100 100 98 94 100 100 100 100 100 100 100 100 100 100 98 42 64 100 100 100 100 100 100 100 88 86 88 98 100 100 100 100 100 50 10 11
44 20 5 9 100 100 100 100 100 100 100 100 100 79 93 96 29 88 100 100 100 98 100 98 99 36 100 100 100 100 100 100 100 50 17 95 100 100 100 100 100 79 56 80 92 99 100 100 100 100 100 100 76 81
4 5 7 100 100 100 100 100 100 100 100 92 37 28 53 98 91 100 100 100 100 100 100 100 80 60 99 100 100 100 100 100 100 84 92 100 100 100 100 100 100 82 90 96 100 100 100 100 100 100 100 100 77 41
5 29 62 100 100 100 100 100 100 100 100 67 98 92 32 78 100 100 100 100 100 100 100 89 40 4 100 100 100 100 100 100 100 100 100 100 100 100 100 100 100 100 100 100 100 100 100 100 100 100 100 96 54 20
7 40 100 100 100 100 100 100 100 82 46 85 80 100 100 92 100 100 100 100 100 100 52 5 5 98 100 100 100 100 100 100 100 100 100 100 100 100 100 100 100 100 100 100 100 100 100 100 100 100 100 99 100 69
74 100 100 100 100 100 100 100 100 75 77 87 100 53 99 100 100 91 100 100 100 14 22 87 99 100 100 100 100 100 100 100 100 100 100 100 100 100 100 100 100 83 99 100 100 100 100 100 100 100 100 100 100 99
96 100 100 100 100 100 100 100 100 100 93 100 100 92 92 81 72 91 100 88 24 5 70 100 100 100 100 100 100 100 100 100 100 100 100 100 100 100 100 100 100 80 100 100 100 100 100 100 100 100 96 100 100 100
100 100 100 100 100 100 100 88 100 100 100 100 98 94 82 78 95 100 74 28 15 100 100 100 100 100 100 96 98 100 100 100 100 100 100 100 100 100 100 100 100 100 100 100 100 100 100 100 100 100 97 100 100 100
100 100 100 100 100 98 100 100 91 90 56 88 97 100 90 88 100 100 36 7 100 100 100 100 100 100 100 65 100 100 100 100 100 100 100 100 100 100 100 100 100 100 100 100 100 100 100 100 100 100 98 100 100 100
100 85 100 99 92 52 48 87 98 81 90 91 60 72 90 100 100 57 5 52 100 100 100 100 100 100 100 100 100 100 100 100 100 99 100 100 100 100 100 100 100 100 100 100 100 100 100 100 100 100 100 100 100 65
83 81 64 25 46 68 63 32 29 20 90 79 84 100 100 100 90 5 5 12 80 100 100 100 100 100 100 100 100 100 100 100 70 59 100 100 100 100 100 100 100 100 100 100 100 100 100 100 89 87 53 60 63 89
93 14 100 100 66 49 29 57 38 62 100 50 59 100 100 49 5 5 7 97 100 100 100 100 100 100 100 100 100 100 98 96 84 100 100 100 100 100 100 100 100 100 100 100 100 100 88 55 81 97 93 86 97 86
82 87 90 91 89 79 18 5 5 26 69 74 10 66 98 98 96 100 100 100 100 100 100 100 100 66 55 99 100 99 100 77 100 100 100 100 100 100 100 100 100 100 100 100 77 64 71 61 99 99 93 91 79 99
87 60 94 86 100 60 5 6 5 5 88 100 100 96 54 12 100 100 93 64 32 48 100 100 68 88 100 100 100 100 97 100 100 100 100 100 100 100 100 100 100 100 100 45 31 62 76 19 63 93 83 92 100 100
19 84 54 39 11 19 29 66 76 5 96 100 100 68 44 99 100 100 96 100 100 89 100 99 94 98 100 100 98 100 100 100 100 100 100 100 100 100 100 100 100 99 33 48 76 74 84 85 90 92 100 100 100 100
91 89 43 86 48 49 87 57 52 44 100 100 89 74 87 100 22 88 100 100 100 100 88 100 100 100 100 100 100 100 100 100 100 100 100 100 100 100 100 55 24 5 5 9 86 85 100 95 100 92 100 100 100 100
96 87 84 83 90 96 50 91 68 86 89 82 38 82 90 34 5 83 100 100 100 98 100 100 100 100 100 100 100 100 100 100 100 100 100 100 100 75 62 66 58 5 5 25 86 86 87 99 82 100 100 100 100 100

GFSWCAN_prec_cloud_105.txt.gz
Cloud_Cover
100 100 100 100 100 100 100 100 100 100 100 98 5 38 37 6 94 8 19 99 24 5 5 5 5 5 5 5 5 5 5 5 3 0 4 5 5 2 2 2 0 4 3 5 30 52 42 4 0 1 31 76 55 38
100 100 100 100 100 100 100 100 100 100 100 100 100 19 100 99 7 100 87 7 98 5 5 70 5 24 58 5 5 5 18 5 5 5 5 5 4 5 5 44 5 4 3 0 0 5 5 5 4 0 0 45 96 85
100 100 100 100 100 100 100 100 100 100 100 100 100 100 100 100 62 98 100 85 90 12 79 27 41 5 21 48 54 10 15 62 81 71 77 48 5 5 5 5 5 5 5 5 6 5 1 5 5 5 4 0 1 49
100 100 100 100 100 100 100 100 100 100 100 100 100 100 100 100 100 100 5 41 84 100 92 100 83 60 91 70 14 5 21 58 6 89 26 33 28 5 5 5 5 6 51 22 6 57 5 5 5 5 5 5 2 0
100 100 100 100 100 100 100 100 100 100 100 100 100 100 100 100 100 99 93 80 54 100 100 94 100 100 96 61 95 97 15 12 6 9 49 76 5 5 5 31 55 15 11 6 5 6 18 5 5 5 10 5 5 1
100 100 100 100 100 100 100 100 100 100 100 100 100 100 100 100 100 100 98 74 100 100 100 100 100 100 100 100 100 88 94 58 87 98 69 56 11 60 51 48 5 5 13 98 90 13 66 16 5 12 50 5 5 5
100 100 100 100 100 100 100 100 100 100 100 100 100 100 100 100 100 100 100 98 100 100 100 100 100 52 44 98 100 100 100 100 11 65 79 100 33 24 62 60 100 98 97 100 100 93 34 50 98 97 100 76 51 6
100 100 100 100 100 100 100 100 100 100 100 100 100 100 100 100 100 100 100 100 100 100 100 100 100 100 99 100 100 100 100 100 97 64 76 98 71 72 100 100 100 100 90 78 100 100 100 100 99 100 100 100 100 86
100 100 100 100 100 100 100 100 100 100 100 100 100 100 100 100 100 100 100 100 100 100 100 100 100 100 100 100 100 100 100 100 100 100 97 67 100 93 58 100 100 100 22 13 56 98 75 91 98 100 100 100 100 100
98 100 100 100 100 100 100 100 100 100 100 100 100 100 100 100 100 100 100 100 100 100 100 100 100 100 100 100 100 100 100 100 100 100 100 100 100 27 5 96 100 68 5 5 7 16 100 100 97 100 100 100 100 100
32 40 90 100 100 98 100 100 100 100 100 100 100 100 100 100 100 100 100 100 100 100 100 100 100 100 100 100 100 82 94 100 100 100 100 100 100 100 73 100 100 79 57 8 85 88 100 100 100 100 100 100 94 100
4 5 4 52 100 100 100 97 100 100 100 100 100 100 100 100 100 100 98 100 100 100 100 100 100 100 100 100 100 100 98 72 100 100 100 100 100 100 97 100 98 100 58 42 56 100 100 100 100 100 100 100 99 91
12 10 5 4 0 47 83 100 100 100 100 100 100 100 100 100 100 100 19 40 99 100 100 100 100 100 100 100 100 100 85 100 97 100 100 100 100 100 100 100 9 66 11 48 100 100 100 100 100 100 100 100 100 100
5 25 4 1 4 3 5 84 98 100 100 100 100 100 100 80 52 35 6 5 9 7 35 99 100 100 100 100 100 100 100 100 100 100 100 100 100 100 100 100 60 5 5 5 82 100 100 100 100 100 100 100 100 100
24 55 7 1 0 3 3 63 77 100 100 100 100 100 85 21 15 48 81 28 74 100 100 99 67 83 100 100 100 100 100 100 100 100 100 100 69 100 100 100 93 10 5 5 72 100 100 100 100 100 100 100 100 100
0 8 14 0 0 0 2 3 89 100 100 100 100 100 82 63 46 73 93 99 100 100 100 100 100 98 78 100 94 49 24 96 100 100 100 88 100 93 97 100 100 91 11 50 100 100 100 100 100 100 100 100 100 100
3 76 3 0 0 0 0 8 97 100 100 100 57 57 74 51 5 52 98 100 100 100 100 100 100 99 97 71 73 5 74 100 100 93 100 94 91 51 64 100 100 100 90 100 100 100 100 100 100 100 100 100 100 100
8 0 0 0 0 8 42 99 100 100 90 100 74 5 89 43 8 87 100 100 100 100 100 100 100 100 65 5 20 18 95 100 100 83 97 91 99 74 100 99 100 100 100 100 100 100 100 100 100 100 100 100 100 100
1 0 0 0 18 98 100 100 100 100 50 38 45 44 20 16 8 25 98 100 100 100 100 100 100 93 5 11 76 100 100 100 100 83 97 99 100 99 94 100 100 100 100 100 100 100 100 100 100 100 100 100 100 100
3 3 2 4 26 100 100 100 100 100 100 27 40 62 44 70 13 7 41 100 100 100 100 100 68 26 87 100 100 100 100 100 100 71 100 100 100 100 100 100 100 100 100 100 100 100 100 100 100 100 100 100 100 100
18 8 10 70 79 100 100 100 100 100 96 99 45 80 43 78 96 52 44 100 100 100 96 100 100 100 100 100 100 100 100 100 100 90 88 100 100 100 100 100 100 100 100 100 100 100 100 100 100 100 100 100 100 100
48 2 82 31 100 100 100 100 100 100 100 94 100 37 88 100 96 95 97 100 100 23 54 100 100 100 100 100 100 100 100 100 100 100 100 100 100 100 100 100 100 100 100 100 100 100 100 100 100 100 100 100 100 100
15 44 100 100 100 100 94 100 100 82 95 100 100 100 100 91 77 77 100 100 40 2 92 100 100 100 100 100 100 100 100 100 100 100 100 100 100 100 100 100 100 100 100 100 100 100 100 100 100 100 100 100 100 100
68 100 100 100 100 96 100 96 100 100 100 98 99 81 73 96 100 100 67 50 1 1 14 100 100 100 100 99 82 100 100 100 100 100 100 91 100 100 100 100 100 100 100 100 100 100 100 100 100 100 100 100 100 100
100 100 100 100 97 100 100 100 100 100 96 89 65 84 100 94 100 100 34 5 1 0 0 7 3 63 69 88 96 100 100 98 87 100 100 99 100 85 99 100 98 100 100 100 100 100 100 100 100 100 100 100 100 100
100 89 87 5 42 46 92 99 96 78 87 96 92 98 98 100 100 59 5 5 1 0 0 2 1 1 12 100 94 100 100 100 100 100 100 100 68 10 74 92 100 100 100 100 100 100 100 100 100 100 100 100 100 100
92 69 47 52 97 95 54 39 27 20 97 89 93 99 100 100 56 5 5 41 97 13 27 34 40 64 100 100 100 91 100 100 100 100 100 100 83 92 100 100 100 100 100 100 100 100 100 100 100 100 100 100 100 100
45 12 31 74 87 55 37 69 97 89 89 73 63 84 28 33 3 84 100 100 100 61 99 100 74 99 96 21 78 100 100 100 95 100 100 100 100 100 100 100 100 100 100 100 100 100 100 100 100 100 100 100 96 73
99 89 99 100 100 97 87 44 7 5 5 5 5 5 5 5 7 100 100 98 65 6 99 100 100 87 90 100 100 86 100 100 100 100 100 100 100 100 100 100 100 99 100 100 100 100 100 100 100 100 71 20 79 75
84 20 36 77 100 67 6 5 5 14 35 5 10 5 5 5 10 100 100 87 99 100 100 99 100 100 93 100 100 84 100 100 100 100 99 78 85 100 100 100 100 99 100 100 100 100 100 100 95 79 62 74 83 88
44 47 84 54 30 5 5 55 73 5 65 64 66 22 0 25 5 22 100 100 100 100 100 100 100 97 74 97 100 100 100 100 96 98 99 100 100 100 100 100 100 100 100 100 100 63 88 95 81 53 6 22 24 70
75 62 60 88 64 35 99 94 83 63 71 80 10 77 36 7 31 7 96 100 100 100 100 100 100 100 100 100 100 100 99 100 100 100 100 100 100 100 100 100 100 100 100 100 98 99 59 65 59 51 8 60 55 80
90 88 87 94 94 99 86 56 96 61 90 93 48 5 5 4 0 1 9 100 100 100 100 100 100 100 50 99 99 97 100 100 100 100 100 100 100 100 100 100 100 100 100 100 97 66 52 77 77 75 99 62 87 68

GFSWCAN_prec_cloud_108.txt.gz
Cloud_Cover
100 100 100 100 100 100 100 100 100 100 100 93 100 100 100 100 100 98 4 100 100 16 37 5 5 11 97 20 38 34 73 65 33 12 5 5 5 5 4 5 5 4 5 23 56 84 49 8 5 5 5 3 5 5
100 100 100 100 100 100 100 100 100 100 100 100 91 100 100 100 98 100 84 100 100 26 46 94 5 5 11 100 93 6 26 36 69 5 5 5 5 5 5 5 5 5 6 26 5 5 5 5 5 5 5 5 5 5
100 100 100 100 100 100 100 100 100 100 100 100 100 100 100 100 100 100 100 100 100 100 92 100 40 84 51 20 100 65 5 5 6 36 6 5 35 5 5 81 16 64 21 61 61 6 5 5 5 5 5 8 11 5
100 100 100 100 100 100 100 100 100 100 100 100 100 100 100 100 100 97 100 100 100 100 99 27 14 100 99 44 66 5 67 8 5 5 5 41 45 37 7 30 53 100 100 80 35 7 5 5 5 10 6 5 5 5
100 100 100 100 100 100 100 100 100 100 100 100 100 100 100 100 100 100 100 100 100 100 100 100 85 100 100 12 88 100 56 14 48 94 55 42 5 37 99 5 6 31 71 72 76 5 28 7 5 5 62 6 40 31
100 100 100 100 100 100 100 100 100 100 100 100 100 100 100 100 100 100 100 100 100 100 100 100 100 100 100 100 100 45 100 100 92 78 100 100 9 5 37 94 34 89 99 100 34 5 22 49 6 60 7 5 5 12
100 100 100 100 100 100 100 100 100 100 100 100 100 100 100 100 100 100 100 100 100 100 100 100 100 100 100 100 100 100 100 100 100 88 100 100 100 100 100 55 9 100 100 100 100 93 9 6 44 53 100 5 5 5
100 100 100 100 100 100 100 100 100 100 100 100 100 100 100 100 100 100 100 100 100 100 100 100 100 100 100 100 100 100 100 100 46 90 98 100 100 100 99 99 95 61 72 24 7 78 72 9 5 74 95 42 5 5
100 100 100 100 100 100 100 100 100 100 100 100 100 100 100 100 100 100 43 100 100 100 100 100 100 100 100 100 100 100 100 100 100 100 100 94 100 100 22 100 100 92 86 91 12 94 95 82 8 61 99 100 97 81
66 98 100 100 100 100 100 100 100 100 100 100 100 100 100 100 54 98 87 65 100 100 100 100 100 100 100 100 100 100 100 100 100 100 100 100 100 100 100 22 77 100 100 100 100 98 89 98 16 58 26 100 100 100
100 100 92 100 100 100 100 100 100 100 100 100 100 100 100 100 81 78 77 92 67 100 96 100 100 100 100 100 100 38 72 97 100 100 100 100 100 100 100 100 85 100 100 100 100 100 100 100 100 100 100 100 100 100
100 100 100 92 36 40 98 100 99 100 100 100 100 100 100 100 100 94 84 33 95 25 50 49 46 95 94 70 74 100 64 80 92 100 100 100 100 100 100 100 100 100 100 100 100 97 100 100 100 100 100 100 100 100
100 100 100 100 100 100 100 95 39 100 100 100 100 100 100 100 100 100 97 72 69 5 8 66 92 10 25 12 7 9 80 81 32 85 100 100 100 100 100 100 100 100 100 99 80 97 100 100 100 100 100 100 100 100
6 30 24 89 19 43 85 84 100 100 100 100 100 100 93 98 67 81 96 89 65 40 99 98 85 97 100 100 100 94 56 60 97 100 100 100 100 99 100 100 100 100 99 60 80 54 74 100 100 100 100 100 100 100
5 2 16 45 5 56 30 47 32 91 83 100 100 100 65 6 7 5 5 54 100 100 100 100 100 100 100 100 100 100 100 98 46 44 94 74 93 87 75 65 38 83 92 92 97 40 97 100 100 100 100 100 100 100
7 4 2 24 0 1 11 9 34 100 100 100 100 92 73 66 22 5 53 100 100 100 99 100 100 100 100 100 100 99 28 8 95 100 100 100 100 85 80 88 71 68 100 100 90 89 100 100 100 100 100 100 100 100
5 73 4 0 0 0 75 60 95 100 100 100 91 3 5 53 5 5 4 5 86 100 100 100 100 100 100 100 99 91 94 94 100 100 100 100 100 100 100 90 87 92 87 100 100 100 99 73 100 100 100 100 100 100
8 4 5 5 3 2 13 100 100 100 100 40 92 5 1 4 5 5 5 5 33 16 38 100 100 100 100 100 100 100 100 100 100 100 89 89 93 99 100 100 81 89 97 100 100 100 100 100 100 100 100 100 100 100
5 6 69 24 36 48 100 100 100 100 25 5 9 5 5 2 5 4 5 27 49 89 100 100 100 100 45 85 100 100 100 100 100 100 99 100 99 98 100 100 99 100 100 100 100 100 100 100 100 100 100 100 100 100
20 63 100 100 100 100 100 100 100 100 30 42 42 29 5 5 4 5 5 6 22 96 100 100 49 3 3 48 100 100 100 100 100 84 91 80 100 100 100 99 97 100 100 100 100 100 100 100 100 100 100 100 100 100
98 49 100 100 100 100 100 99 87 28 47 100 5 15 45 80 65 87 64 69 100 98 37 5 0 0 0 1 51 93 40 100 95 95 88 24 100 100 100 100 100 100 100 100 100 100 100 100 100 100 100 100 100 100
24 98 100 100 100 100 100 77 88 22 76 88 85 97 99 73 83 98 100 100 100 12 4 1 0 0 0 1 1 3 87 100 100 73 75 97 100 100 100 100 100 100 100 100 100 100 100 100 100 100 100 100 100 100
100 100 100 100 100 100 28 84 90 73 98 47 67 97 86 91 84 98 100 98 10 5 78 79 7 0 0 0 0 5 13 13 95 97 99 100 100 100 100 100 100 100 100 100 100 100 100 100 100 100 100 100 100 100
100 100 100 100 98 46 77 100 75 90 92 100 81 61 77 22 67 100 88 57 9 96 99 5 18 84 81 7 5 3 0 3 16 100 100 85 94 100 100 100 100 100 100 100 100 100 100 100 100 100 100 100 100 100
100 100 100 62 68 94 100 92 100 100 100 100 100 100 100 90 100 100 17 5 2 6 19 67 5 5 5 5 1 4 35 43 28 47 99 100 97 98 100 100 100 100 100 100 100 100 100 100 100 100 100 100 100 100
100 79 79 7 17 87 62 55 73 35 39 80 86 100 100 100 100 57 5 0 13 99 100 82 38 5 38 71 51 4 26 76 5 5 29 97 100 90 83 99 100 100 100 96 88 98 100 100 100 100 100 100 100 100
100 26 81 16 36 99 97 33 19 9 72 100 100 100 100 100 94 5 70 71 100 100 56 100 100 42 74 100 100 100 100 100 95 72 94 100 100 100 91 74 100 100 100 100 94 100 100 100 100 100 100 100 91 97
79 99 30 33 100 66 65 51 63 78 39 82 97 100 96 31 3 5 60 100 100 100 82 9 63 94 82 100 93 96 99 100 100 91 100 100 100 100 90 98 100 99 100 100 100 100 100 100 100 100 100 91 100 100
40 51 100 100 98 93 99 48 5 29 79 100 100 56 5 5 5 5 3 5 5 5 5 60 100 56 59 100 100 100 97 79 54 96 100 100 96 99 100 100 100 100 100 100 100 100 100 100 100 100 100 100 100 100
58 44 89 100 98 99 6 28 54 53 61 67 99 61 15 5 5 5 5 5 5 2 0 84 82 25 100 100 100 100 100 100 100 100 96 100 85 94 100 100 98 98 100 100 100 100 100 100 100 100 100 100 100 100
20 75 87 60 13 6 5 7 100 100 100 100 100 63 2 4 5 5 5 4 0 0 4 12 5 96 100 100 100 100 98 100 100 97 96 100 100 99 100 100 100 100 100 100 100 100 100 100 100 100 100 100 100 100
98 69 8 80 37 38 82 62 60 79 85 100 44 80 62 34 44 0 3 5 5 0 0 0 5 72 100 100 100 99 92 87 100 100 100 100 100 100 100 100 100 100 100 100 100 100 100 100 100 100 100 100 100 41
100 100 100 100 93 99 100 73 97 93 96 97 74 6 5 5 5 0 4 11 0 0 0 0 0 92 100 98 100 100 100 100 100 100 100 100 100 100 100 100 100 100 100 100 100 100 100 100 100 100 100 60 67 68

GFSWCAN_prec_cloud_111.txt.gz
Cloud_Cover
100 100 100 100 100 100 100 100 100 100 100 100 100 100 100 100 100 100 98 100 100 63 100 66 57 5 99 100 90 63 87 47 8 5 5 5 5 5 6 5 6 5 6 59 37 73 21 5 5 2 0 5 0 2
100 100 100 100 100 100 100 100 100 100 100 100 100 100 100 100 100 93 100 100 100 100 100 92 100 16 3 98 99 74 93 5 24 64 5 5 10 47 5 9 5 4 6 5 5 3 0 0 0 1 5 4 3 4
100 100 100 100 100 100 100 100 100 100 100 100 100 100 100 100 100 100 100 100 100 100 100 100 100 100 100 14 100 100 99 83 100 19 100 100 71 99 59 1 5 19 3 5 3 5 9 0 0 5 5 5 35 9
100 100 100 100 100 100 100 100 100 100 100 100 100 100 100 100 100 100 100 100 100 100 100 97 100 100 100 100 100 100 100 100 98 84 100 100 100 11 99 10 13 63 18 31 15 31 5 5 2 5 5 5 31 90
100 100 100 100 100 100 100 100 100 100 100 100 100 100 100 100 100 100 72 100 100 100 100 100 100 100 100 100 100 100 100 100 100 100 100 100 100 69 96 100 50 93 100 100 99 100 27 8 6 22 5 16 32 82
92 100 100 100 100 100 100 100 100 100 100 100 100 100 100 100 100 100 100 100 100 100 100 100 100 100 100 100 100 78 96 100 100 100 100 100 100 100 100 100 100 100 100 100 100 100 100 100 100 100 96 48 19 100
100 100 99 100 100 100 100 100 100 100 100 100 100 100 100 100 100 100 100 100 100 100 100 100 100 100 100 100 100 100 100 100 100 100 100 100 100 100 100 100 100 100 100 100 98 56 95 100 100 100 100 100 100 100
100 100 100 86 98 45 99 100 100 100 100 100 100 100 100 100 100 100 100 99 100 100 100 100 100 100 100 100 100 100 100 100 100 100 100 100 100 100 100 100 100 100 100 71 100 100 100 100 100 100 100 100 100 100
100 99 86 100 100 100 98 97 98 100 100 100 100 100 100 100 100 100 72 68 96 100 100 100 100 100 90 84 20 42 88 100 100 100 100 85 100 100 100 100 72 74 89 100 100 99 100 100 100 100 100 100 100 100
100 100 100 100 100 100 100 100 97 100 100 100 100 100 100 100 100 99 92 99 100 100 100 100 100 100 100 33 28 48 65 54 98 86 89 100 100 100 100 100 100 100 69 99 98 100 72 81 76 92 100 100 100 100
100 100 100 100 100 100 100 100 100 100 100 100 100 100 100 100 100 100 100 100 100 100 100 100 50 21 89 40 78 87 75 63 100 62 85 93 100 100 100 100 100 81 48 25 12 61 90 88 100 100 100 100 100 100
100 82 100 100 81 100 93 100 100 100 100 100 100 100 100 100 100 100 100 100 100 100 100 100 99 31 30 30 58 25 24 70 78 62 99 81 100 95 80 19 5 11 5 5 5 5 5 24 91 86 100 100 100 100
45 5 20 96 64 100 76 39 6 98 88 100 100 100 100 100 100 100 100 100 100 100 100 100 100 99 100 100 100 100 75 78 7 90 58 60 42 5 5 2 3 4 5 5 42 74 20 32 96 83 20 15 99 100
10 86 37 4 99 48 10 29 5 53 100 100 100 99 98 61 100 100 100 100 100 100 100 93 100 100 94 100 100 100 87 70 89 84 5 86 30 7 10 76 100 5 5 5 46 65 14 54 90 100 100 100 100 100
8 50 18 5 12 22 4 19 8 74 100 96 100 72 62 52 69 69 46 100 71 70 66 90 100 100 100 100 100 100 100 99 69 26 100 31 95 100 95 100 82 21 82 6 70 92 79 99 100 100 100 100 100 100
63 7 2 4 12 5 34 99 98 47 100 100 100 94 62 73 35 36 50 46 98 98 24 38 71 98 100 100 100 100 97 55 68 100 100 93 100 100 100 56 7 98 100 85 100 100 100 100 100 100 100 100 100 100
99 88 59 5 95 100 100 99 100 100 100 100 96 5 5 5 4 5 5 4 5 66 100 100 100 100 100 100 93 67 72 98 100 100 100 100 100 100 100 80 100 98 66 100 100 100 100 100 100 100 100 100 100 100
66 5 7 89 100 48 35 80 100 100 99 19 75 5 5 2 4 1 1 5 5 5 28 79 84 100 100 96 91 60 6 11 98 100 100 100 100 100 100 96 100 100 98 100 100 100 100 100 100 100 100 100 100 100
8 96 100 100 100 100 100 100 100 76 70 3 0 0 2 5 5 5 28 40 63 92 100 100 100 93 5 0 0 0 0 0 1 53 72 100 87 65 90 100 100 100 100 100 100 100 100 100 100 100 100 100 100 100
100 100 100 100 100 100 100 100 100 85 4 1 5 5 5 0 0 2 5 5 26 98 100 99 31 6 0 0 0 0 0 0 0 0 1 72 100 99 100 99 100 100 100 100 100 100 100 100 100 100 100 100 100 100
100 100 100 100 100 100 100 100 100 98 5 6 4 5 45 35 22 14 13 22 100 100 56 5 5 0 0 0 1 77 100 79 7 5 0 1 58 100 77 6 90 86 100 100 100 100 100 100 100 100 100 100 100 100
100 100 100 100 100 100 100 100 98 44 95 61 78 74 51 50 15 69 77 100 100 32 5 3 0 0 0 8 100 100 99 6 0 5 5 17 91 60 85 51 91 98 97 96 100 100 100 100 100 100 100 100 100 100
100 100 100 100 100 100 94 66 90 74 98 32 68 57 66 16 27 60 100 79 6 0 0 0 0 0 84 100 99 8 5 5 5 5 5 4 8 14 5 85 99 28 96 100 100 100 100 100 100 100 100 100 100 100
100 100 100 100 100 98 83 89 48 86 78 69 83 42 1 1 21 100 94 6 1 0 0 0 26 100 100 91 6 52 5 44 5 5 5 5 5 5 5 19 94 100 95 100 100 100 100 100 100 100 100 100 100 100
100 100 100 100 100 100 100 70 75 70 44 5 41 80 5 20 94 100 5 0 0 0 0 0 84 100 16 84 97 9 13 51 5 5 5 5 5 5 5 86 69 26 100 55 91 100 100 100 100 100 100 100 100 100
100 99 97 85 61 75 53 5 17 27 5 99 95 45 64 100 100 77 1 0 5 95 100 100 97 68 85 98 16 17 100 90 33 8 44 56 23 13 16 23 100 81 6 54 100 100 100 100 100 100 100 100 100 100
100 94 60 10 7 23 48 6 2 62 72 98 35 96 100 100 57 2 0 8 98 100 100 100 100 100 68 45 5 6 99 100 98 58 98 100 98 79 79 66 93 82 100 100 100 100 100 100 100 100 100 100 100 100
35 5 6 4 61 4 5 5 15 60 9 71 100 100 100 44 3 0 1 79 100 100 100 100 100 100 43 31 5 26 100 100 46 48 96 100 100 100 96 100 98 97 100 100 100 100 100 100 100 100 100 100 100 100
48 6 9 33 86 97 94 61 44 3 3 100 100 100 78 12 0 0 20 100 34 73 98 100 100 96 22 0 3 98 100 96 60 65 92 100 100 100 98 94 99 100 100 100 69 100 100 100 100 100 100 100 100 100
25 29 98 93 100 100 9 26 13 92 100 100 100 100 53 4 9 66 83 75 4 4 42 77 67 2 0 0 0 97 100 42 10 65 82 98 100 100 98 100 90 98 100 100 100 100 100 100 100 100 98 100 98 99
68 26 70 72 43 4 44 100 100 100 100 99 100 89 5 4 4 4 5 4 5 0 0 0 0 0 0 0 1 6 82 100 29 65 100 100 100 100 100 100 87 100 100 100 100 100 100 100 100 99 94 96 99 100
100 80 84 49 5 7 31 50 100 100 43 73 10 75 63 37 1 0 0 3 0 0 0 0 0 0 0 0 0 1 37 83 100 100 100 100 100 100 100 100 100 100 100 100 100 100 100 100 100 100 100 100 100 100
100 100 100 99 62 8 52 15 85 83 80 43 5 5 5 5 5 0 0 0 0 0 0 0 0 0 0 0 0 0 5 52 100 100 100 100 100 100 100 100 100 100 100 100 100 100 100 100 100 100 100 100 100 97

GFSWCAN_prec_cloud_114.txt.gz
Cloud_Cover
100 100 100 100 100 100 100 100 100 100 100 100 100 100 100 100 100 100 100 100 100 100 100 91 75 100 100 85 77 99 100 60 96 100 40 96 100 30 92 37 54 5 86 79 77 88 24 73 5 4 7 38 100 12
100 100 100 100 100 100 100 100 100 100 100 100 100 100 100 100 100 100 100 100 100 100 100 100 100 98 82 98 96 66 100 100 100 89 100 27 100 100 100 100 86 5 97 100 100 64 100 61 95 76 25 6 12 86
100 100 100 100 100 100 100 100 100 100 100 100 100 100 100 100 100 100 100 100 93 96 100 100 100 100 100 100 100 100 100 100 100 100 100 100 100 100 100 100 100 100 100 100 100 67 100 100 100 100 100 100 98 11
100 100 100 100 100 100 100 100 100 100 90 100 100 100 100 100 100 100 100 100 100 100 84 91 98 100 100 100 100 100 100 100 95 100 100 100 100 100 100 100 100 6 99 100 100 100 100 100 100 100 100 100 100 100
100 100 100 100 89 100 100 100 100 100 100 56 99 100 100 100 100 100 100 100 100 100 49 77 80 97 100 100 100 100 100 100 100 100 100 100 100 100 100 100 100 60 88 60 100 100 100 81 99 100 100 100 100 98
100 100 100 79 72 100 100 100 100 100 100 97 99 100 100 100 100 100 100 100 100 100 100 100 98 31 90 100 100 93 75 100 100 100 100 100 100 100 100 100 100 100 100 100 100 100 100 94 100 100 100 89 100 100
100 100 100 100 100 66 24 56 100 100 100 100 100 100 100 100 100 100 100 100 100 100 100 100 100 100 100 100 36 14 12 30 10 98 100 100 100 100 100 100 100 100 100 100 100 100 100 100 68 78 100 100 96 94
100 100 100 100 100 100 94 96 67 100 100 99 85 74 100 100 100 100 100 83 100 100 100 100 100 100 100 100 93 78 100 99 75 47 90 100 99 72 82 96 100 99 100 100 100 100 100 100 100 100 100 14 64 81
100 100 100 100 100 100 100 100 100 100 100 100 94 95 100 100 100 100 100 100 100 100 100 100 100 100 100 100 100 100 100 100 65 98 87 51 70 100 6 4 14 11 9 1 4 44 100 100 100 97 98 92 89 98
100 100 100 100 100 100 100 100 100 100 100 100 100 95 100 100 100 100 100 100 100 100 100 100 98 38 13 21 58 96 100 100 100 100 39 100 100 100 80 0 0 4 5 0 5 2 5 5 5 5 9 61 98 100
100 99 100 100 100 100 100 100 100 100 100 100 100 100 100 100 100 100 100 100 100 100 100 100 100 85 93 100 100 100 91 63 100 81 80 85 92 100 93 5 1 0 0 0 0 0 5 5 31 57 74 90 100 100
100 100 94 100 100 100 100 100 100 100 100 100 100 100 100 100 100 100 100 100 100 100 100 98 96 66 87 95 100 97 98 86 87 75 100 100 97 99 7 5 5 23 3 2 5 6 51 90 100 100 100 100 100 100
78 100 100 100 100 100 90 100 100 100 100 100 100 100 100 99 100 100 99 100 96 100 99 41 7 94 100 60 96 81 96 80 6 91 86 70 100 44 57 73 68 20 7 63 76 100 100 100 100 100 100 100 100 100
76 98 100 100 100 100 100 99 100 100 100 100 100 100 100 85 100 71 100 61 59 66 100 97 20 95 100 100 100 100 100 97 100 94 100 100 94 100 100 100 99 100 100 100 100 100 100 100 100 100 100 100 100 100
100 100 61 29 100 100 100 94 100 98 69 100 100 87 82 38 28 95 92 74 5 66 86 93 81 23 68 84 61 78 100 77 24 15 91 100 80 94 100 100 100 100 100 100 100 86 100 100 100 100 100 100 100 100
100 98 88 100 100 100 94 100 100 100 100 100 100 98 99 99 69 50 40 43 64 5 5 17 98 100 100 66 98 41 86 10 13 49 31 9 3 100 100 100 100 100 100 100 91 100 100 100 100 100 100 100 100 100
89 98 10 61 99 100 92 75 34 100 100 100 100 83 100 94 100 92 99 99 5 24 61 100 98 69 69 99 86 33 34 6 20 4 3 3 0 91 100 100 100 99 19 45 100 100 100 100 100 100 100 100 100 100
58 77 71 100 100 100 100 100 100 100 100 90 64 78 6 5 6 7 5 51 86 32 44 91 42 94 47 72 1 1 2 0 0 0 0 0 88 39 56 58 3 54 79 6 17 100 100 100 100 98 100 100 100 100
5 54 94 100 100 100 100 100 100 100 17 5 1 0 5 2 2 4 46 6 21 91 100 100 100 40 4 4 0 0 0 0 0 0 0 0 0 0 0 4 0 0 64 21 5 8 41 77 97 92 100 100 100 100
3 29 100 100 100 100 100 100 100 100 8 0 2 3 3 5 0 1 0 2 7 45 52 59 22 4 2 0 0 0 0 4 4 2 0 0 2 0 4 5 5 3 3 5 4 15 26 100 98 100 100 98 100 100
21 21 95 100 100 100 100 100 100 75 6 8 4 0 1 2 0 1 0 1 5 44 21 5 5 0 0 0 0 0 99 100 86 100 78 7 0 1 5 0 0 4 3 1 0 97 83 93 100 100 100 100 100 100
50 93 100 100 100 100 100 100 100 46 80 18 24 12 10 5 5 5 2 80 86 34 32 5 4 0 1 3 0 82 95 29 99 100 74 27 5 5 5 5 5 5 5 5 14 84 96 100 100 100 100 100 100 100
100 100 100 100 100 100 100 100 100 100 100 82 35 84 25 3 1 1 17 16 8 4 2 5 5 5 5 0 0 0 1 72 100 87 5 5 5 5 5 5 5 5 5 5 5 5 58 100 100 100 100 100 100 100
100 100 100 100 100 100 100 100 66 30 16 11 19 5 4 2 4 31 35 1 0 0 1 2 2 2 3 5 5 4 0 65 87 0 99 76 5 5 5 5 5 5 5 5 5 5 12 86 100 100 90 100 100 100
100 100 100 100 100 100 98 89 91 69 49 5 20 44 5 9 10 5 5 0 0 0 0 0 2 67 100 30 5 5 16 96 35 100 69 52 6 28 8 5 7 52 100 62 26 33 92 100 89 83 94 100 100 100
100 100 100 86 62 63 6 44 72 5 5 64 83 8 9 70 97 57 0 0 1 59 74 95 100 91 77 100 100 100 100 100 53 13 25 96 66 72 67 84 13 69 100 98 100 99 93 100 100 100 100 100 100 100
100 100 100 52 5 5 69 55 33 96 86 87 8 5 72 100 67 2 4 74 100 100 100 100 100 100 100 100 99 80 76 63 5 5 37 48 96 100 97 55 31 34 99 100 99 100 100 100 100 100 100 100 100 100
73 19 21 29 62 5 5 5 11 53 40 5 5 60 80 10 1 0 3 31 100 100 100 100 100 100 100 100 100 100 99 98 9 5 5 47 99 97 96 88 99 100 100 100 100 100 100 100 100 100 100 100 100 100
68 10 5 6 5 54 76 47 5 5 2 6 50 5 2 0 0 0 8 69 10 5 56 100 66 100 98 100 99 100 100 100 50 6 22 9 100 100 100 100 100 86 100 100 100 100 100 100 100 100 100 100 100 100
38 97 100 81 62 78 6 5 8 5 65 100 94 28 2 0 0 71 66 4 3 0 0 16 10 28 18 45 19 18 29 5 5 61 49 52 100 100 100 100 100 100 100 100 100 97 100 100 100 100 100 100 100 100
100 100 100 100 91 41 5 5 5 5 5 5 27 25 2 0 0 0 0 0 0 0 0 0 1 9 5 19 80 96 28 3 0 0 6 88 100 100 100 100 100 100 100 100 100 91 100 100 100 98 100 100 100 100
100 100 89 35 18 82 95 27 5 6 6 54 4 21 70 59 5 0 0 2 0 0 0 0 0 0 0 10 94 34 0 0 0 0 28 100 100 100 100 100 100 100 100 99 100 100 100 100 100 100 100 100 100 100
31 20 65 93 33 26 100 100 66 59 85 66 7 4 5 3 5 0 0 20 47 4 4 3 0 0 0 0 2 0 0 0 0 1 66 100 100 100 100 100 100 99 82 99 100 100 100 100 100 100 100 100 100 100

GFSWCAN_prec_cloud_117.txt.gz
Cloud_Cover
100 100 100 100 100 100 100 100 100 100 100 100 100 100 100 100 100 100 100 100 100 100 100 100 100 100 100 100 100 100 88 78 88 100 78 71 91 74 33 9 23 32 100 100 100 82 96 94 80 98 100 83 100 100
100 100 100 100 100 100 100 100 100 100 100 100 100 100 100 100 100 100 100 100 100 100 100 100 100 100 100 100 100 100 100 100 100 91 100 100 100 100 93 100 97 97 90 100 60 67 99 100 100 100 100 100 100 100
100 100 100 100 100 100 100 100 90 100 100 100 100 100 100 100 100 100 100 100 100 100 100 100 73 60 62 77 93 95 99 100 100 100 100 100 100 100 100 100 100 100 100 100 100 100 100 100 100 100 100 100 100 100
98 99 100 100 100 100 100 100 100 100 100 100 80 100 100 100 100 96 74 97 69 100 100 100 100 91 86 22 5 15 11 40 90 100 100 100 100 100 100 100 100 100 100 100 100 100 100 100 100 100 100 100 100 100
100 100 100 100 100 100 100 100 100 100 100 100 100 100 100 100 100 100 77 100 100 100 100 100 100 100 100 100 92 22 5 5 5 5 31 59 16 34 97 100 100 100 100 100 98 39 92 34 23 10 15 27 65 100
100 100 100 100 100 100 100 100 100 100 100 100 100 100 100 100 100 100 100 65 89 100 100 100 100 100 100 100 100 100 100 100 98 89 9 5 5 4 7 81 98 51 20 5 17 5 5 5 98 79 69 41 42 6
100 100 100 99 100 100 100 100 100 100 100 100 100 100 100 100 100 100 100 100 100 85 100 100 100 100 100 100 100 100 100 100 100 100 100 100 100 26 99 100 6 5 2 1 0 0 4 5 1 2 5 5 5 5
100 100 100 63 100 100 100 100 100 100 100 100 100 100 100 100 100 100 100 100 100 100 100 100 98 93 93 100 74 54 94 98 99 77 97 100 100 100 100 85 80 12 16 9 5 5 20 5 1 5 5 5 5 5
100 100 100 94 100 98 100 100 100 100 88 100 100 100 100 100 100 100 100 100 100 100 100 100 100 91 32 20 55 100 100 100 100 100 100 87 100 100 100 100 90 18 5 5 9 5 5 5 28 6 4 5 9 54
100 100 99 100 100 100 88 100 100 100 100 100 100 100 100 100 100 100 100 100 100 100 100 100 100 100 100 74 85 87 66 90 99 77 80 100 100 100 100 100 100 100 100 100 100 96 23 5 5 5 5 5 9 82
100 100 100 100 92 98 29 100 100 57 96 93 85 100 100 100 100 100 100 100 100 100 100 100 100 100 98 100 100 100 89 82 100 76 93 99 100 50 100 94 55 8 31 60 33 26 0 0 5 71 66 90 80 76
100 100 100 100 100 100 100 100 98 24 99 94 82 95 100 100 100 100 100 100 100 100 100 100 100 100 100 100 100 99 67 96 89 95 100 91 68 11 27 21 6 5 5 5 1 2 42 53 5 20 70 86 95 100
100 91 99 100 100 100 100 100 100 100 100 96 74 89 100 95 100 100 100 100 100 100 100 100 100 100 100 100 100 83 97 88 92 100 100 51 78 37 19 32 28 48 93 100 36 6 12 81 100 100 100 100 100 100
100 100 100 100 100 100 100 100 100 100 100 96 89 49 100 72 81 61 100 100 100 100 100 100 100 100 100 100 98 92 75 81 100 88 95 100 90 85 100 97 60 96 100 100 100 100 100 100 100 100 100 100 100 100
100 100 100 81 100 100 100 100 100 100 99 100 100 93 87 70 50 55 51 53 72 86 100 98 100 100 100 100 100 58 96 94 46 100 100 100 100 70 9 7 7 86 100 49 95 100 100 100 100 100 100 100 100 100
100 100 100 88 100 100 100 100 100 84 100 100 100 100 100 99 95 97 100 60 8 69 92 99 98 100 100 88 100 98 88 90 100 100 100 100 63 42 39 53 52 84 0 1 4 7 90 100 100 100 100 100 100 100
100 100 100 100 100 100 100 100 100 100 100 100 100 95 19 56 100 85 54 96 71 100 100 100 99 100 100 100 97 100 100 100 100 100 92 8 0 0 0 0 0 18 44 3 0 1 5 9 11 20 56 100 100 100
99 100 98 100 100 100 100 100 100 100 100 99 86 2 76 5 5 5 5 5 6 32 86 50 40 68 59 86 42 83 34 14 3 0 0 0 0 0 0 0 0 0 0 0 0 0 0 0 4 3 4 82 100 100
5 18 64 6 99 100 100 100 100 96 31 12 7 5 5 4 3 0 0 0 3 8 95 99 100 99 68 45 8 4 4 2 4 5 3 0 0 0 0 0 0 0 0 0 0 0 0 0 0 0 0 16 62 76
5 5 4 4 95 100 100 100 100 100 77 13 11 0 2 1 0 1 2 0 7 37 31 30 5 0 2 0 0 0 0 1 1 0 0 0 0 0 5 5 0 0 0 0 0 0 0 2 0 0 0 7 5 78
12 3 5 6 95 100 100 100 100 88 22 5 1 0 4 5 5 4 5 2 5 5 5 5 3 0 0 0 0 0 0 0 0 0 16 29 0 0 4 3 5 5 5 5 5 5 5 5 5 5 5 28 100 100
8 81 49 100 100 100 100 100 100 100 99 54 49 9 20 7 0 0 5 9 5 0 0 0 0 0 0 0 1 0 0 1 5 40 71 26 5 5 2 5 5 5 5 5 5 5 5 5 5 5 5 62 75 24
100 100 100 100 100 100 100 100 100 100 100 85 70 17 25 53 19 5 5 4 0 0 0 0 0 0 1 0 2 1 1 5 5 5 5 5 5 5 5 5 20 70 33 53 41 7 5 5 5 5 5 6 27 7
100 100 100 100 100 100 100 100 100 100 100 94 78 37 41 5 5 5 4 0 0 0 0 0 0 0 0 5 5 5 0 4 24 5 5 72 7 5 13 5 92 90 100 100 70 53 36 15 62 88 92 93 92 99
100 100 100 100 100 100 100 100 100 100 64 43 5 13 20 6 5 69 2 0 0 0 0 0 89 98 59 12 46 36 81 97 87 22 45 100 99 42 34 92 94 100 100 98 45 42 33 96 74 100 100 100 100 100
100 100 100 100 100 100 78 97 99 69 59 84 57 6 29 5 39 34 4 1 0 0 0 41 68 69 24 92 81 100 100 100 100 100 100 100 76 30 24 5 100 100 100 100 100 47 50 92 94 84 100 100 100 100
89 91 96 66 95 99 96 91 100 100 100 100 80 79 76 100 38 4 1 1 0 0 2 38 28 1 0 6 97 100 100 100 100 100 100 92 100 100 25 6 100 100 100 99 81 100 92 98 100 100 100 100 100 100
19 42 20 47 90 70 100 100 100 100 100 92 60 12 12 12 1 0 2 1 0 0 0 2 0 2 5 88 100 100 100 100 100 100 74 5 19 72 100 96 100 100 100 98 100 100 100 100 100 96 100 100 100 100
100 93 100 85 98 100 100 100 81 30 30 52 52 5 0 0 0 0 0 0 0 0 0 4 16 6 3 17 97 100 100 98 100 84 73 93 98 92 93 100 42 94 100 100 100 100 100 99 99 100 100 100 100 100
100 100 100 98 100 100 74 61 17 37 93 86 68 4 0 0 0 0 0 0 25 7 0 0 0 18 13 81 56 100 100 100 99 42 5 5 69 100 79 23 100 100 100 100 100 85 100 94 100 100 100 100 100 100
47 6 5 5 4 4 50 59 31 84 100 63 5 2 0 0 0 0 0 0 2 4 4 4 18 5 3 37 30 5 15 86 24 2 0 3 17 50 22 95 100 100 100 100 100 100 99 100 100 100 100 100 100 98
100 100 100 100 99 87 71 46 18 10 5 12 34 100 54 62 5 4 0 4 5 2 6 97 45 5 5 0 4 5 5 40 64 2 0 1 5 0 17 100 100 100 100 100 100 93 100 100 100 99 100 100 98 100
100 99 75 79 98 73 54 36 62 83 86 31 9 5 18 76 12 1 3 1 0 2 25 98 100 46 0 0 0 0 0 0 0 0 0 5 3 0 55 100 100 100 100 97 100 100 100 100 100 100 100 100 100 100

GFSWCAN_prec_cloud_120.txt.gz
Cloud_Cover
100 100 100 100 100 100 100 100 100 100 100 100 100 100 100 100 100 100 100 100 100 100 100 100 100 100 100 100 100 68 79 99 100 100 100 100 100 100 100 100 100 100 100 100 97 98 100 100 100 100 100 100 100 66
100 100 94 97 98 100 100 100 100 100 100 100 100 100 100 100 100 100 100 100 100 100 100 100 100 100 100 100 100 47 27 5 7 44 5 99 99 88 88 99 38 23 100 100 100 100 100 100 100 100 100 100 100 100
100 100 100 100 100 100 100 98 100 100 100 100 100 100 100 100 100 100 100 100 93 92 100 100 100 100 100 100 100 100 44 22 6 5 5 5 4 5 5 5 5 0 4 5 24 17 61 29 42 82 98 100 94 54
100 100 100 100 100 100 100 100 100 100 100 100 100 100 100 100 100 100 100 100 95 100 100 79 100 48 82 100 100 100 93 93 100 100 100 100 68 18 50 49 56 29 5 0 5 7 47 92 74 100 100 100 47 68
100 100 97 100 100 100 100 100 100 100 100 100 100 100 100 100 100 100 100 100 100 91 100 100 100 100 100 100 100 100 100 100 100 100 100 100 100 100 100 100 100 93 2 4 83 5 9 100 100 86 95 55 71 77
100 100 100 100 100 100 100 100 74 97 100 100 100 100 99 100 100 100 100 100 100 99 70 100 100 100 100 100 100 82 31 68 100 100 100 100 100 100 100 100 100 4 10 17 74 12 59 100 100 41 5 6 31 54
100 100 100 100 100 100 100 100 100 99 100 100 100 100 96 98 100 100 100 100 100 100 100 100 100 100 100 100 100 100 100 25 11 44 99 100 100 64 100 96 30 39 38 8 5 8 95 97 57 5 0 4 5 5
100 100 100 100 100 99 64 100 86 68 100 100 100 100 100 100 100 100 100 100 100 100 100 100 100 100 100 100 100 100 100 100 100 100 100 100 100 100 88 8 5 51 7 32 9 5 19 16 2 2 3 4 0 3
100 100 100 100 100 100 100 100 100 98 100 100 100 100 100 100 100 100 100 100 100 100 100 100 100 100 100 100 100 100 100 100 100 100 100 100 100 100 22 15 6 10 42 5 5 24 4 1 0 2 37 83 5 5
99 100 100 100 100 100 100 100 100 100 100 71 100 96 100 100 100 100 100 100 100 100 100 100 100 100 100 100 100 100 100 100 100 100 100 100 100 100 100 100 100 100 100 100 100 100 99 97 6 5 94 98 56 11
100 100 100 100 96 99 100 100 100 100 100 77 100 98 99 100 100 100 100 100 100 100 100 100 100 100 100 100 100 100 100 100 100 100 100 100 100 100 100 100 100 99 100 85 28 36 30 2 0 0 2 24 100 100
100 100 100 100 100 100 100 100 100 100 100 91 92 84 100 100 100 100 100 100 100 100 100 94 84 100 100 100 99 99 100 100 100 100 100 100 100 100 100 100 100 83 99 100 90 100 98 78 6 53 94 65 92 100
94 100 100 100 100 100 100 100 100 100 100 100 100 96 100 80 99 100 64 92 100 70 100 100 90 86 100 100 100 89 91 86 100 100 100 100 100 100 100 100 100 100 98 100 86 81 13 64 100 100 100 100 100 100
100 100 100 90 73 100 64 100 100 100 100 76 70 98 85 54 58 50 8 28 100 100 100 100 100 97 99 71 95 97 70 93 100 99 100 100 100 100 100 96 100 98 62 5 24 97 99 98 60 89 100 72 8 79
100 100 100 100 96 100 100 100 100 100 100 92 59 70 5 5 31 59 62 39 86 64 94 100 91 56 98 96 99 95 97 100 100 100 100 100 100 74 31 22 5 3 3 39 83 96 96 65 3 5 35 5 37 32
100 100 100 100 100 100 100 100 100 100 100 99 100 95 98 85 59 71 88 100 100 88 99 100 79 94 53 85 100 100 95 87 100 69 54 52 38 56 61 5 5 22 44 16 5 5 0 0 0 0 0 3 0 19
98 48 100 100 100 100 100 100 100 100 100 100 99 99 76 66 95 36 95 100 91 86 91 68 82 99 66 93 94 93 90 52 5 4 3 1 2 11 28 3 0 0 4 6 3 1 0 0 0 0 0 0 0 5
24 4 86 100 100 100 100 100 100 100 100 99 99 95 32 6 6 5 6 69 63 6 19 36 42 83 74 74 4 3 2 1 0 1 1 0 0 0 0 0 0 0 0 0 0 0 0 0 0 0 1 3 5 5
5 5 5 6 97 99 100 100 100 100 19 9 20 20 8 5 24 37 70 54 16 35 68 95 88 30 4 2 3 4 5 5 2 0 0 0 0 0 0 0 0 0 0 0 0 1 1 0 1 3 5 5 5 5
42 5 33 25 93 100 100 100 100 100 100 23 34 4 21 65 98 15 30 89 24 100 99 89 6 4 3 0 0 0 0 0 0 0 0 0 0 0 0 0 0 0 1 2 4 5 5 5 5 5 5 5 5 5
63 53 84 100 100 100 100 93 100 100 100 60 2 0 5 31 2 1 1 5 5 6 37 0 0 0 0 0 0 0 0 0 0 0 0 1 0 1 5 5 5 5 5 5 5 9 22 29 78 5 5 5 5 5
10 90 86 100 100 100 100 100 100 92 100 100 72 27 41 4 0 2 30 45 50 0 2 0 0 0 0 0 0 0 0 0 0 3 4 5 5 10 5 5 5 5 5 5 6 56 38 50 87 49 10 19 51 35
99 100 100 100 100 100 44 91 88 97 100 87 100 99 67 92 29 5 5 5 4 0 1 4 0 0 0 0 0 0 0 17 91 33 5 5 46 28 5 5 33 94 31 8 100 47 5 25 5 15 60 25 36 98
100 100 100 100 100 100 53 96 73 99 100 100 100 95 89 41 84 99 27 1 0 25 22 0 0 0 0 0 0 0 2 100 100 97 84 84 68 11 25 14 98 100 100 88 8 94 6 6 5 5 51 72 72 100
100 100 100 100 94 99 97 90 99 97 86 55 80 82 100 59 100 100 10 5 4 2 0 0 1 2 0 0 0 1 93 100 100 21 62 100 100 100 100 100 100 100 100 51 100 33 99 68 28 86 98 97 100 100
100 86 100 100 100 98 27 73 83 48 56 98 100 100 100 100 100 82 5 0 5 5 0 3 1 0 0 0 0 0 34 100 97 10 72 100 100 100 84 76 90 100 100 100 100 100 100 94 89 92 100 100 100 100
100 100 90 15 51 81 97 96 100 100 100 100 98 100 100 100 98 5 2 77 100 8 0 0 0 0 0 0 0 0 0 42 99 43 94 100 92 100 79 18 55 100 100 100 100 100 70 61 100 100 99 100 100 100
25 66 83 77 83 90 100 100 100 100 100 81 89 100 100 100 100 71 100 97 17 0 1 1 5 0 0 0 0 2 5 5 97 86 84 100 100 95 97 14 99 100 100 100 100 100 70 67 100 98 100 97 100 99
94 51 100 100 100 100 98 76 52 26 80 100 82 82 100 98 100 51 5 4 5 3 0 1 0 3 0 0 0 1 22 45 59 38 88 98 93 84 96 99 14 96 100 100 100 100 5 94 100 100 100 100 100 100
53 65 57 88 100 100 99 99 100 100 97 80 44 24 16 3 1 0 4 4 5 3 0 0 0 0 0 0 0 4 99 26 3 93 52 69 98 100 100 99 57 100 100 16 91 63 31 100 100 95 83 100 100 100
98 99 73 48 23 3 7 77 26 3 4 4 3 4 1 0 0 0 0 0 0 0 0 0 0 0 0 0 5 21 3 4 1 11 5 3 10 100 100 100 100 100 95 26 100 48 100 95 100 100 100 100 100 100
94 96 98 98 94 98 80 49 98 98 37 88 89 64 8 6 5 1 7 99 41 0 0 0 0 0 2 4 5 6 0 0 0 5 5 5 23 66 100 100 100 100 24 10 100 77 100 100 100 100 100 100 100 100
86 100 100 100 100 100 100 100 30 55 53 39 4 0 0 3 5 17 100 100 78 4 0 0 0 0 0 0 0 0 0 0 0 0 3 2 2 11 87 100 100 81 6 23 100 99 97 100 100 100 100 100 100 100

GFSWCAN_prec_cloud_123.txt.gz
Cloud_Cover
100 100 100 100 100 100 100 100 85 65 100 36 27 76 100 100 69 100 100 100 100 100 100 100 100 100 100 100 100 100 68 6 5 5 12 8 63 51 65 31 5 5 19 32 67 78 51 16 1 2 34 100 100 100
100 100 98 100 100 100 100 100 100 100 100 100 100 48 19 35 24 27 91 100 100 100 100 100 100 100 100 100 66 95 100 86 100 76 63 76 97 97 100 100 100 98 57 5 5 4 12 48 45 34 5 5 5 5
100 87 100 100 100 100 100 100 100 100 96 100 100 100 100 100 100 89 57 74 38 92 93 95 100 100 94 100 100 100 100 100 80 96 100 100 100 100 100 100 100 100 100 100 70 96 100 100 99 18 46 86 22 49
100 100 100 100 100 100 100 100 100 100 100 100 100 100 100 100 100 100 100 96 78 100 97 97 98 100 100 100 100 95 100 98 100 100 100 100 100 100 100 100 100 100 8 1 55 100 100 100 100 33 15 29 9 5
100 100 100 100 100 100 100 95 100 100 100 100 100 100 100 100 100 100 100 100 100 100 36 25 93 41 100 100 100 100 100 100 98 93 100 97 100 100 100 100 100 100 18 92 100 92 48 100 100 89 5 7 5 5
100 100 100 100 100 100 100 100 100 100 100 100 100 100 100 100 100 100 100 100 100 100 100 100 100 98 45 100 100 99 100 100 100 100 78 95 100 97 68 100 100 33 100 100 100 100 73 100 100 77 5 57 5 5
100 100 100 100 100 100 100 100 100 100 100 100 100 100 100 100 100 100 100 100 100 100 100 100 100 100 100 100 100 100 100 100 100 100 100 100 100 100 69 100 100 100 100 100 100 100 100 100 91 5 5 5 10 6
100 100 100 100 100 100 100 100 100 100 100 93 100 100 100 100 100 100 100 100 100 100 100 100 100 100 100 100 100 100 100 100 100 100 100 100 100 100 100 100 100 100 100 100 100 100 88 18 5 20 90 86 100 17
100 100 100 100 100 100 100 100 100 100 100 97 100 100 96 100 77 100 100 100 100 100 100 100 100 100 100 100 100 100 100 100 100 100 100 100 100 100 100 100 100 100 100 100 100 100 29 28 8 5 100 100 100 90
100 100 100 100 100 100 100 100 100 94 95 98 97 100 100 100 100 96 100 100 100 100 100 100 100 91 100 100 100 100 100 100 100 100 100 100 100 100 100 100 100 100 100 100 100 93 100 100 100 100 100 100 100 100
99 100 100 100 100 100 100 89 100 100 96 84 100 66 91 100 95 94 100 100 100 100 100 100 100 100 73 100 100 100 99 99 100 100 100 100 100 100 100 100 100 100 92 100 97 100 100 100 100 100 100 100 100 100
100 100 99 100 100 100 100 100 100 61 87 85 64 100 100 100 100 100 100 100 100 99 83 100 97 95 100 99 71 100 97 90 78 100 99 100 100 100 100 100 100 100 93 52 100 100 100 100 100 100 100 100 100 67
100 100 100 100 100 100 100 100 66 59 86 86 94 95 100 100 98 100 100 100 100 40 50 95 100 51 47 50 92 100 100 76 82 100 38 86 100 100 34 9 72 100 80 85 52 96 100 91 93 54 10 17 10 4
100 100 100 100 100 100 100 100 100 98 100 75 68 100 72 78 98 40 26 86 100 100 100 97 73 21 21 38 60 100 37 90 100 99 22 20 0 1 4 74 100 85 97 58 60 86 68 46 5 1 0 0 0 0
100 100 100 100 100 100 100 100 100 100 98 98 94 93 100 86 51 64 66 66 100 100 100 100 80 37 73 76 90 84 96 100 100 72 5 5 0 7 10 7 5 5 3 4 31 4 1 4 3 0 0 0 0 0
100 92 56 100 100 100 100 100 98 100 100 98 98 100 95 60 16 90 99 100 100 100 100 75 72 97 93 73 99 100 100 76 21 5 5 5 10 19 26 1 0 0 0 0 0 0 0 0 0 0 0 0 0 0
99 100 100 100 100 100 100 100 100 100 100 100 100 32 6 56 10 59 38 96 100 100 100 100 100 94 41 90 77 89 100 97 42 5 4 5 3 0 0 0 0 0 0 0 0 0 0 0 0 0 0 0 0 0
87 97 100 100 62 96 100 100 100 100 88 14 82 23 40 62 77 100 100 100 100 100 100 100 62 19 49 87 14 97 47 2 0 0 0 0 0 0 0 0 0 0 0 0 0 0 0 0 0 2 4 5 5 5
5 20 39 47 97 96 100 100 100 100 77 28 21 21 7 11 44 81 75 83 100 100 100 96 93 83 48 100 100 61 5 0 0 0 0 0 0 0 0 0 0 0 0 0 0 0 0 0 1 5 6 34 66 12
5 31 5 6 48 97 100 100 100 92 97 67 53 38 7 6 1 5 5 7 80 94 92 98 44 4 0 0 1 0 0 0 0 0 0 0 0 0 0 0 0 0 1 4 5 5 5 5 5 10 95 100 99 77
82 92 71 97 100 100 100 75 94 98 100 49 46 5 5 10 5 4 4 14 100 100 5 3 0 0 0 0 0 0 0 0 0 0 0 0 0 0 0 5 5 5 5 5 5 7 5 5 5 99 100 92 100 83
82 100 100 100 100 100 100 100 94 70 86 28 68 49 32 10 6 30 70 65 9 0 2 0 5 1 5 10 0 8 5 4 0 0 0 0 4 8 7 10 83 95 47 23 97 66 5 5 67 100 100 98 100 56
93 100 100 100 100 100 47 79 99 100 80 32 77 70 54 41 19 9 61 6 3 0 0 5 5 11 99 20 100 96 13 0 0 0 0 0 3 45 100 39 94 100 100 89 90 94 76 88 100 100 100 100 97 45
100 100 100 100 99 72 56 100 77 81 92 74 100 68 51 66 14 47 57 1 0 0 5 85 100 69 66 100 100 13 0 0 0 0 0 2 4 47 86 5 99 100 100 100 100 100 100 100 100 100 100 100 100 95
100 100 100 100 100 100 100 100 100 100 70 65 100 100 33 86 98 72 32 0 0 0 2 55 100 100 100 92 0 0 0 0 0 0 0 0 9 32 8 99 100 100 100 95 100 100 100 100 100 100 100 100 99 87
100 96 79 53 60 83 62 86 95 99 100 100 63 64 78 86 100 100 6 0 1 41 88 99 100 84 7 0 0 0 0 0 0 0 0 0 9 55 18 92 100 100 100 92 100 100 100 100 100 100 100 100 100 97
99 92 100 12 14 33 99 80 67 100 100 89 35 77 100 100 100 8 38 55 100 100 100 36 5 3 0 0 0 0 0 0 1 0 0 0 0 20 43 19 94 100 100 96 100 100 100 99 100 100 100 100 100 98
19 39 58 52 83 88 72 50 96 100 64 99 100 100 100 99 92 83 57 79 92 64 56 62 6 2 0 0 0 0 0 0 0 0 0 0 0 34 100 93 99 100 100 100 100 100 100 100 100 100 100 100 100 100
100 50 39 89 98 91 84 77 41 41 100 100 100 52 7 6 64 72 13 5 5 5 2 2 2 5 4 0 0 0 0 1 3 5 5 4 0 60 71 62 46 100 100 100 100 100 69 29 79 96 100 100 100 100
63 28 62 88 68 58 5 55 27 24 62 44 8 5 5 5 8 70 18 5 5 3 4 12 5 5 3 3 1 0 0 5 5 5 4 1 0 49 100 100 57 95 100 100 100 100 16 62 87 100 100 100 100 100
74 72 91 55 16 54 96 99 94 90 65 83 95 46 4 44 5 5 7 24 54 81 97 22 2 6 70 16 4 0 0 0 0 1 0 0 0 2 82 100 54 100 100 100 99 30 50 86 95 98 97 100 100 100
93 85 95 84 55 100 100 93 38 100 100 100 100 100 100 96 11 5 96 100 90 16 0 0 5 5 72 9 0 0 0 0 0 2 5 3 5 2 95 100 78 100 100 100 92 61 84 83 92 100 100 100 100 100
94 87 100 62 83 88 100 86 51 94 100 100 100 100 100 100 62 74 76 80 46 5 5 2 0 0 0 0 0 0 0 0 0 0 0 0 0 0 27 28 100 100 100 100 96 71 92 96 100 100 100 100 100 100